<?xml version="1.0" encoding="UTF-8" standalone="no" ?><gpx xmlns="http://www.topografix.com/GPX/1/1" xmlns:gpxx="http://www.garmin.com/xmlschemas/GpxExtensions/v3" xmlns:wptx1="http://www.garmin.com/xmlschemas/WaypointExtension/v1" xmlns:gpxtpx="http://www.garmin.com/xmlschemas/TrackPointExtension/v1" creator="Dakota 20" version="1.1" xmlns:xsi="http://www.w3.org/2001/XMLSchema-instance" xsi:schemaLocation="http://www.topografix.com/GPX/1/1 http://www.topografix.com/GPX/1/1/gpx.xsd http://www.garmin.com/xmlschemas/GpxExtensions/v3 http://www8.garmin.com/xmlschemas/GpxExtensionsv3.xsd http://www.garmin.com/xmlschemas/WaypointExtension/v1 http://www8.garmin.com/xmlschemas/WaypointExtensionv1.xsd http://www.garmin.com/xmlschemas/TrackPointExtension/v1 http://www.garmin.com/xmlschemas/TrackPointExtensionv1.xsd"><metadata><link href="http://www.garmin.com"><text>Garmin International</text></link><time>2016-05-17T20:40:55Z</time></metadata><trk><name>Tracé actuel: 16 MAI 2016 09:21</name><extensions><gpxx:TrackExtension><gpxx:DisplayColor>Red</gpxx:DisplayColor></gpxx:TrackExtension></extensions><trkseg><trkpt lat="43.0293570645" lon="0.1675098203"><ele>613.46</ele><time>2016-05-16T07:21:22Z</time></trkpt><trkpt lat="43.0293858983" lon="0.1675459463"><ele>616.34</ele><time>2016-05-16T07:21:29Z</time></trkpt><trkpt lat="43.0293820426" lon="0.1675514784"><ele>617.30</ele><time>2016-05-16T07:21:33Z</time></trkpt><trkpt lat="43.0293838866" lon="0.1675814018"><ele>619.23</ele><time>2016-05-16T07:21:36Z</time></trkpt><trkpt lat="43.0293945316" lon="0.1675943937"><ele>620.67</ele><time>2016-05-16T07:21:52Z</time></trkpt><trkpt lat="43.0293751694" lon="0.1675824076"><ele>622.11</ele><time>2016-05-16T07:22:07Z</time></trkpt><trkpt lat="43.0293783545" lon="0.1675737742"><ele>622.59</ele><time>2016-05-16T07:22:15Z</time></trkpt><trkpt lat="43.0293807853" lon="0.1675752830"><ele>624.03</ele><time>2016-05-16T07:22:18Z</time></trkpt><trkpt lat="43.0293974653" lon="0.1675973274"><ele>624.99</ele><time>2016-05-16T07:22:25Z</time></trkpt><trkpt lat="43.0293872394" lon="0.1676133368"><ele>626.92</ele><time>2016-05-16T07:22:45Z</time></trkpt><trkpt lat="43.0294093676" lon="0.1675612852"><ele>627.88</ele><time>2016-05-16T07:22:57Z</time></trkpt><trkpt lat="43.0294434819" lon="0.1675677393"><ele>629.32</ele><time>2016-05-16T07:23:17Z</time></trkpt><trkpt lat="43.0294622574" lon="0.1675881073"><ele>628.84</ele><time>2016-05-16T07:23:37Z</time></trkpt><trkpt lat="43.0294685438" lon="0.1676132530"><ele>629.32</ele><time>2016-05-16T07:23:42Z</time></trkpt><trkpt lat="43.0294330046" lon="0.1676262449"><ele>629.32</ele><time>2016-05-16T07:23:52Z</time></trkpt><trkpt lat="43.0294237006" lon="0.1676079724"><ele>628.84</ele><time>2016-05-16T07:24:08Z</time></trkpt><trkpt lat="43.0294252932" lon="0.1675847545"><ele>628.84</ele><time>2016-05-16T07:24:24Z</time></trkpt><trkpt lat="43.0294289812" lon="0.1675749477"><ele>628.84</ele><time>2016-05-16T07:24:32Z</time></trkpt><trkpt lat="43.0294306576" lon="0.1674712636"><ele>629.80</ele><time>2016-05-16T07:24:38Z</time></trkpt><trkpt lat="43.0294102058" lon="0.1673758775"><ele>629.80</ele><time>2016-05-16T07:24:43Z</time></trkpt><trkpt lat="43.0295033287" lon="0.1673305314"><ele>629.80</ele><time>2016-05-16T07:24:48Z</time></trkpt><trkpt lat="43.0298400298" lon="0.1673070621"><ele>628.84</ele><time>2016-05-16T07:25:02Z</time></trkpt><trkpt lat="43.0301205721" lon="0.1671811659"><ele>628.36</ele><time>2016-05-16T07:25:10Z</time></trkpt><trkpt lat="43.0310119875" lon="0.1669199858"><ele>625.96</ele><time>2016-05-16T07:25:26Z</time></trkpt><trkpt lat="43.0316057615" lon="0.1667442173"><ele>622.59</ele><time>2016-05-16T07:25:34Z</time></trkpt><trkpt lat="43.0321392696" lon="0.1664138865"><ele>620.67</ele><time>2016-05-16T07:25:41Z</time></trkpt><trkpt lat="43.0323832668" lon="0.1662443206"><ele>619.23</ele><time>2016-05-16T07:25:44Z</time></trkpt><trkpt lat="43.0328834150" lon="0.1658945438"><ele>616.34</ele><time>2016-05-16T07:25:50Z</time></trkpt><trkpt lat="43.0339762475" lon="0.1651377417"><ele>612.50</ele><time>2016-05-16T07:26:04Z</time></trkpt><trkpt lat="43.0350741092" lon="0.1643723901"><ele>610.57</ele><time>2016-05-16T07:26:19Z</time></trkpt><trkpt lat="43.0359760020" lon="0.1637345273"><ele>607.21</ele><time>2016-05-16T07:26:32Z</time></trkpt><trkpt lat="43.0362544488" lon="0.1635650452"><ele>606.25</ele><time>2016-05-16T07:26:36Z</time></trkpt><trkpt lat="43.0372461118" lon="0.1630137675"><ele>604.33</ele><time>2016-05-16T07:26:52Z</time></trkpt><trkpt lat="43.0372576788" lon="0.1630383264"><ele>603.85</ele><time>2016-05-16T07:26:53Z</time></trkpt><trkpt lat="43.0372641329" lon="0.1630864386"><ele>605.29</ele><time>2016-05-16T07:26:54Z</time></trkpt><trkpt lat="43.0373717565" lon="0.1636065356"><ele>605.77</ele><time>2016-05-16T07:27:04Z</time></trkpt><trkpt lat="43.0373937171" lon="0.1643318217"><ele>605.77</ele><time>2016-05-16T07:27:16Z</time></trkpt><trkpt lat="43.0374021828" lon="0.1645101886"><ele>606.73</ele><time>2016-05-16T07:27:19Z</time></trkpt><trkpt lat="43.0374561623" lon="0.1647987776"><ele>606.73</ele><time>2016-05-16T07:27:24Z</time></trkpt><trkpt lat="43.0374732614" lon="0.1648509968"><ele>606.25</ele><time>2016-05-16T07:27:25Z</time></trkpt><trkpt lat="43.0374934617" lon="0.1649015397"><ele>606.73</ele><time>2016-05-16T07:27:26Z</time></trkpt><trkpt lat="43.0375143327" lon="0.1649468858"><ele>607.21</ele><time>2016-05-16T07:27:27Z</time></trkpt><trkpt lat="43.0375359580" lon="0.1649909746"><ele>607.21</ele><time>2016-05-16T07:27:28Z</time></trkpt><trkpt lat="43.0375838187" lon="0.1650785655"><ele>606.73</ele><time>2016-05-16T07:27:30Z</time></trkpt><trkpt lat="43.0380187556" lon="0.1656192821"><ele>609.13</ele><time>2016-05-16T07:27:45Z</time></trkpt><trkpt lat="43.0383121222" lon="0.1658542268"><ele>610.09</ele><time>2016-05-16T07:27:54Z</time></trkpt><trkpt lat="43.0384863820" lon="0.1659956295"><ele>610.09</ele><time>2016-05-16T07:27:59Z</time></trkpt><trkpt lat="43.0385235976" lon="0.1660239603"><ele>610.57</ele><time>2016-05-16T07:28:00Z</time></trkpt><trkpt lat="43.0389971752" lon="0.1665464044"><ele>610.57</ele><time>2016-05-16T07:28:14Z</time></trkpt><trkpt lat="43.0393591896" lon="0.1672156993"><ele>611.06</ele><time>2016-05-16T07:28:28Z</time></trkpt><trkpt lat="43.0395182781" lon="0.1679490320"><ele>611.54</ele><time>2016-05-16T07:28:42Z</time></trkpt><trkpt lat="43.0395739339" lon="0.1680779457"><ele>612.02</ele><time>2016-05-16T07:28:46Z</time></trkpt><trkpt lat="43.0396013428" lon="0.1681005768"><ele>612.02</ele><time>2016-05-16T07:28:47Z</time></trkpt><trkpt lat="43.0396367144" lon="0.1681170892"><ele>612.02</ele><time>2016-05-16T07:28:48Z</time></trkpt><trkpt lat="43.0401427299" lon="0.1680600923"><ele>612.02</ele><time>2016-05-16T07:29:02Z</time></trkpt><trkpt lat="43.0403272994" lon="0.1679947134"><ele>612.02</ele><time>2016-05-16T07:29:07Z</time></trkpt><trkpt lat="43.0407541059" lon="0.1678848267"><ele>611.54</ele><time>2016-05-16T07:29:18Z</time></trkpt><trkpt lat="43.0409267731" lon="0.1678548194"><ele>611.06</ele><time>2016-05-16T07:29:22Z</time></trkpt><trkpt lat="43.0409694370" lon="0.1678465214"><ele>611.06</ele><time>2016-05-16T07:29:23Z</time></trkpt><trkpt lat="43.0410157889" lon="0.1678367145"><ele>611.06</ele><time>2016-05-16T07:29:24Z</time></trkpt><trkpt lat="43.0411533359" lon="0.1678108983"><ele>610.57</ele><time>2016-05-16T07:29:27Z</time></trkpt><trkpt lat="43.0412441958" lon="0.1677847467"><ele>611.06</ele><time>2016-05-16T07:29:29Z</time></trkpt><trkpt lat="43.0414378177" lon="0.1677869260"><ele>610.09</ele><time>2016-05-16T07:29:35Z</time></trkpt><trkpt lat="43.0414536595" lon="0.1678036898"><ele>610.57</ele><time>2016-05-16T07:29:36Z</time></trkpt><trkpt lat="43.0414633825" lon="0.1678364631"><ele>610.57</ele><time>2016-05-16T07:29:37Z</time></trkpt><trkpt lat="43.0414755363" lon="0.1678739302"><ele>610.09</ele><time>2016-05-16T07:29:38Z</time></trkpt><trkpt lat="43.0414866842" lon="0.1679118164"><ele>610.09</ele><time>2016-05-16T07:29:39Z</time></trkpt><trkpt lat="43.0414983351" lon="0.1679468527"><ele>610.09</ele><time>2016-05-16T07:29:40Z</time></trkpt><trkpt lat="43.0415130872" lon="0.1679801289"><ele>610.09</ele><time>2016-05-16T07:29:41Z</time></trkpt><trkpt lat="43.0418116506" lon="0.1683505252"><ele>611.54</ele><time>2016-05-16T07:29:54Z</time></trkpt><trkpt lat="43.0421227030" lon="0.1685803570"><ele>612.98</ele><time>2016-05-16T07:30:06Z</time></trkpt><trkpt lat="43.0424171593" lon="0.1688479912"><ele>614.42</ele><time>2016-05-16T07:30:17Z</time></trkpt><trkpt lat="43.0425421335" lon="0.1689389348"><ele>614.42</ele><time>2016-05-16T07:30:21Z</time></trkpt><trkpt lat="43.0425719731" lon="0.1689703669"><ele>613.94</ele><time>2016-05-16T07:30:22Z</time></trkpt><trkpt lat="43.0426000524" lon="0.1690046489"><ele>614.42</ele><time>2016-05-16T07:30:23Z</time></trkpt><trkpt lat="43.0426257849" lon="0.1690346561"><ele>613.94</ele><time>2016-05-16T07:30:24Z</time></trkpt><trkpt lat="43.0426506791" lon="0.1690571196"><ele>614.42</ele><time>2016-05-16T07:30:25Z</time></trkpt><trkpt lat="43.0426714662" lon="0.1690794155"><ele>614.42</ele><time>2016-05-16T07:30:26Z</time></trkpt><trkpt lat="43.0426898226" lon="0.1691118535"><ele>614.90</ele><time>2016-05-16T07:30:27Z</time></trkpt><trkpt lat="43.0427108612" lon="0.1691433694"><ele>614.90</ele><time>2016-05-16T07:30:28Z</time></trkpt><trkpt lat="43.0427290499" lon="0.1691725384"><ele>614.90</ele><time>2016-05-16T07:30:29Z</time></trkpt><trkpt lat="43.0427427124" lon="0.1692001149"><ele>615.38</ele><time>2016-05-16T07:30:30Z</time></trkpt><trkpt lat="43.0427548662" lon="0.1692310441"><ele>615.38</ele><time>2016-05-16T07:30:31Z</time></trkpt><trkpt lat="43.0427754018" lon="0.1693049725"><ele>615.86</ele><time>2016-05-16T07:30:33Z</time></trkpt><trkpt lat="43.0427785031" lon="0.1693327166"><ele>616.34</ele><time>2016-05-16T07:30:34Z</time></trkpt><trkpt lat="43.0427714624" lon="0.1693635620"><ele>616.34</ele><time>2016-05-16T07:30:35Z</time></trkpt><trkpt lat="43.0427627452" lon="0.1694036275"><ele>616.34</ele><time>2016-05-16T07:30:36Z</time></trkpt><trkpt lat="43.0427547824" lon="0.1694326289"><ele>616.82</ele><time>2016-05-16T07:30:37Z</time></trkpt><trkpt lat="43.0427840352" lon="0.1699479483"><ele>619.23</ele><time>2016-05-16T07:30:51Z</time></trkpt><trkpt lat="43.0428729672" lon="0.1702211984"><ele>622.11</ele><time>2016-05-16T07:31:02Z</time></trkpt><trkpt lat="43.0429775734" lon="0.1704907604"><ele>625.96</ele><time>2016-05-16T07:31:15Z</time></trkpt><trkpt lat="43.0430385098" lon="0.1707184967"><ele>628.84</ele><time>2016-05-16T07:31:26Z</time></trkpt><trkpt lat="43.0430913158" lon="0.1709531900"><ele>632.68</ele><time>2016-05-16T07:31:37Z</time></trkpt><trkpt lat="43.0431099236" lon="0.1712390967"><ele>635.09</ele><time>2016-05-16T07:31:51Z</time></trkpt><trkpt lat="43.0431372486" lon="0.1714685932"><ele>637.97</ele><time>2016-05-16T07:32:03Z</time></trkpt><trkpt lat="43.0431447085" lon="0.1714923140"><ele>638.45</ele><time>2016-05-16T07:32:04Z</time></trkpt><trkpt lat="43.0431477260" lon="0.1715156157"><ele>638.45</ele><time>2016-05-16T07:32:05Z</time></trkpt><trkpt lat="43.0431722850" lon="0.1718814857"><ele>641.82</ele><time>2016-05-16T07:32:23Z</time></trkpt><trkpt lat="43.0431949999" lon="0.1721522212"><ele>645.18</ele><time>2016-05-16T07:32:38Z</time></trkpt><trkpt lat="43.0432143621" lon="0.1724287402"><ele>648.07</ele><time>2016-05-16T07:32:52Z</time></trkpt><trkpt lat="43.0432170443" lon="0.1727353502"><ele>650.95</ele><time>2016-05-16T07:33:09Z</time></trkpt><trkpt lat="43.0432215706" lon="0.1729802694"><ele>654.31</ele><time>2016-05-16T07:33:22Z</time></trkpt><trkpt lat="43.0432213191" lon="0.1731664315"><ele>656.72</ele><time>2016-05-16T07:33:33Z</time></trkpt><trkpt lat="43.0432180502" lon="0.1731795073"><ele>656.72</ele><time>2016-05-16T07:33:34Z</time></trkpt><trkpt lat="43.0432032980" lon="0.1734514162"><ele>660.08</ele><time>2016-05-16T07:33:49Z</time></trkpt><trkpt lat="43.0431959219" lon="0.1735342294"><ele>661.04</ele><time>2016-05-16T07:33:54Z</time></trkpt><trkpt lat="43.0431910604" lon="0.1735502388"><ele>661.04</ele><time>2016-05-16T07:33:55Z</time></trkpt><trkpt lat="43.0431967601" lon="0.1736213174"><ele>662.49</ele><time>2016-05-16T07:34:00Z</time></trkpt><trkpt lat="43.0431993585" lon="0.1736456249"><ele>662.49</ele><time>2016-05-16T07:34:01Z</time></trkpt><trkpt lat="43.0432768911" lon="0.1739358902"><ele>665.37</ele><time>2016-05-16T07:34:16Z</time></trkpt><trkpt lat="43.0433467962" lon="0.1742104813"><ele>668.25</ele><time>2016-05-16T07:34:31Z</time></trkpt><trkpt lat="43.0433917232" lon="0.1744393073"><ele>670.66</ele><time>2016-05-16T07:34:42Z</time></trkpt><trkpt lat="43.0434529111" lon="0.1747143175"><ele>673.06</ele><time>2016-05-16T07:34:58Z</time></trkpt><trkpt lat="43.0435214750" lon="0.1749177463"><ele>676.42</ele><time>2016-05-16T07:35:10Z</time></trkpt><trkpt lat="43.0435877759" lon="0.1751080155"><ele>678.83</ele><time>2016-05-16T07:35:23Z</time></trkpt><trkpt lat="43.0436743610" lon="0.1753227599"><ele>681.71</ele><time>2016-05-16T07:35:38Z</time></trkpt><trkpt lat="43.0436835811" lon="0.1753684413"><ele>682.67</ele><time>2016-05-16T07:35:42Z</time></trkpt><trkpt lat="43.0437239818" lon="0.1754848659"><ele>683.63</ele><time>2016-05-16T07:35:49Z</time></trkpt><trkpt lat="43.0437318608" lon="0.1755087543"><ele>684.12</ele><time>2016-05-16T07:35:50Z</time></trkpt><trkpt lat="43.0437557492" lon="0.1755845267"><ele>685.56</ele><time>2016-05-16T07:35:55Z</time></trkpt><trkpt lat="43.0438011792" lon="0.1756512467"><ele>687.00</ele><time>2016-05-16T07:36:01Z</time></trkpt><trkpt lat="43.0438415799" lon="0.1756943297"><ele>687.48</ele><time>2016-05-16T07:36:05Z</time></trkpt><trkpt lat="43.0439390615" lon="0.1758623868"><ele>689.88</ele><time>2016-05-16T07:36:17Z</time></trkpt><trkpt lat="43.0441031791" lon="0.1760417596"><ele>693.25</ele><time>2016-05-16T07:36:31Z</time></trkpt><trkpt lat="43.0441750959" lon="0.1760910451"><ele>694.69</ele><time>2016-05-16T07:36:36Z</time></trkpt><trkpt lat="43.0442650337" lon="0.1763090584"><ele>697.09</ele><time>2016-05-16T07:36:50Z</time></trkpt><trkpt lat="43.0442930292" lon="0.1763656363"><ele>698.05</ele><time>2016-05-16T07:36:54Z</time></trkpt><trkpt lat="43.0443066917" lon="0.1763886027"><ele>698.53</ele><time>2016-05-16T07:36:55Z</time></trkpt><trkpt lat="43.0443692207" lon="0.1765134092"><ele>699.50</ele><time>2016-05-16T07:37:03Z</time></trkpt><trkpt lat="43.0443968810" lon="0.1766416524"><ele>700.94</ele><time>2016-05-16T07:37:10Z</time></trkpt><trkpt lat="43.0444563087" lon="0.1768443268"><ele>702.38</ele><time>2016-05-16T07:37:18Z</time></trkpt><trkpt lat="43.0445058458" lon="0.1769278944"><ele>702.86</ele><time>2016-05-16T07:37:23Z</time></trkpt><trkpt lat="43.0446375255" lon="0.1771586481"><ele>705.26</ele><time>2016-05-16T07:37:37Z</time></trkpt><trkpt lat="43.0446666107" lon="0.1772057544"><ele>706.23</ele><time>2016-05-16T07:37:40Z</time></trkpt><trkpt lat="43.0447260384" lon="0.1772894058"><ele>706.23</ele><time>2016-05-16T07:37:45Z</time></trkpt><trkpt lat="43.0448712129" lon="0.1776341535"><ele>709.59</ele><time>2016-05-16T07:38:02Z</time></trkpt><trkpt lat="43.0449571274" lon="0.1779361535"><ele>711.99</ele><time>2016-05-16T07:38:16Z</time></trkpt><trkpt lat="43.0449717958" lon="0.1781219803"><ele>713.44</ele><time>2016-05-16T07:38:27Z</time></trkpt><trkpt lat="43.0449869670" lon="0.1783117466"><ele>714.88</ele><time>2016-05-16T07:38:37Z</time></trkpt><trkpt lat="43.0450263619" lon="0.1784833241"><ele>716.32</ele><time>2016-05-16T07:38:45Z</time></trkpt><trkpt lat="43.0450587161" lon="0.1787351165"><ele>718.72</ele><time>2016-05-16T07:38:59Z</time></trkpt><trkpt lat="43.0450663436" lon="0.1789807063"><ele>721.61</ele><time>2016-05-16T07:39:12Z</time></trkpt><trkpt lat="43.0450295471" lon="0.1791774295"><ele>724.01</ele><time>2016-05-16T07:39:24Z</time></trkpt><trkpt lat="43.0450235959" lon="0.1793410443"><ele>726.89</ele><time>2016-05-16T07:39:36Z</time></trkpt><trkpt lat="43.0449500028" lon="0.1795299724"><ele>728.82</ele><time>2016-05-16T07:39:49Z</time></trkpt><trkpt lat="43.0449230969" lon="0.1796956826"><ele>730.26</ele><time>2016-05-16T07:39:58Z</time></trkpt><trkpt lat="43.0449045729" lon="0.1799156237"><ele>732.18</ele><time>2016-05-16T07:40:08Z</time></trkpt><trkpt lat="43.0447847955" lon="0.1801059768"><ele>736.03</ele><time>2016-05-16T07:40:23Z</time></trkpt><trkpt lat="43.0447719712" lon="0.1802928094"><ele>739.39</ele><time>2016-05-16T07:40:36Z</time></trkpt><trkpt lat="43.0447828677" lon="0.1803547516"><ele>741.31</ele><time>2016-05-16T07:40:50Z</time></trkpt><trkpt lat="43.0447394494" lon="0.1805047877"><ele>744.20</ele><time>2016-05-16T07:41:02Z</time></trkpt><trkpt lat="43.0447172374" lon="0.1806076337"><ele>746.60</ele><time>2016-05-16T07:41:16Z</time></trkpt><trkpt lat="43.0447006412" lon="0.1807318535"><ele>749.00</ele><time>2016-05-16T07:41:27Z</time></trkpt><trkpt lat="43.0446598213" lon="0.1808317658"><ele>750.45</ele><time>2016-05-16T07:41:33Z</time></trkpt><trkpt lat="43.0446049199" lon="0.1808933727"><ele>751.41</ele><time>2016-05-16T07:41:41Z</time></trkpt><trkpt lat="43.0445426423" lon="0.1809307560"><ele>754.29</ele><time>2016-05-16T07:41:51Z</time></trkpt><trkpt lat="43.0444876570" lon="0.1809779461"><ele>754.77</ele><time>2016-05-16T07:41:58Z</time></trkpt><trkpt lat="43.0444511119" lon="0.1810279023"><ele>756.21</ele><time>2016-05-16T07:42:04Z</time></trkpt><trkpt lat="43.0443727411" lon="0.1811096258"><ele>758.62</ele><time>2016-05-16T07:42:16Z</time></trkpt><trkpt lat="43.0443063565" lon="0.1811944507"><ele>761.50</ele><time>2016-05-16T07:42:29Z</time></trkpt><trkpt lat="43.0442123115" lon="0.1812719833"><ele>763.90</ele><time>2016-05-16T07:42:43Z</time></trkpt><trkpt lat="43.0441660434" lon="0.1813817024"><ele>765.83</ele><time>2016-05-16T07:42:56Z</time></trkpt><trkpt lat="43.0441746768" lon="0.1814759988"><ele>768.23</ele><time>2016-05-16T07:43:09Z</time></trkpt><trkpt lat="43.0441406462" lon="0.1815305650"><ele>769.19</ele><time>2016-05-16T07:43:18Z</time></trkpt><trkpt lat="43.0440201983" lon="0.1815571357"><ele>770.63</ele><time>2016-05-16T07:43:29Z</time></trkpt><trkpt lat="43.0440181028" lon="0.1815906633"><ele>769.67</ele><time>2016-05-16T07:43:43Z</time></trkpt><trkpt lat="43.0440180190" lon="0.1815947704"><ele>769.19</ele><time>2016-05-16T07:44:05Z</time></trkpt><trkpt lat="43.0440244731" lon="0.1816342492"><ele>771.60</ele><time>2016-05-16T07:44:31Z</time></trkpt><trkpt lat="43.0440184381" lon="0.1816402841"><ele>770.15</ele><time>2016-05-16T07:44:46Z</time></trkpt><trkpt lat="43.0440092180" lon="0.1816591434"><ele>770.15</ele><time>2016-05-16T07:45:08Z</time></trkpt><trkpt lat="43.0440190248" lon="0.1816960238"><ele>770.15</ele><time>2016-05-16T07:45:34Z</time></trkpt><trkpt lat="43.0440212041" lon="0.1816972811"><ele>770.15</ele><time>2016-05-16T07:45:57Z</time></trkpt><trkpt lat="43.0440108944" lon="0.1817080937"><ele>769.67</ele><time>2016-05-16T07:46:24Z</time></trkpt><trkpt lat="43.0440077931" lon="0.1817093510"><ele>771.11</ele><time>2016-05-16T07:46:48Z</time></trkpt><trkpt lat="43.0440025125" lon="0.1817026455"><ele>769.67</ele><time>2016-05-16T07:46:50Z</time></trkpt><trkpt lat="43.0439746007" lon="0.1816833671"><ele>770.63</ele><time>2016-05-16T07:46:53Z</time></trkpt><trkpt lat="43.0439641234" lon="0.1815610752"><ele>773.52</ele><time>2016-05-16T07:47:06Z</time></trkpt><trkpt lat="43.0438905302" lon="0.1813709736"><ele>776.40</ele><time>2016-05-16T07:47:16Z</time></trkpt><trkpt lat="43.0439058691" lon="0.1812819578"><ele>777.36</ele><time>2016-05-16T07:47:20Z</time></trkpt><trkpt lat="43.0439125746" lon="0.1812382042"><ele>778.32</ele><time>2016-05-16T07:47:22Z</time></trkpt><trkpt lat="43.0439198669" lon="0.1811435726"><ele>779.29</ele><time>2016-05-16T07:47:26Z</time></trkpt><trkpt lat="43.0439216271" lon="0.1810976397"><ele>780.25</ele><time>2016-05-16T07:47:28Z</time></trkpt><trkpt lat="43.0438877642" lon="0.1809701510"><ele>781.21</ele><time>2016-05-16T07:47:35Z</time></trkpt><trkpt lat="43.0437587667" lon="0.1810020860"><ele>785.05</ele><time>2016-05-16T07:47:49Z</time></trkpt><trkpt lat="43.0437346268" lon="0.1810538862"><ele>786.50</ele><time>2016-05-16T07:47:55Z</time></trkpt><trkpt lat="43.0436563399" lon="0.1811222825"><ele>788.90</ele><time>2016-05-16T07:48:01Z</time></trkpt><trkpt lat="43.0435473751" lon="0.1811791956"><ele>792.26</ele><time>2016-05-16T07:48:11Z</time></trkpt><trkpt lat="43.0434459541" lon="0.1812278945"><ele>794.67</ele><time>2016-05-16T07:48:24Z</time></trkpt><trkpt lat="43.0434343871" lon="0.1812350191"><ele>795.15</ele><time>2016-05-16T07:48:26Z</time></trkpt><trkpt lat="43.0434041284" lon="0.1812491007"><ele>795.63</ele><time>2016-05-16T07:48:30Z</time></trkpt><trkpt lat="43.0432820041" lon="0.1813198440"><ele>798.51</ele><time>2016-05-16T07:48:42Z</time></trkpt><trkpt lat="43.0432059802" lon="0.1813497674"><ele>799.95</ele><time>2016-05-16T07:48:50Z</time></trkpt><trkpt lat="43.0431515817" lon="0.1813718118"><ele>799.95</ele><time>2016-05-16T07:48:54Z</time></trkpt><trkpt lat="43.0430437066" lon="0.1814182475"><ele>803.32</ele><time>2016-05-16T07:49:04Z</time></trkpt><trkpt lat="43.0429883022" lon="0.1814301498"><ele>805.24</ele><time>2016-05-16T07:49:09Z</time></trkpt><trkpt lat="43.0429154634" lon="0.1814205945"><ele>805.72</ele><time>2016-05-16T07:49:21Z</time></trkpt><trkpt lat="43.0428510904" lon="0.1814307366"><ele>807.16</ele><time>2016-05-16T07:49:34Z</time></trkpt><trkpt lat="43.0427933391" lon="0.1814743225"><ele>809.09</ele><time>2016-05-16T07:49:46Z</time></trkpt><trkpt lat="43.0427521002" lon="0.1814956125"><ele>811.01</ele><time>2016-05-16T07:49:58Z</time></trkpt><trkpt lat="43.0426610727" lon="0.1815257873"><ele>813.41</ele><time>2016-05-16T07:50:08Z</time></trkpt><trkpt lat="43.0425861385" lon="0.1815576386"><ele>814.37</ele><time>2016-05-16T07:50:19Z</time></trkpt><trkpt lat="43.0425085220" lon="0.1815637574"><ele>816.78</ele><time>2016-05-16T07:50:30Z</time></trkpt><trkpt lat="43.0424014013" lon="0.1816130430"><ele>819.18</ele><time>2016-05-16T07:50:46Z</time></trkpt><trkpt lat="43.0423196778" lon="0.1816310640"><ele>821.10</ele><time>2016-05-16T07:50:59Z</time></trkpt><trkpt lat="43.0422982201" lon="0.1816414576"><ele>823.51</ele><time>2016-05-16T07:51:09Z</time></trkpt><trkpt lat="43.0422164965" lon="0.1816853788"><ele>825.91</ele><time>2016-05-16T07:51:22Z</time></trkpt><trkpt lat="43.0421347730" lon="0.1817219239"><ele>826.87</ele><time>2016-05-16T07:51:33Z</time></trkpt><trkpt lat="43.0420901813" lon="0.1818099339"><ele>829.76</ele><time>2016-05-16T07:51:43Z</time></trkpt><trkpt lat="43.0420876667" lon="0.1818171423"><ele>830.24</ele><time>2016-05-16T07:51:44Z</time></trkpt><trkpt lat="43.0420906842" lon="0.1818829402"><ele>832.16</ele><time>2016-05-16T07:51:55Z</time></trkpt><trkpt lat="43.0420741718" lon="0.1819923241"><ele>832.64</ele><time>2016-05-16T07:52:06Z</time></trkpt><trkpt lat="43.0420617666" lon="0.1820717007"><ele>833.12</ele><time>2016-05-16T07:52:16Z</time></trkpt><trkpt lat="43.0420822185" lon="0.1820526738"><ele>834.08</ele><time>2016-05-16T07:52:36Z</time></trkpt><trkpt lat="43.0420815479" lon="0.1820550207"><ele>833.60</ele><time>2016-05-16T07:53:00Z</time></trkpt><trkpt lat="43.0420845654" lon="0.1820523385"><ele>834.08</ele><time>2016-05-16T07:53:22Z</time></trkpt><trkpt lat="43.0420935340" lon="0.1820540987"><ele>834.08</ele><time>2016-05-16T07:53:43Z</time></trkpt><trkpt lat="43.0420680530" lon="0.1820630673"><ele>833.60</ele><time>2016-05-16T07:53:55Z</time></trkpt><trkpt lat="43.0420524627" lon="0.1820592117"><ele>833.60</ele><time>2016-05-16T07:54:15Z</time></trkpt><trkpt lat="43.0420495290" lon="0.1820606366"><ele>834.08</ele><time>2016-05-16T07:54:32Z</time></trkpt><trkpt lat="43.0420436617" lon="0.1820464712"><ele>834.08</ele><time>2016-05-16T07:54:50Z</time></trkpt><trkpt lat="43.0420386326" lon="0.1820582896"><ele>834.08</ele><time>2016-05-16T07:55:05Z</time></trkpt><trkpt lat="43.0420341063" lon="0.1820660848"><ele>834.08</ele><time>2016-05-16T07:55:27Z</time></trkpt><trkpt lat="43.0420636106" lon="0.1821335591"><ele>835.52</ele><time>2016-05-16T07:55:37Z</time></trkpt><trkpt lat="43.0421807058" lon="0.1822817512"><ele>838.41</ele><time>2016-05-16T07:55:50Z</time></trkpt><trkpt lat="43.0421936978" lon="0.1822987664"><ele>838.41</ele><time>2016-05-16T07:55:51Z</time></trkpt><trkpt lat="43.0422625132" lon="0.1823975891"><ele>840.33</ele><time>2016-05-16T07:55:58Z</time></trkpt><trkpt lat="43.0422967952" lon="0.1824282669"><ele>841.77</ele><time>2016-05-16T07:56:02Z</time></trkpt><trkpt lat="43.0423226953" lon="0.1824497245"><ele>842.73</ele><time>2016-05-16T07:56:05Z</time></trkpt><trkpt lat="43.0424706358" lon="0.1825053804"><ele>845.62</ele><time>2016-05-16T07:56:17Z</time></trkpt><trkpt lat="43.0424884055" lon="0.1825191267"><ele>846.10</ele><time>2016-05-16T07:56:19Z</time></trkpt><trkpt lat="43.0424983799" lon="0.1825270895"><ele>846.10</ele><time>2016-05-16T07:56:20Z</time></trkpt><trkpt lat="43.0425522756" lon="0.1825863495"><ele>847.54</ele><time>2016-05-16T07:56:25Z</time></trkpt><trkpt lat="43.0426671915" lon="0.1826352999"><ele>850.42</ele><time>2016-05-16T07:56:38Z</time></trkpt><trkpt lat="43.0427194946" lon="0.1826833282"><ele>851.87</ele><time>2016-05-16T07:56:43Z</time></trkpt><trkpt lat="43.0428181496" lon="0.1828643773"><ele>854.75</ele><time>2016-05-16T07:56:56Z</time></trkpt><trkpt lat="43.0428822711" lon="0.1830149163"><ele>857.15</ele><time>2016-05-16T07:57:06Z</time></trkpt><trkpt lat="43.0429071654" lon="0.1831627730"><ele>857.63</ele><time>2016-05-16T07:57:14Z</time></trkpt><trkpt lat="43.0429203250" lon="0.1831948757"><ele>858.11</ele><time>2016-05-16T07:57:16Z</time></trkpt><trkpt lat="43.0429561995" lon="0.1834234502"><ele>860.04</ele><time>2016-05-16T07:57:31Z</time></trkpt><trkpt lat="43.0429955106" lon="0.1836442295"><ele>862.44</ele><time>2016-05-16T07:57:46Z</time></trkpt><trkpt lat="43.0429999530" lon="0.1837253664"><ele>863.40</ele><time>2016-05-16T07:57:53Z</time></trkpt><trkpt lat="43.0429997016" lon="0.1837736461"><ele>864.36</ele><time>2016-05-16T07:57:56Z</time></trkpt><trkpt lat="43.0430061556" lon="0.1838707086"><ele>865.32</ele><time>2016-05-16T07:58:02Z</time></trkpt><trkpt lat="43.0430165492" lon="0.1840874646"><ele>867.25</ele><time>2016-05-16T07:58:16Z</time></trkpt><trkpt lat="43.0430540163" lon="0.1843048073"><ele>870.13</ele><time>2016-05-16T07:58:31Z</time></trkpt><trkpt lat="43.0430996139" lon="0.1845090743"><ele>872.53</ele><time>2016-05-16T07:58:46Z</time></trkpt><trkpt lat="43.0431037210" lon="0.1847132575"><ele>875.90</ele><time>2016-05-16T07:58:58Z</time></trkpt><trkpt lat="43.0430907290" lon="0.1849731803"><ele>879.26</ele><time>2016-05-16T07:59:12Z</time></trkpt><trkpt lat="43.0430772342" lon="0.1851947978"><ele>880.22</ele><time>2016-05-16T07:59:26Z</time></trkpt><trkpt lat="43.0430313013" lon="0.1854638569"><ele>883.11</ele><time>2016-05-16T07:59:43Z</time></trkpt><trkpt lat="43.0430020485" lon="0.1856681239"><ele>885.03</ele><time>2016-05-16T07:59:57Z</time></trkpt><trkpt lat="43.0429840274" lon="0.1858832035"><ele>887.43</ele><time>2016-05-16T08:00:12Z</time></trkpt><trkpt lat="43.0429596361" lon="0.1861067489"><ele>890.80</ele><time>2016-05-16T08:00:28Z</time></trkpt><trkpt lat="43.0429711193" lon="0.1863034721"><ele>892.24</ele><time>2016-05-16T08:00:42Z</time></trkpt><trkpt lat="43.0429951753" lon="0.1864782348"><ele>894.16</ele><time>2016-05-16T08:00:55Z</time></trkpt><trkpt lat="43.0430364143" lon="0.1866195537"><ele>895.61</ele><time>2016-05-16T08:01:05Z</time></trkpt><trkpt lat="43.0430445448" lon="0.1866732817"><ele>896.09</ele><time>2016-05-16T08:01:08Z</time></trkpt><trkpt lat="43.0430902261" lon="0.1869210508"><ele>899.45</ele><time>2016-05-16T08:01:24Z</time></trkpt><trkpt lat="43.0431157909" lon="0.1871124934"><ele>900.41</ele><time>2016-05-16T08:01:36Z</time></trkpt><trkpt lat="43.0431607179" lon="0.1874145772"><ele>902.82</ele><time>2016-05-16T08:01:54Z</time></trkpt><trkpt lat="43.0431822594" lon="0.1876324229"><ele>903.78</ele><time>2016-05-16T08:02:07Z</time></trkpt><trkpt lat="43.0431905575" lon="0.1877245400"><ele>905.22</ele><time>2016-05-16T08:02:13Z</time></trkpt><trkpt lat="43.0432034656" lon="0.1877620909"><ele>905.22</ele><time>2016-05-16T08:02:16Z</time></trkpt><trkpt lat="43.0432272702" lon="0.1878293138"><ele>906.18</ele><time>2016-05-16T08:02:21Z</time></trkpt><trkpt lat="43.0432453752" lon="0.1880319044"><ele>907.62</ele><time>2016-05-16T08:02:35Z</time></trkpt><trkpt lat="43.0432776455" lon="0.1882688608"><ele>910.99</ele><time>2016-05-16T08:02:49Z</time></trkpt><trkpt lat="43.0432846863" lon="0.1883727964"><ele>912.43</ele><time>2016-05-16T08:02:55Z</time></trkpt><trkpt lat="43.0433048028" lon="0.1884463057"><ele>912.91</ele><time>2016-05-16T08:03:01Z</time></trkpt><trkpt lat="43.0433443654" lon="0.1885025483"><ele>914.35</ele><time>2016-05-16T08:03:07Z</time></trkpt><trkpt lat="43.0434187967" lon="0.1886162907"><ele>915.31</ele><time>2016-05-16T08:03:18Z</time></trkpt><trkpt lat="43.0434416793" lon="0.1886586193"><ele>916.27</ele><time>2016-05-16T08:03:22Z</time></trkpt><trkpt lat="43.0435103271" lon="0.1887553465"><ele>917.72</ele><time>2016-05-16T08:03:34Z</time></trkpt><trkpt lat="43.0435891170" lon="0.1888957433"><ele>920.60</ele><time>2016-05-16T08:03:47Z</time></trkpt><trkpt lat="43.0436537415" lon="0.1890848391"><ele>922.04</ele><time>2016-05-16T08:04:00Z</time></trkpt><trkpt lat="43.0437191203" lon="0.1892086398"><ele>923.48</ele><time>2016-05-16T08:04:11Z</time></trkpt><trkpt lat="43.0437577609" lon="0.1892832387"><ele>923.96</ele><time>2016-05-16T08:04:17Z</time></trkpt><trkpt lat="43.0437895283" lon="0.1893412415"><ele>924.45</ele><time>2016-05-16T08:04:21Z</time></trkpt><trkpt lat="43.0439062882" lon="0.1895750128"><ele>926.37</ele><time>2016-05-16T08:04:34Z</time></trkpt><trkpt lat="43.0439546518" lon="0.1896625198"><ele>926.85</ele><time>2016-05-16T08:04:39Z</time></trkpt><trkpt lat="43.0440376326" lon="0.1898941118"><ele>928.29</ele><time>2016-05-16T08:04:51Z</time></trkpt><trkpt lat="43.0439910293" lon="0.1902088523"><ele>930.21</ele><time>2016-05-16T08:05:05Z</time></trkpt><trkpt lat="43.0439423304" lon="0.1903618220"><ele>931.65</ele><time>2016-05-16T08:05:13Z</time></trkpt><trkpt lat="43.0439324398" lon="0.1903983671"><ele>932.14</ele><time>2016-05-16T08:05:15Z</time></trkpt><trkpt lat="43.0439011753" lon="0.1905133668"><ele>932.62</ele><time>2016-05-16T08:05:21Z</time></trkpt><trkpt lat="43.0437335372" lon="0.1908079907"><ele>934.54</ele><time>2016-05-16T08:05:40Z</time></trkpt><trkpt lat="43.0436102394" lon="0.1910619624"><ele>936.94</ele><time>2016-05-16T08:05:57Z</time></trkpt><trkpt lat="43.0434878636" lon="0.1913190354"><ele>938.86</ele><time>2016-05-16T08:06:13Z</time></trkpt><trkpt lat="43.0434602033" lon="0.1913889404"><ele>939.35</ele><time>2016-05-16T08:06:18Z</time></trkpt><trkpt lat="43.0434297770" lon="0.1914443448"><ele>940.31</ele><time>2016-05-16T08:06:22Z</time></trkpt><trkpt lat="43.0433208961" lon="0.1916349493"><ele>943.19</ele><time>2016-05-16T08:06:37Z</time></trkpt><trkpt lat="43.0432346463" lon="0.1918434910"><ele>945.59</ele><time>2016-05-16T08:06:53Z</time></trkpt><trkpt lat="43.0431465525" lon="0.1920375321"><ele>948.00</ele><time>2016-05-16T08:07:09Z</time></trkpt><trkpt lat="43.0431336444" lon="0.1920713112"><ele>948.48</ele><time>2016-05-16T08:07:12Z</time></trkpt><trkpt lat="43.0431149527" lon="0.1922701299"><ele>950.88</ele><time>2016-05-16T08:07:27Z</time></trkpt><trkpt lat="43.0431338120" lon="0.1923550386"><ele>952.32</ele><time>2016-05-16T08:07:34Z</time></trkpt><trkpt lat="43.0431372486" lon="0.1923809387"><ele>952.80</ele><time>2016-05-16T08:07:36Z</time></trkpt><trkpt lat="43.0431389250" lon="0.1923917513"><ele>952.80</ele><time>2016-05-16T08:07:37Z</time></trkpt><trkpt lat="43.0431105103" lon="0.1924764086"><ele>954.25</ele><time>2016-05-16T08:07:44Z</time></trkpt><trkpt lat="43.0429043155" lon="0.1925680228"><ele>955.69</ele><time>2016-05-16T08:08:02Z</time></trkpt><trkpt lat="43.0427245237" lon="0.1926863752"><ele>956.65</ele><time>2016-05-16T08:08:17Z</time></trkpt><trkpt lat="43.0426858831" lon="0.1927151252"><ele>957.13</ele><time>2016-05-16T08:08:28Z</time></trkpt><trkpt lat="43.0426771659" lon="0.1927198190"><ele>956.65</ele><time>2016-05-16T08:08:48Z</time></trkpt><trkpt lat="43.0426722206" lon="0.1927308831"><ele>956.65</ele><time>2016-05-16T08:09:13Z</time></trkpt><trkpt lat="43.0426744837" lon="0.1927231718"><ele>957.13</ele><time>2016-05-16T08:09:24Z</time></trkpt><trkpt lat="43.0426729750" lon="0.1927283686"><ele>956.17</ele><time>2016-05-16T08:09:27Z</time></trkpt><trkpt lat="43.0424641818" lon="0.1929309592"><ele>960.01</ele><time>2016-05-16T08:09:43Z</time></trkpt><trkpt lat="43.0423661973" lon="0.1932098251"><ele>963.38</ele><time>2016-05-16T08:09:59Z</time></trkpt><trkpt lat="43.0423628446" lon="0.1933939755"><ele>965.78</ele><time>2016-05-16T08:10:10Z</time></trkpt><trkpt lat="43.0423337594" lon="0.1936100610"><ele>969.15</ele><time>2016-05-16T08:10:24Z</time></trkpt><trkpt lat="43.0423265509" lon="0.1937004179"><ele>970.11</ele><time>2016-05-16T08:10:29Z</time></trkpt><trkpt lat="43.0423800275" lon="0.1939204428"><ele>973.47</ele><time>2016-05-16T08:10:44Z</time></trkpt><trkpt lat="43.0424651038" lon="0.1940776035"><ele>974.91</ele><time>2016-05-16T08:10:59Z</time></trkpt><trkpt lat="43.0424580630" lon="0.1940680481"><ele>974.43</ele><time>2016-05-16T08:11:15Z</time></trkpt><trkpt lat="43.0424644332" lon="0.1940743346"><ele>973.95</ele><time>2016-05-16T08:11:42Z</time></trkpt><trkpt lat="43.0424647685" lon="0.1940826327"><ele>973.95</ele><time>2016-05-16T08:12:09Z</time></trkpt><trkpt lat="43.0424632598" lon="0.1940864045"><ele>973.95</ele><time>2016-05-16T08:12:25Z</time></trkpt><trkpt lat="43.0424625054" lon="0.1940891705"><ele>973.95</ele><time>2016-05-16T08:12:49Z</time></trkpt><trkpt lat="43.0424673669" lon="0.1940963790"><ele>973.47</ele><time>2016-05-16T08:12:55Z</time></trkpt><trkpt lat="43.0427129567" lon="0.1943469979"><ele>972.99</ele><time>2016-05-16T08:13:07Z</time></trkpt><trkpt lat="43.0429077521" lon="0.1948245987"><ele>972.51</ele><time>2016-05-16T08:13:19Z</time></trkpt><trkpt lat="43.0430626497" lon="0.1952996012"><ele>972.51</ele><time>2016-05-16T08:13:34Z</time></trkpt><trkpt lat="43.0430762284" lon="0.1957469434"><ele>973.95</ele><time>2016-05-16T08:13:46Z</time></trkpt><trkpt lat="43.0430062395" lon="0.1962654479"><ele>973.95</ele><time>2016-05-16T08:14:00Z</time></trkpt><trkpt lat="43.0429285392" lon="0.1968111936"><ele>970.59</ele><time>2016-05-16T08:14:15Z</time></trkpt><trkpt lat="43.0429965165" lon="0.1970074140"><ele>969.63</ele><time>2016-05-16T08:14:21Z</time></trkpt><trkpt lat="43.0430016294" lon="0.1970527600"><ele>969.15</ele><time>2016-05-16T08:14:22Z</time></trkpt><trkpt lat="43.0430035572" lon="0.1971059013"><ele>969.15</ele><time>2016-05-16T08:14:23Z</time></trkpt><trkpt lat="43.0430027191" lon="0.1971606351"><ele>969.15</ele><time>2016-05-16T08:14:24Z</time></trkpt><trkpt lat="43.0429959297" lon="0.1972037181"><ele>968.18</ele><time>2016-05-16T08:14:25Z</time></trkpt><trkpt lat="43.0429873802" lon="0.1972396765"><ele>968.18</ele><time>2016-05-16T08:14:26Z</time></trkpt><trkpt lat="43.0429818481" lon="0.1972660795"><ele>967.70</ele><time>2016-05-16T08:14:27Z</time></trkpt><trkpt lat="43.0429820158" lon="0.1973374933"><ele>967.70</ele><time>2016-05-16T08:14:31Z</time></trkpt><trkpt lat="43.0429900624" lon="0.1973571908"><ele>967.22</ele><time>2016-05-16T08:14:32Z</time></trkpt><trkpt lat="43.0429982767" lon="0.1973803248"><ele>967.70</ele><time>2016-05-16T08:14:33Z</time></trkpt><trkpt lat="43.0430074967" lon="0.1974118408"><ele>966.74</ele><time>2016-05-16T08:14:34Z</time></trkpt><trkpt lat="43.0430130288" lon="0.1974509005"><ele>966.26</ele><time>2016-05-16T08:14:35Z</time></trkpt><trkpt lat="43.0430189800" lon="0.1974968333"><ele>966.26</ele><time>2016-05-16T08:14:36Z</time></trkpt><trkpt lat="43.0430479813" lon="0.1976708416"><ele>964.34</ele><time>2016-05-16T08:14:42Z</time></trkpt><trkpt lat="43.0430468079" lon="0.1976866834"><ele>963.86</ele><time>2016-05-16T08:14:43Z</time></trkpt><trkpt lat="43.0430486519" lon="0.1977068000"><ele>963.86</ele><time>2016-05-16T08:14:44Z</time></trkpt><trkpt lat="43.0430525914" lon="0.1977363043"><ele>962.90</ele><time>2016-05-16T08:14:45Z</time></trkpt><trkpt lat="43.0430546030" lon="0.1977720950"><ele>962.90</ele><time>2016-05-16T08:14:46Z</time></trkpt><trkpt lat="43.0430553574" lon="0.1978086401"><ele>962.42</ele><time>2016-05-16T08:14:47Z</time></trkpt><trkpt lat="43.0430522561" lon="0.1978454366"><ele>962.42</ele><time>2016-05-16T08:14:48Z</time></trkpt><trkpt lat="43.0430446286" lon="0.1978839096"><ele>961.94</ele><time>2016-05-16T08:14:49Z</time></trkpt><trkpt lat="43.0430353247" lon="0.1979218796"><ele>962.42</ele><time>2016-05-16T08:14:50Z</time></trkpt><trkpt lat="43.0429715384" lon="0.1984917652"><ele>960.49</ele><time>2016-05-16T08:15:02Z</time></trkpt><trkpt lat="43.0429007113" lon="0.1990951784"><ele>959.53</ele><time>2016-05-16T08:15:12Z</time></trkpt><trkpt lat="43.0428825226" lon="0.1991623174"><ele>959.05</ele><time>2016-05-16T08:15:13Z</time></trkpt><trkpt lat="43.0428608134" lon="0.1992275286"><ele>958.57</ele><time>2016-05-16T08:15:14Z</time></trkpt><trkpt lat="43.0428336561" lon="0.1992909797"><ele>958.57</ele><time>2016-05-16T08:15:15Z</time></trkpt><trkpt lat="43.0428042356" lon="0.1993523352"><ele>958.57</ele><time>2016-05-16T08:15:16Z</time></trkpt><trkpt lat="43.0427701212" lon="0.1994145289"><ele>957.61</ele><time>2016-05-16T08:15:17Z</time></trkpt><trkpt lat="43.0427292176" lon="0.1994732022"><ele>958.09</ele><time>2016-05-16T08:15:18Z</time></trkpt><trkpt lat="43.0426848773" lon="0.1995257568"><ele>958.09</ele><time>2016-05-16T08:15:19Z</time></trkpt><trkpt lat="43.0423793569" lon="0.1998885255"><ele>955.69</ele><time>2016-05-16T08:15:26Z</time></trkpt><trkpt lat="43.0423424765" lon="0.1999432594"><ele>955.69</ele><time>2016-05-16T08:15:27Z</time></trkpt><trkpt lat="43.0421933625" lon="0.2001498733"><ele>954.73</ele><time>2016-05-16T08:15:31Z</time></trkpt><trkpt lat="43.0420147441" lon="0.2004805394"><ele>953.28</ele><time>2016-05-16T08:15:36Z</time></trkpt><trkpt lat="43.0419894308" lon="0.2005615085"><ele>953.28</ele><time>2016-05-16T08:15:37Z</time></trkpt><trkpt lat="43.0419644527" lon="0.2006406337"><ele>952.80</ele><time>2016-05-16T08:15:38Z</time></trkpt><trkpt lat="43.0419380497" lon="0.2007221058"><ele>952.80</ele><time>2016-05-16T08:15:39Z</time></trkpt><trkpt lat="43.0419150833" lon="0.2008096967"><ele>952.80</ele><time>2016-05-16T08:15:40Z</time></trkpt><trkpt lat="43.0416889396" lon="0.2016050555"><ele>949.44</ele><time>2016-05-16T08:15:49Z</time></trkpt><trkpt lat="43.0416529812" lon="0.2016712725"><ele>948.96</ele><time>2016-05-16T08:15:50Z</time></trkpt><trkpt lat="43.0416158494" lon="0.2017257549"><ele>948.48</ele><time>2016-05-16T08:15:51Z</time></trkpt><trkpt lat="43.0414875224" lon="0.2018657327"><ele>947.52</ele><time>2016-05-16T08:15:54Z</time></trkpt><trkpt lat="43.0414327048" lon="0.2019071393"><ele>946.56</ele><time>2016-05-16T08:15:55Z</time></trkpt><trkpt lat="43.0413856823" lon="0.2019661479"><ele>945.59</ele><time>2016-05-16T08:15:56Z</time></trkpt><trkpt lat="43.0413483828" lon="0.2020453569"><ele>945.11</ele><time>2016-05-16T08:15:57Z</time></trkpt><trkpt lat="43.0413240753" lon="0.2021341212"><ele>944.63</ele><time>2016-05-16T08:15:58Z</time></trkpt><trkpt lat="43.0413146876" lon="0.2022165153"><ele>944.15</ele><time>2016-05-16T08:15:59Z</time></trkpt><trkpt lat="43.0413289368" lon="0.2022849955"><ele>944.15</ele><time>2016-05-16T08:16:00Z</time></trkpt><trkpt lat="43.0413560104" lon="0.2023538947"><ele>944.15</ele><time>2016-05-16T08:16:01Z</time></trkpt><trkpt lat="43.0413723551" lon="0.2024215367"><ele>943.67</ele><time>2016-05-16T08:16:02Z</time></trkpt><trkpt lat="43.0415948108" lon="0.2029389516"><ele>941.75</ele><time>2016-05-16T08:16:09Z</time></trkpt><trkpt lat="43.0417054519" lon="0.2032843698"><ele>940.79</ele><time>2016-05-16T08:16:13Z</time></trkpt><trkpt lat="43.0417951383" lon="0.2039374877"><ele>938.38</ele><time>2016-05-16T08:16:20Z</time></trkpt><trkpt lat="43.0417921208" lon="0.2040378191"><ele>938.86</ele><time>2016-05-16T08:16:21Z</time></trkpt><trkpt lat="43.0417795479" lon="0.2041398268"><ele>938.38</ele><time>2016-05-16T08:16:22Z</time></trkpt><trkpt lat="43.0417582579" lon="0.2042408288"><ele>937.42</ele><time>2016-05-16T08:16:23Z</time></trkpt><trkpt lat="43.0417301785" lon="0.2043396514"><ele>937.42</ele><time>2016-05-16T08:16:24Z</time></trkpt><trkpt lat="43.0416701641" lon="0.2045314293"><ele>936.46</ele><time>2016-05-16T08:16:26Z</time></trkpt><trkpt lat="43.0416323617" lon="0.2046173438"><ele>936.46</ele><time>2016-05-16T08:16:27Z</time></trkpt><trkpt lat="43.0412702635" lon="0.2052695397"><ele>934.06</ele><time>2016-05-16T08:16:35Z</time></trkpt><trkpt lat="43.0411623046" lon="0.2055313904"><ele>932.62</ele><time>2016-05-16T08:16:38Z</time></trkpt><trkpt lat="43.0411367398" lon="0.2056292910"><ele>932.62</ele><time>2016-05-16T08:16:39Z</time></trkpt><trkpt lat="43.0411318783" lon="0.2057257667"><ele>932.62</ele><time>2016-05-16T08:16:40Z</time></trkpt><trkpt lat="43.0411369912" lon="0.2058198117"><ele>932.62</ele><time>2016-05-16T08:16:41Z</time></trkpt><trkpt lat="43.0411460437" lon="0.2059092466"><ele>933.10</ele><time>2016-05-16T08:16:42Z</time></trkpt><trkpt lat="43.0411675014" lon="0.2059939876"><ele>932.14</ele><time>2016-05-16T08:16:43Z</time></trkpt><trkpt lat="43.0411959160" lon="0.2060704306"><ele>932.14</ele><time>2016-05-16T08:16:44Z</time></trkpt><trkpt lat="43.0412255879" lon="0.2061466221"><ele>931.65</ele><time>2016-05-16T08:16:45Z</time></trkpt><trkpt lat="43.0413882807" lon="0.2065729257"><ele>929.25</ele><time>2016-05-16T08:16:50Z</time></trkpt><trkpt lat="43.0415658094" lon="0.2070985548"><ele>927.33</ele><time>2016-05-16T08:16:56Z</time></trkpt><trkpt lat="43.0416474491" lon="0.2074547857"><ele>925.41</ele><time>2016-05-16T08:17:00Z</time></trkpt><trkpt lat="43.0416517239" lon="0.2075391077"><ele>925.41</ele><time>2016-05-16T08:17:01Z</time></trkpt><trkpt lat="43.0416519754" lon="0.2076236811"><ele>925.41</ele><time>2016-05-16T08:17:02Z</time></trkpt><trkpt lat="43.0416474491" lon="0.2077090926"><ele>925.41</ele><time>2016-05-16T08:17:03Z</time></trkpt><trkpt lat="43.0416352954" lon="0.2077983599"><ele>924.93</ele><time>2016-05-16T08:17:04Z</time></trkpt><trkpt lat="43.0416197050" lon="0.2078912314"><ele>924.45</ele><time>2016-05-16T08:17:05Z</time></trkpt><trkpt lat="43.0415189546" lon="0.2082446963"><ele>922.04</ele><time>2016-05-16T08:17:09Z</time></trkpt><trkpt lat="43.0414787214" lon="0.2083225641"><ele>921.56</ele><time>2016-05-16T08:17:10Z</time></trkpt><trkpt lat="43.0414326210" lon="0.2083885297"><ele>921.56</ele><time>2016-05-16T08:17:11Z</time></trkpt><trkpt lat="43.0413794797" lon="0.2084323671"><ele>921.08</ele><time>2016-05-16T08:17:12Z</time></trkpt><trkpt lat="43.0413222313" lon="0.2084504720"><ele>921.08</ele><time>2016-05-16T08:17:13Z</time></trkpt><trkpt lat="43.0412585288" lon="0.2084466163"><ele>921.08</ele><time>2016-05-16T08:17:14Z</time></trkpt><trkpt lat="43.0411887076" lon="0.2084349655"><ele>920.60</ele><time>2016-05-16T08:17:15Z</time></trkpt><trkpt lat="43.0409767292" lon="0.2084247395"><ele>919.64</ele><time>2016-05-16T08:17:18Z</time></trkpt><trkpt lat="43.0408445466" lon="0.2084463648"><ele>918.20</ele><time>2016-05-16T08:17:20Z</time></trkpt><trkpt lat="43.0406459793" lon="0.2084993385"><ele>918.20</ele><time>2016-05-16T08:17:23Z</time></trkpt><trkpt lat="43.0405905750" lon="0.2085341234"><ele>918.68</ele><time>2016-05-16T08:17:24Z</time></trkpt><trkpt lat="43.0405418761" lon="0.2085865941"><ele>918.68</ele><time>2016-05-16T08:17:25Z</time></trkpt><trkpt lat="43.0405039899" lon="0.2086537331"><ele>918.68</ele><time>2016-05-16T08:17:26Z</time></trkpt><trkpt lat="43.0404757429" lon="0.2087266557"><ele>918.20</ele><time>2016-05-16T08:17:27Z</time></trkpt><trkpt lat="43.0404550396" lon="0.2088041883"><ele>918.68</ele><time>2016-05-16T08:17:28Z</time></trkpt><trkpt lat="43.0404397007" lon="0.2088803798"><ele>918.68</ele><time>2016-05-16T08:17:29Z</time></trkpt><trkpt lat="43.0404384434" lon="0.2089469321"><ele>918.68</ele><time>2016-05-16T08:17:30Z</time></trkpt><trkpt lat="43.0404373538" lon="0.2090046834"><ele>919.16</ele><time>2016-05-16T08:17:31Z</time></trkpt><trkpt lat="43.0404232722" lon="0.2090665419"><ele>919.16</ele><time>2016-05-16T08:17:32Z</time></trkpt><trkpt lat="43.0403941032" lon="0.2091342676"><ele>918.20</ele><time>2016-05-16T08:17:33Z</time></trkpt><trkpt lat="43.0403603241" lon="0.2092029992"><ele>918.20</ele><time>2016-05-16T08:17:34Z</time></trkpt><trkpt lat="43.0403262097" lon="0.2092672884"><ele>918.20</ele><time>2016-05-16T08:17:35Z</time></trkpt><trkpt lat="43.0401398800" lon="0.2096414566"><ele>917.72</ele><time>2016-05-16T08:17:41Z</time></trkpt><trkpt lat="43.0400372855" lon="0.2099672612"><ele>918.68</ele><time>2016-05-16T08:17:46Z</time></trkpt><trkpt lat="43.0399811268" lon="0.2101304568"><ele>919.64</ele><time>2016-05-16T08:17:49Z</time></trkpt><trkpt lat="43.0398367066" lon="0.2106146794"><ele>922.04</ele><time>2016-05-16T08:18:00Z</time></trkpt><trkpt lat="43.0396828149" lon="0.2110156696"><ele>923.48</ele><time>2016-05-16T08:18:13Z</time></trkpt><trkpt lat="43.0395205412" lon="0.2114188392"><ele>925.41</ele><time>2016-05-16T08:18:27Z</time></trkpt><trkpt lat="43.0393872689" lon="0.2117331605"><ele>927.33</ele><time>2016-05-16T08:18:39Z</time></trkpt><trkpt lat="43.0392443575" lon="0.2120788302"><ele>930.21</ele><time>2016-05-16T08:18:53Z</time></trkpt><trkpt lat="43.0391185451" lon="0.2123544272"><ele>932.14</ele><time>2016-05-16T08:19:04Z</time></trkpt><trkpt lat="43.0390412640" lon="0.2124652360"><ele>933.10</ele><time>2016-05-16T08:19:10Z</time></trkpt><trkpt lat="43.0390289426" lon="0.2124840952"><ele>933.10</ele><time>2016-05-16T08:19:11Z</time></trkpt><trkpt lat="43.0390145257" lon="0.2125031222"><ele>934.06</ele><time>2016-05-16T08:19:12Z</time></trkpt><trkpt lat="43.0390020367" lon="0.2125210594"><ele>933.58</ele><time>2016-05-16T08:19:13Z</time></trkpt><trkpt lat="43.0389904696" lon="0.2125405055"><ele>933.58</ele><time>2016-05-16T08:19:14Z</time></trkpt><trkpt lat="43.0389778130" lon="0.2125606220"><ele>934.06</ele><time>2016-05-16T08:19:15Z</time></trkpt><trkpt lat="43.0389643181" lon="0.2125894558"><ele>934.06</ele><time>2016-05-16T08:19:16Z</time></trkpt><trkpt lat="43.0389518291" lon="0.2126174513"><ele>934.06</ele><time>2016-05-16T08:19:17Z</time></trkpt><trkpt lat="43.0389392562" lon="0.2126389928"><ele>934.54</ele><time>2016-05-16T08:19:18Z</time></trkpt><trkpt lat="43.0387805030" lon="0.2128605265"><ele>935.50</ele><time>2016-05-16T08:19:29Z</time></trkpt><trkpt lat="43.0386296287" lon="0.2130963933"><ele>936.94</ele><time>2016-05-16T08:19:40Z</time></trkpt><trkpt lat="43.0386301316" lon="0.2131310105"><ele>936.94</ele><time>2016-05-16T08:19:41Z</time></trkpt><trkpt lat="43.0386313051" lon="0.2131670527"><ele>936.94</ele><time>2016-05-16T08:19:42Z</time></trkpt><trkpt lat="43.0386121105" lon="0.2131908573"><ele>936.94</ele><time>2016-05-16T08:19:43Z</time></trkpt><trkpt lat="43.0385923292" lon="0.2132129017"><ele>936.46</ele><time>2016-05-16T08:19:44Z</time></trkpt><trkpt lat="43.0384593923" lon="0.2136201784"><ele>936.46</ele><time>2016-05-16T08:19:55Z</time></trkpt><trkpt lat="43.0384222604" lon="0.2138205059"><ele>935.50</ele><time>2016-05-16T08:19:59Z</time></trkpt><trkpt lat="43.0383857992" lon="0.2139953524"><ele>935.98</ele><time>2016-05-16T08:20:02Z</time></trkpt><trkpt lat="43.0383500922" lon="0.2141090110"><ele>935.98</ele><time>2016-05-16T08:20:04Z</time></trkpt><trkpt lat="43.0383300595" lon="0.2141665109"><ele>935.98</ele><time>2016-05-16T08:20:05Z</time></trkpt><trkpt lat="43.0383136310" lon="0.2142248489"><ele>936.46</ele><time>2016-05-16T08:20:06Z</time></trkpt><trkpt lat="43.0382975377" lon="0.2142820135"><ele>935.98</ele><time>2016-05-16T08:20:07Z</time></trkpt><trkpt lat="43.0382816959" lon="0.2143387590"><ele>935.98</ele><time>2016-05-16T08:20:08Z</time></trkpt><trkpt lat="43.0381678697" lon="0.2149569243"><ele>936.94</ele><time>2016-05-16T08:20:20Z</time></trkpt><trkpt lat="43.0381335877" lon="0.2151865885"><ele>936.94</ele><time>2016-05-16T08:20:24Z</time></trkpt><trkpt lat="43.0381101184" lon="0.2153129876"><ele>937.42</ele><time>2016-05-16T08:20:26Z</time></trkpt><trkpt lat="43.0378319230" lon="0.2160505950"><ele>938.38</ele><time>2016-05-16T08:20:41Z</time></trkpt><trkpt lat="43.0376712419" lon="0.2163578756"><ele>938.38</ele><time>2016-05-16T08:20:47Z</time></trkpt><trkpt lat="43.0376543105" lon="0.2164199855"><ele>938.38</ele><time>2016-05-16T08:20:48Z</time></trkpt><trkpt lat="43.0376392230" lon="0.2164824307"><ele>938.38</ele><time>2016-05-16T08:20:49Z</time></trkpt><trkpt lat="43.0376082938" lon="0.2166038845"><ele>938.86</ele><time>2016-05-16T08:20:51Z</time></trkpt><trkpt lat="43.0375188589" lon="0.2171115763"><ele>940.31</ele><time>2016-05-16T08:21:00Z</time></trkpt><trkpt lat="43.0375089683" lon="0.2171696629"><ele>940.31</ele><time>2016-05-16T08:21:01Z</time></trkpt><trkpt lat="43.0374971498" lon="0.2172252350"><ele>940.31</ele><time>2016-05-16T08:21:02Z</time></trkpt><trkpt lat="43.0374854151" lon="0.2172802202"><ele>940.79</ele><time>2016-05-16T08:21:03Z</time></trkpt><trkpt lat="43.0374752730" lon="0.2173354570"><ele>940.31</ele><time>2016-05-16T08:21:04Z</time></trkpt><trkpt lat="43.0374654662" lon="0.2173923701"><ele>940.31</ele><time>2016-05-16T08:21:05Z</time></trkpt><trkpt lat="43.0374570843" lon="0.2174469363"><ele>939.83</ele><time>2016-05-16T08:21:06Z</time></trkpt><trkpt lat="43.0374314357" lon="0.2176085394"><ele>940.31</ele><time>2016-05-16T08:21:09Z</time></trkpt><trkpt lat="43.0373040307" lon="0.2180726454"><ele>940.31</ele><time>2016-05-16T08:21:19Z</time></trkpt><trkpt lat="43.0371378176" lon="0.2182784211"><ele>942.71</ele><time>2016-05-16T08:21:30Z</time></trkpt><trkpt lat="43.0368611310" lon="0.2180472482"><ele>944.15</ele><time>2016-05-16T08:21:42Z</time></trkpt><trkpt lat="43.0365346558" lon="0.2179109585"><ele>945.59</ele><time>2016-05-16T08:21:54Z</time></trkpt><trkpt lat="43.0363013875" lon="0.2176712360"><ele>948.00</ele><time>2016-05-16T08:22:06Z</time></trkpt><trkpt lat="43.0360614136" lon="0.2174373809"><ele>950.88</ele><time>2016-05-16T08:22:19Z</time></trkpt><trkpt lat="43.0359645188" lon="0.2173840720"><ele>951.36</ele><time>2016-05-16T08:22:24Z</time></trkpt><trkpt lat="43.0359495990" lon="0.2173791267"><ele>951.36</ele><time>2016-05-16T08:22:25Z</time></trkpt><trkpt lat="43.0359359365" lon="0.2173667215"><ele>951.84</ele><time>2016-05-16T08:22:26Z</time></trkpt><trkpt lat="43.0359229445" lon="0.2173497900"><ele>952.32</ele><time>2016-05-16T08:22:27Z</time></trkpt><trkpt lat="43.0359071027" lon="0.2173357923"><ele>952.80</ele><time>2016-05-16T08:22:28Z</time></trkpt><trkpt lat="43.0358948652" lon="0.2173249796"><ele>952.80</ele><time>2016-05-16T08:22:29Z</time></trkpt><trkpt lat="43.0356510356" lon="0.2171983290"><ele>953.77</ele><time>2016-05-16T08:22:40Z</time></trkpt><trkpt lat="43.0354130734" lon="0.2171366382"><ele>955.69</ele><time>2016-05-16T08:22:51Z</time></trkpt><trkpt lat="43.0351751950" lon="0.2171825711"><ele>957.13</ele><time>2016-05-16T08:23:01Z</time></trkpt><trkpt lat="43.0351202097" lon="0.2172001731"><ele>957.13</ele><time>2016-05-16T08:23:02Z</time></trkpt><trkpt lat="43.0348347221" lon="0.2174168453"><ele>958.09</ele><time>2016-05-16T08:23:14Z</time></trkpt><trkpt lat="43.0346084945" lon="0.2176804561"><ele>960.01</ele><time>2016-05-16T08:23:26Z</time></trkpt><trkpt lat="43.0344192311" lon="0.2177300770"><ele>961.94</ele><time>2016-05-16T08:23:36Z</time></trkpt><trkpt lat="43.0342820194" lon="0.2176160831"><ele>963.86</ele><time>2016-05-16T08:23:49Z</time></trkpt><trkpt lat="43.0340314843" lon="0.2176193520"><ele>965.78</ele><time>2016-05-16T08:24:02Z</time></trkpt><trkpt lat="43.0337990541" lon="0.2177559771"><ele>967.70</ele><time>2016-05-16T08:24:12Z</time></trkpt><trkpt lat="43.0336421449" lon="0.2179358527"><ele>969.63</ele><time>2016-05-16T08:24:21Z</time></trkpt><trkpt lat="43.0334994011" lon="0.2179682907"><ele>970.59</ele><time>2016-05-16T08:24:31Z</time></trkpt><trkpt lat="43.0334551446" lon="0.2178197633"><ele>972.51</ele><time>2016-05-16T08:24:43Z</time></trkpt><trkpt lat="43.0334056914" lon="0.2177528758"><ele>972.99</ele><time>2016-05-16T08:24:48Z</time></trkpt><trkpt lat="43.0333801266" lon="0.2176971361"><ele>973.95</ele><time>2016-05-16T08:24:52Z</time></trkpt><trkpt lat="43.0332424119" lon="0.2173501253"><ele>975.88</ele><time>2016-05-16T08:25:09Z</time></trkpt><trkpt lat="43.0332832318" lon="0.2170709241"><ele>977.32</ele><time>2016-05-16T08:25:19Z</time></trkpt><trkpt lat="43.0333434138" lon="0.2167421021"><ele>977.80</ele><time>2016-05-16T08:25:30Z</time></trkpt><trkpt lat="43.0333649553" lon="0.2166457102"><ele>978.28</ele><time>2016-05-16T08:25:33Z</time></trkpt><trkpt lat="43.0333955493" lon="0.2165012062"><ele>979.24</ele><time>2016-05-16T08:25:38Z</time></trkpt><trkpt lat="43.0334298313" lon="0.2161497530"><ele>981.16</ele><time>2016-05-16T08:25:51Z</time></trkpt><trkpt lat="43.0332564097" lon="0.2159391996"><ele>982.60</ele><time>2016-05-16T08:26:02Z</time></trkpt><trkpt lat="43.0331160966" lon="0.2158283908"><ele>983.09</ele><time>2016-05-16T08:26:08Z</time></trkpt><trkpt lat="43.0330684874" lon="0.2157444041"><ele>984.05</ele><time>2016-05-16T08:26:12Z</time></trkpt><trkpt lat="43.0329800583" lon="0.2155888360"><ele>985.01</ele><time>2016-05-16T08:26:19Z</time></trkpt><trkpt lat="43.0328911263" lon="0.2154932823"><ele>985.97</ele><time>2016-05-16T08:26:24Z</time></trkpt><trkpt lat="43.0328038707" lon="0.2154408954"><ele>986.93</ele><time>2016-05-16T08:26:31Z</time></trkpt><trkpt lat="43.0326623842" lon="0.2154311724"><ele>987.89</ele><time>2016-05-16T08:26:38Z</time></trkpt><trkpt lat="43.0325473007" lon="0.2154570725"><ele>987.89</ele><time>2016-05-16T08:26:42Z</time></trkpt><trkpt lat="43.0323266052" lon="0.2156052645"><ele>990.30</ele><time>2016-05-16T08:26:56Z</time></trkpt><trkpt lat="43.0321435444" lon="0.2156161610"><ele>991.26</ele><time>2016-05-16T08:27:04Z</time></trkpt><trkpt lat="43.0320787523" lon="0.2155342698"><ele>991.74</ele><time>2016-05-16T08:27:09Z</time></trkpt><trkpt lat="43.0318591464" lon="0.2154113073"><ele>993.66</ele><time>2016-05-16T08:27:24Z</time></trkpt><trkpt lat="43.0317024048" lon="0.2153310087"><ele>995.10</ele><time>2016-05-16T08:27:33Z</time></trkpt><trkpt lat="43.0316520296" lon="0.2152678091"><ele>995.58</ele><time>2016-05-16T08:27:37Z</time></trkpt><trkpt lat="43.0316484254" lon="0.2151228022"><ele>996.06</ele><time>2016-05-16T08:27:43Z</time></trkpt><trkpt lat="43.0315849744" lon="0.2150679007"><ele>996.54</ele><time>2016-05-16T08:27:45Z</time></trkpt><trkpt lat="43.0315327551" lon="0.2148814034"><ele>997.02</ele><time>2016-05-16T08:27:52Z</time></trkpt><trkpt lat="43.0315198470" lon="0.2148128394"><ele>996.54</ele><time>2016-05-16T08:27:55Z</time></trkpt><trkpt lat="43.0311672203" lon="0.2145744581"><ele>997.51</ele><time>2016-05-16T08:28:08Z</time></trkpt><trkpt lat="43.0309245642" lon="0.2144519147"><ele>996.54</ele><time>2016-05-16T08:28:22Z</time></trkpt><trkpt lat="43.0308896117" lon="0.2144392580"><ele>996.06</ele><time>2016-05-16T08:28:39Z</time></trkpt><trkpt lat="43.0309119914" lon="0.2144035511"><ele>997.99</ele><time>2016-05-16T08:28:56Z</time></trkpt><trkpt lat="43.0309156794" lon="0.2144019585"><ele>995.58</ele><time>2016-05-16T08:28:59Z</time></trkpt><trkpt lat="43.0309129972" lon="0.2144032996"><ele>998.95</ele><time>2016-05-16T08:29:02Z</time></trkpt><trkpt lat="43.0309121590" lon="0.2144134417"><ele>995.58</ele><time>2016-05-16T08:29:12Z</time></trkpt><trkpt lat="43.0309109855" lon="0.2144176327"><ele>999.91</ele><time>2016-05-16T08:29:15Z</time></trkpt><trkpt lat="43.0309116561" lon="0.2144185547"><ele>997.02</ele><time>2016-05-16T08:29:20Z</time></trkpt><trkpt lat="43.0309116561" lon="0.2144191414"><ele>999.91</ele><time>2016-05-16T08:29:23Z</time></trkpt><trkpt lat="43.0309078842" lon="0.2144135255"><ele>996.54</ele><time>2016-05-16T08:29:31Z</time></trkpt><trkpt lat="43.0308967363" lon="0.2144158725"><ele>997.02</ele><time>2016-05-16T08:29:43Z</time></trkpt><trkpt lat="43.0308928806" lon="0.2144131064"><ele>1000.39</ele><time>2016-05-16T08:30:01Z</time></trkpt><trkpt lat="43.0308929645" lon="0.2144132741"><ele>995.10</ele><time>2016-05-16T08:30:02Z</time></trkpt><trkpt lat="43.0308938026" lon="0.2144135255"><ele>998.47</ele><time>2016-05-16T08:30:05Z</time></trkpt><trkpt lat="43.0308939703" lon="0.2144139446"><ele>992.22</ele><time>2016-05-16T08:30:08Z</time></trkpt><trkpt lat="43.0308943056" lon="0.2144139446"><ele>997.99</ele><time>2016-05-16T08:30:09Z</time></trkpt><trkpt lat="43.0308949761" lon="0.2144160401"><ele>994.62</ele><time>2016-05-16T08:30:15Z</time></trkpt><trkpt lat="43.0308946408" lon="0.2144160401"><ele>995.10</ele><time>2016-05-16T08:30:16Z</time></trkpt><trkpt lat="43.0308944732" lon="0.2144154534"><ele>997.99</ele><time>2016-05-16T08:30:18Z</time></trkpt><trkpt lat="43.0308941379" lon="0.2144150343"><ele>996.54</ele><time>2016-05-16T08:30:20Z</time></trkpt><trkpt lat="43.0308939703" lon="0.2144148666"><ele>1003.27</ele><time>2016-05-16T08:30:24Z</time></trkpt><trkpt lat="43.0308940541" lon="0.2144146990"><ele>997.51</ele><time>2016-05-16T08:30:25Z</time></trkpt><trkpt lat="43.0308960658" lon="0.2144073229"><ele>990.78</ele><time>2016-05-16T08:30:34Z</time></trkpt><trkpt lat="43.0308961496" lon="0.2144089993"><ele>997.51</ele><time>2016-05-16T08:30:35Z</time></trkpt><trkpt lat="43.0309031904" lon="0.2144126035"><ele>1002.79</ele><time>2016-05-16T08:30:38Z</time></trkpt><trkpt lat="43.0309039447" lon="0.2144141123"><ele>1003.27</ele><time>2016-05-16T08:30:39Z</time></trkpt><trkpt lat="43.0309034418" lon="0.2144146152"><ele>997.51</ele><time>2016-05-16T08:30:40Z</time></trkpt><trkpt lat="43.0309057049" lon="0.2144163754"><ele>992.22</ele><time>2016-05-16T08:30:45Z</time></trkpt><trkpt lat="43.0309048668" lon="0.2144144475"><ele>997.99</ele><time>2016-05-16T08:30:47Z</time></trkpt><trkpt lat="43.0309056211" lon="0.2144144475"><ele>997.51</ele><time>2016-05-16T08:30:48Z</time></trkpt><trkpt lat="43.0309072137" lon="0.2144141123"><ele>997.99</ele><time>2016-05-16T08:30:53Z</time></trkpt><trkpt lat="43.0309090577" lon="0.2143986057"><ele>997.51</ele><time>2016-05-16T08:31:12Z</time></trkpt><trkpt lat="43.0309101474" lon="0.2144338097"><ele>996.54</ele><time>2016-05-16T08:31:22Z</time></trkpt><trkpt lat="43.0308883544" lon="0.2144997753"><ele>996.06</ele><time>2016-05-16T08:31:26Z</time></trkpt><trkpt lat="43.0308667291" lon="0.2145209815"><ele>995.10</ele><time>2016-05-16T08:31:29Z</time></trkpt><trkpt lat="43.0308429245" lon="0.2145194728"><ele>994.14</ele><time>2016-05-16T08:31:31Z</time></trkpt><trkpt lat="43.0308022723" lon="0.2145417687"><ele>993.18</ele><time>2016-05-16T08:31:35Z</time></trkpt><trkpt lat="43.0307117477" lon="0.2146060579"><ele>992.22</ele><time>2016-05-16T08:31:47Z</time></trkpt><trkpt lat="43.0307035334" lon="0.2146049682"><ele>991.74</ele><time>2016-05-16T08:32:00Z</time></trkpt><trkpt lat="43.0307077244" lon="0.2146010287"><ele>991.74</ele><time>2016-05-16T08:32:02Z</time></trkpt><trkpt lat="43.0307299364" lon="0.2145453729"><ele>993.66</ele><time>2016-05-16T08:32:09Z</time></trkpt><trkpt lat="43.0307723489" lon="0.2145245858"><ele>994.14</ele><time>2016-05-16T08:32:14Z</time></trkpt><trkpt lat="43.0309098959" lon="0.2144650742"><ele>996.54</ele><time>2016-05-16T08:32:28Z</time></trkpt><trkpt lat="43.0309363827" lon="0.2144095860"><ele>996.54</ele><time>2016-05-16T08:32:38Z</time></trkpt><trkpt lat="43.0309356283" lon="0.2144070715"><ele>996.54</ele><time>2016-05-16T08:32:53Z</time></trkpt><trkpt lat="43.0309221335" lon="0.2144147828"><ele>996.54</ele><time>2016-05-16T08:33:12Z</time></trkpt><trkpt lat="43.0309245642" lon="0.2143840212"><ele>996.54</ele><time>2016-05-16T08:33:36Z</time></trkpt><trkpt lat="43.0309238937" lon="0.2143840212"><ele>996.54</ele><time>2016-05-16T08:33:56Z</time></trkpt><trkpt lat="43.0309189484" lon="0.2143865358"><ele>997.02</ele><time>2016-05-16T08:34:06Z</time></trkpt><trkpt lat="43.0307838321" lon="0.2143843565"><ele>997.02</ele><time>2016-05-16T08:34:15Z</time></trkpt><trkpt lat="43.0304923095" lon="0.2144916449"><ele>997.51</ele><time>2016-05-16T08:34:27Z</time></trkpt><trkpt lat="43.0304678343" lon="0.2145012841"><ele>997.51</ele><time>2016-05-16T08:34:28Z</time></trkpt><trkpt lat="43.0301415268" lon="0.2147872746"><ele>998.95</ele><time>2016-05-16T08:34:41Z</time></trkpt><trkpt lat="43.0299204960" lon="0.2150392346"><ele>999.91</ele><time>2016-05-16T08:34:52Z</time></trkpt><trkpt lat="43.0297467392" lon="0.2154293284"><ele>1000.39</ele><time>2016-05-16T08:35:04Z</time></trkpt><trkpt lat="43.0294786859" lon="0.2157339267"><ele>1000.39</ele><time>2016-05-16T08:35:16Z</time></trkpt><trkpt lat="43.0291366205" lon="0.2159626689"><ele>1000.87</ele><time>2016-05-16T08:35:28Z</time></trkpt><trkpt lat="43.0291033443" lon="0.2159859706"><ele>1000.87</ele><time>2016-05-16T08:35:29Z</time></trkpt><trkpt lat="43.0288362969" lon="0.2162194066"><ele>1002.31</ele><time>2016-05-16T08:35:39Z</time></trkpt><trkpt lat="43.0285872705" lon="0.2165272739"><ele>1002.79</ele><time>2016-05-16T08:35:50Z</time></trkpt><trkpt lat="43.0283244979" lon="0.2169224806"><ele>1003.27</ele><time>2016-05-16T08:36:01Z</time></trkpt><trkpt lat="43.0281623919" lon="0.2171739377"><ele>1004.23</ele><time>2016-05-16T08:36:08Z</time></trkpt><trkpt lat="43.0281315465" lon="0.2172061242"><ele>1003.75</ele><time>2016-05-16T08:36:09Z</time></trkpt><trkpt lat="43.0281053111" lon="0.2172414958"><ele>1004.23</ele><time>2016-05-16T08:36:10Z</time></trkpt><trkpt lat="43.0280847754" lon="0.2172787115"><ele>1003.75</ele><time>2016-05-16T08:36:11Z</time></trkpt><trkpt lat="43.0280646589" lon="0.2173134964"><ele>1003.75</ele><time>2016-05-16T08:36:12Z</time></trkpt><trkpt lat="43.0280418601" lon="0.2173475269"><ele>1003.75</ele><time>2016-05-16T08:36:13Z</time></trkpt><trkpt lat="43.0280223303" lon="0.2173828986"><ele>1004.72</ele><time>2016-05-16T08:36:14Z</time></trkpt><trkpt lat="43.0279454682" lon="0.2176134009"><ele>1004.23</ele><time>2016-05-16T08:36:20Z</time></trkpt><trkpt lat="43.0278936680" lon="0.2181488369"><ele>1006.16</ele><time>2016-05-16T08:36:34Z</time></trkpt><trkpt lat="43.0278132856" lon="0.2185935806"><ele>1007.60</ele><time>2016-05-16T08:36:47Z</time></trkpt><trkpt lat="43.0277540255" lon="0.2189752925"><ele>1010.48</ele><time>2016-05-16T08:36:59Z</time></trkpt><trkpt lat="43.0276776664" lon="0.2192689106"><ele>1012.41</ele><time>2016-05-16T08:37:09Z</time></trkpt><trkpt lat="43.0275764130" lon="0.2196214534"><ele>1013.37</ele><time>2016-05-16T08:37:21Z</time></trkpt><trkpt lat="43.0274803564" lon="0.2199245431"><ele>1016.25</ele><time>2016-05-16T08:37:32Z</time></trkpt><trkpt lat="43.0273791030" lon="0.2202545386"><ele>1018.17</ele><time>2016-05-16T08:37:44Z</time></trkpt><trkpt lat="43.0272630136" lon="0.2205918264"><ele>1020.10</ele><time>2016-05-16T08:37:56Z</time></trkpt><trkpt lat="43.0271264724" lon="0.2209944930"><ele>1022.50</ele><time>2016-05-16T08:38:10Z</time></trkpt><trkpt lat="43.0269953795" lon="0.2212160267"><ele>1023.94</ele><time>2016-05-16T08:38:21Z</time></trkpt><trkpt lat="43.0269723292" lon="0.2212581038"><ele>1023.94</ele><time>2016-05-16T08:38:23Z</time></trkpt><trkpt lat="43.0269157514" lon="0.2216014266"><ele>1026.34</ele><time>2016-05-16T08:38:35Z</time></trkpt><trkpt lat="43.0268105585" lon="0.2219717391"><ele>1028.75</ele><time>2016-05-16T08:38:48Z</time></trkpt><trkpt lat="43.0267010909" lon="0.2222848032"><ele>1030.67</ele><time>2016-05-16T08:39:00Z</time></trkpt><trkpt lat="43.0266242288" lon="0.2224167343"><ele>1032.11</ele><time>2016-05-16T08:39:06Z</time></trkpt><trkpt lat="43.0266099796" lon="0.2224421315"><ele>1032.11</ele><time>2016-05-16T08:39:07Z</time></trkpt><trkpt lat="43.0265997536" lon="0.2224665228"><ele>1032.59</ele><time>2016-05-16T08:39:08Z</time></trkpt><trkpt lat="43.0265867617" lon="0.2224890701"><ele>1032.59</ele><time>2016-05-16T08:39:09Z</time></trkpt><trkpt lat="43.0265692435" lon="0.2225148864"><ele>1032.59</ele><time>2016-05-16T08:39:10Z</time></trkpt><trkpt lat="43.0265537370" lon="0.2225423791"><ele>1033.07</ele><time>2016-05-16T08:39:11Z</time></trkpt><trkpt lat="43.0265370570" lon="0.2225707937"><ele>1033.07</ele><time>2016-05-16T08:39:12Z</time></trkpt><trkpt lat="43.0263648089" lon="0.2227858733"><ele>1034.04</ele><time>2016-05-16T08:39:21Z</time></trkpt><trkpt lat="43.0262555089" lon="0.2231382485"><ele>1035.96</ele><time>2016-05-16T08:39:33Z</time></trkpt><trkpt lat="43.0262320396" lon="0.2235079743"><ele>1037.40</ele><time>2016-05-16T08:39:45Z</time></trkpt><trkpt lat="43.0262570176" lon="0.2235716768"><ele>1037.88</ele><time>2016-05-16T08:39:47Z</time></trkpt><trkpt lat="43.0262579396" lon="0.2235997561"><ele>1038.36</ele><time>2016-05-16T08:39:48Z</time></trkpt><trkpt lat="43.0262501445" lon="0.2236243151"><ele>1037.88</ele><time>2016-05-16T08:39:49Z</time></trkpt><trkpt lat="43.0262508150" lon="0.2236549091"><ele>1038.36</ele><time>2016-05-16T08:39:50Z</time></trkpt><trkpt lat="43.0262478814" lon="0.2236813959"><ele>1038.36</ele><time>2016-05-16T08:39:51Z</time></trkpt><trkpt lat="43.0262491386" lon="0.2237075474"><ele>1038.36</ele><time>2016-05-16T08:39:52Z</time></trkpt><trkpt lat="43.0262515694" lon="0.2237352915"><ele>1038.84</ele><time>2016-05-16T08:39:53Z</time></trkpt><trkpt lat="43.0262473784" lon="0.2237599343"><ele>1038.84</ele><time>2016-05-16T08:39:54Z</time></trkpt><trkpt lat="43.0262456182" lon="0.2237851638"><ele>1039.32</ele><time>2016-05-16T08:39:55Z</time></trkpt><trkpt lat="43.0262407567" lon="0.2238086332"><ele>1039.32</ele><time>2016-05-16T08:39:56Z</time></trkpt><trkpt lat="43.0262322910" lon="0.2238311805"><ele>1039.32</ele><time>2016-05-16T08:39:57Z</time></trkpt><trkpt lat="43.0261576921" lon="0.2241144888"><ele>1041.25</ele><time>2016-05-16T08:40:09Z</time></trkpt><trkpt lat="43.0261498969" lon="0.2241330128"><ele>1041.73</ele><time>2016-05-16T08:40:10Z</time></trkpt><trkpt lat="43.0261340551" lon="0.2241514530"><ele>1041.73</ele><time>2016-05-16T08:40:11Z</time></trkpt><trkpt lat="43.0261225719" lon="0.2241758443"><ele>1041.73</ele><time>2016-05-16T08:40:12Z</time></trkpt><trkpt lat="43.0261062272" lon="0.2242551371"><ele>1043.17</ele><time>2016-05-16T08:40:15Z</time></trkpt><trkpt lat="43.0260858592" lon="0.2242764272"><ele>1043.17</ele><time>2016-05-16T08:40:16Z</time></trkpt><trkpt lat="43.0260025430" lon="0.2243503556"><ele>1043.17</ele><time>2016-05-16T08:40:20Z</time></trkpt><trkpt lat="43.0259979330" lon="0.2243808657"><ele>1043.17</ele><time>2016-05-16T08:40:21Z</time></trkpt><trkpt lat="43.0259954184" lon="0.2244117949"><ele>1043.17</ele><time>2016-05-16T08:40:22Z</time></trkpt><trkpt lat="43.0259872880" lon="0.2244384494"><ele>1044.13</ele><time>2016-05-16T08:40:23Z</time></trkpt><trkpt lat="43.0259772297" lon="0.2244651876"><ele>1043.65</ele><time>2016-05-16T08:40:24Z</time></trkpt><trkpt lat="43.0259733740" lon="0.2245543711"><ele>1045.09</ele><time>2016-05-16T08:40:27Z</time></trkpt><trkpt lat="43.0259654112" lon="0.2245865576"><ele>1045.09</ele><time>2016-05-16T08:40:28Z</time></trkpt><trkpt lat="43.0259587895" lon="0.2246155590"><ele>1045.09</ele><time>2016-05-16T08:40:29Z</time></trkpt><trkpt lat="43.0259470548" lon="0.2246391121"><ele>1045.09</ele><time>2016-05-16T08:40:30Z</time></trkpt><trkpt lat="43.0259342305" lon="0.2246615756"><ele>1045.57</ele><time>2016-05-16T08:40:31Z</time></trkpt><trkpt lat="43.0259247590" lon="0.2246876433"><ele>1045.09</ele><time>2016-05-16T08:40:32Z</time></trkpt><trkpt lat="43.0259167962" lon="0.2247142978"><ele>1045.09</ele><time>2016-05-16T08:40:33Z</time></trkpt><trkpt lat="43.0259069894" lon="0.2247410361"><ele>1045.57</ele><time>2016-05-16T08:40:34Z</time></trkpt><trkpt lat="43.0258941650" lon="0.2251140308"><ele>1047.97</ele><time>2016-05-16T08:40:47Z</time></trkpt><trkpt lat="43.0258776527" lon="0.2251288667"><ele>1047.49</ele><time>2016-05-16T08:40:48Z</time></trkpt><trkpt lat="43.0258615594" lon="0.2251467202"><ele>1047.97</ele><time>2016-05-16T08:40:49Z</time></trkpt><trkpt lat="43.0258476455" lon="0.2251690999"><ele>1047.49</ele><time>2016-05-16T08:40:50Z</time></trkpt><trkpt lat="43.0258395150" lon="0.2251958381"><ele>1048.45</ele><time>2016-05-16T08:40:51Z</time></trkpt><trkpt lat="43.0258336477" lon="0.2252249233"><ele>1047.97</ele><time>2016-05-16T08:40:52Z</time></trkpt><trkpt lat="43.0258366652" lon="0.2252594568"><ele>1048.45</ele><time>2016-05-16T08:40:53Z</time></trkpt><trkpt lat="43.0258412752" lon="0.2252937388"><ele>1047.97</ele><time>2016-05-16T08:40:54Z</time></trkpt><trkpt lat="43.0258406885" lon="0.2253236622"><ele>1048.45</ele><time>2016-05-16T08:40:55Z</time></trkpt><trkpt lat="43.0258395150" lon="0.2253526635"><ele>1048.94</ele><time>2016-05-16T08:40:56Z</time></trkpt><trkpt lat="43.0257888045" lon="0.2256998420"><ele>1051.34</ele><time>2016-05-16T08:41:09Z</time></trkpt><trkpt lat="43.0257358309" lon="0.2258829027"><ele>1052.30</ele><time>2016-05-16T08:41:16Z</time></trkpt><trkpt lat="43.0257193185" lon="0.2259062883"><ele>1053.26</ele><time>2016-05-16T08:41:17Z</time></trkpt><trkpt lat="43.0256971065" lon="0.2259548195"><ele>1052.78</ele><time>2016-05-16T08:41:19Z</time></trkpt><trkpt lat="43.0256945919" lon="0.2259809710"><ele>1053.26</ele><time>2016-05-16T08:41:20Z</time></trkpt><trkpt lat="43.0256903172" lon="0.2260042727"><ele>1052.78</ele><time>2016-05-16T08:41:21Z</time></trkpt><trkpt lat="43.0256090965" lon="0.2263596654"><ele>1055.18</ele><time>2016-05-16T08:41:34Z</time></trkpt><trkpt lat="43.0256347451" lon="0.2265035827"><ele>1055.67</ele><time>2016-05-16T08:41:39Z</time></trkpt><trkpt lat="43.0256318115" lon="0.2265276387"><ele>1055.18</ele><time>2016-05-16T08:41:40Z</time></trkpt><trkpt lat="43.0256240163" lon="0.2265494317"><ele>1055.67</ele><time>2016-05-16T08:41:41Z</time></trkpt><trkpt lat="43.0256102700" lon="0.2265640162"><ele>1055.67</ele><time>2016-05-16T08:41:42Z</time></trkpt><trkpt lat="43.0255999602" lon="0.2265803609"><ele>1056.15</ele><time>2016-05-16T08:41:43Z</time></trkpt><trkpt lat="43.0256009661" lon="0.2266036626"><ele>1056.15</ele><time>2016-05-16T08:41:44Z</time></trkpt><trkpt lat="43.0255992897" lon="0.2266296465"><ele>1056.63</ele><time>2016-05-16T08:41:45Z</time></trkpt><trkpt lat="43.0255893990" lon="0.2267783415"><ele>1057.59</ele><time>2016-05-16T08:41:51Z</time></trkpt><trkpt lat="43.0255924165" lon="0.2267961111"><ele>1057.59</ele><time>2016-05-16T08:41:52Z</time></trkpt><trkpt lat="43.0255879741" lon="0.2268302254"><ele>1058.07</ele><time>2016-05-16T08:41:54Z</time></trkpt><trkpt lat="43.0255862977" lon="0.2268475760"><ele>1058.07</ele><time>2016-05-16T08:41:55Z</time></trkpt><trkpt lat="43.0255890638" lon="0.2268752363"><ele>1058.07</ele><time>2016-05-16T08:41:56Z</time></trkpt><trkpt lat="43.0255867168" lon="0.2269082610"><ele>1058.07</ele><time>2016-05-16T08:41:57Z</time></trkpt><trkpt lat="43.0255897343" lon="0.2269404475"><ele>1059.03</ele><time>2016-05-16T08:41:58Z</time></trkpt><trkpt lat="43.0255949311" lon="0.2269702870"><ele>1058.55</ele><time>2016-05-16T08:41:59Z</time></trkpt><trkpt lat="43.0255923327" lon="0.2269989531"><ele>1059.03</ele><time>2016-05-16T08:42:00Z</time></trkpt><trkpt lat="43.0255903210" lon="0.2270305529"><ele>1059.03</ele><time>2016-05-16T08:42:01Z</time></trkpt><trkpt lat="43.0255702883" lon="0.2273944952"><ele>1060.47</ele><time>2016-05-16T08:42:14Z</time></trkpt><trkpt lat="43.0255428795" lon="0.2276400011"><ele>1062.39</ele><time>2016-05-16T08:42:28Z</time></trkpt><trkpt lat="43.0255431309" lon="0.2276251651"><ele>1061.91</ele><time>2016-05-16T08:42:46Z</time></trkpt><trkpt lat="43.0255335756" lon="0.2276100777"><ele>1062.39</ele><time>2016-05-16T08:43:05Z</time></trkpt><trkpt lat="43.0255218409" lon="0.2276140172"><ele>1068.16</ele><time>2016-05-16T08:43:11Z</time></trkpt><trkpt lat="43.0255210865" lon="0.2276135143"><ele>1062.87</ele><time>2016-05-16T08:43:12Z</time></trkpt><trkpt lat="43.0255196616" lon="0.2276127599"><ele>1063.84</ele><time>2016-05-16T08:43:19Z</time></trkpt><trkpt lat="43.0255192425" lon="0.2276125923"><ele>1060.95</ele><time>2016-05-16T08:43:25Z</time></trkpt><trkpt lat="43.0255145486" lon="0.2276079822"><ele>1064.32</ele><time>2016-05-16T08:43:32Z</time></trkpt><trkpt lat="43.0255144648" lon="0.2276060544"><ele>1059.51</ele><time>2016-05-16T08:43:34Z</time></trkpt><trkpt lat="43.0255152192" lon="0.2276032884"><ele>1062.87</ele><time>2016-05-16T08:43:37Z</time></trkpt><trkpt lat="43.0255153030" lon="0.2276027855"><ele>1061.43</ele><time>2016-05-16T08:43:38Z</time></trkpt><trkpt lat="43.0255154707" lon="0.2276013605"><ele>1066.72</ele><time>2016-05-16T08:43:41Z</time></trkpt><trkpt lat="43.0255157221" lon="0.2276010253"><ele>1062.87</ele><time>2016-05-16T08:43:42Z</time></trkpt><trkpt lat="43.0255103577" lon="0.2275953256"><ele>1067.20</ele><time>2016-05-16T08:43:48Z</time></trkpt><trkpt lat="43.0255101062" lon="0.2275943197"><ele>1061.43</ele><time>2016-05-16T08:43:49Z</time></trkpt><trkpt lat="43.0255127046" lon="0.2275896259"><ele>1068.16</ele><time>2016-05-16T08:43:53Z</time></trkpt><trkpt lat="43.0255133752" lon="0.2275897097"><ele>1061.91</ele><time>2016-05-16T08:43:54Z</time></trkpt><trkpt lat="43.0255063344" lon="0.2275872789"><ele>1069.60</ele><time>2016-05-16T08:44:01Z</time></trkpt><trkpt lat="43.0255060829" lon="0.2275871951"><ele>1058.55</ele><time>2016-05-16T08:44:02Z</time></trkpt><trkpt lat="43.0255064182" lon="0.2275845967"><ele>1062.87</ele><time>2016-05-16T08:44:03Z</time></trkpt><trkpt lat="43.0255062506" lon="0.2275765501"><ele>1072.01</ele><time>2016-05-16T08:44:09Z</time></trkpt><trkpt lat="43.0255057476" lon="0.2275753766"><ele>1070.08</ele><time>2016-05-16T08:44:10Z</time></trkpt><trkpt lat="43.0255056638" lon="0.2275746223"><ele>1064.32</ele><time>2016-05-16T08:44:11Z</time></trkpt><trkpt lat="43.0255054124" lon="0.2275745384"><ele>1054.22</ele><time>2016-05-16T08:44:12Z</time></trkpt><trkpt lat="43.0255052447" lon="0.2275739517"><ele>1061.91</ele><time>2016-05-16T08:44:13Z</time></trkpt><trkpt lat="43.0255049095" lon="0.2275726944"><ele>1063.84</ele><time>2016-05-16T08:44:16Z</time></trkpt><trkpt lat="43.0255173147" lon="0.2275680006"><ele>1061.91</ele><time>2016-05-16T08:44:37Z</time></trkpt><trkpt lat="43.0255241040" lon="0.2275812440"><ele>1063.36</ele><time>2016-05-16T08:44:52Z</time></trkpt><trkpt lat="43.0255249422" lon="0.2275818307"><ele>1059.99</ele><time>2016-05-16T08:44:53Z</time></trkpt><trkpt lat="43.0255251937" lon="0.2275821660"><ele>1062.87</ele><time>2016-05-16T08:44:54Z</time></trkpt><trkpt lat="43.0255262833" lon="0.2275796514"><ele>1066.72</ele><time>2016-05-16T08:45:00Z</time></trkpt><trkpt lat="43.0255256128" lon="0.2275799029"><ele>1065.28</ele><time>2016-05-16T08:45:01Z</time></trkpt><trkpt lat="43.0255173147" lon="0.2275817469"><ele>1059.03</ele><time>2016-05-16T08:45:05Z</time></trkpt><trkpt lat="43.0255151354" lon="0.2275822498"><ele>1062.87</ele><time>2016-05-16T08:45:06Z</time></trkpt><trkpt lat="43.0255096033" lon="0.2275852673"><ele>1058.07</ele><time>2016-05-16T08:45:11Z</time></trkpt><trkpt lat="43.0255098548" lon="0.2275856026"><ele>1059.51</ele><time>2016-05-16T08:45:12Z</time></trkpt><trkpt lat="43.0255100224" lon="0.2275858540"><ele>1062.87</ele><time>2016-05-16T08:45:13Z</time></trkpt><trkpt lat="43.0255102739" lon="0.2275861893"><ele>1061.91</ele><time>2016-05-16T08:45:14Z</time></trkpt><trkpt lat="43.0255099386" lon="0.2275795676"><ele>1061.91</ele><time>2016-05-16T08:45:20Z</time></trkpt><trkpt lat="43.0254992098" lon="0.2275810763"><ele>1062.87</ele><time>2016-05-16T08:45:32Z</time></trkpt><trkpt lat="43.0254966114" lon="0.2275796514"><ele>1062.39</ele><time>2016-05-16T08:45:57Z</time></trkpt><trkpt lat="43.0254779197" lon="0.2275928110"><ele>1062.39</ele><time>2016-05-16T08:46:11Z</time></trkpt><trkpt lat="43.0254779197" lon="0.2275901288"><ele>1061.91</ele><time>2016-05-16T08:46:26Z</time></trkpt><trkpt lat="43.0254882295" lon="0.2275819983"><ele>1061.91</ele><time>2016-05-16T08:46:36Z</time></trkpt><trkpt lat="43.0254911631" lon="0.2275208943"><ele>1062.39</ele><time>2016-05-16T08:46:43Z</time></trkpt><trkpt lat="43.0255223438" lon="0.2274224907"><ele>1062.87</ele><time>2016-05-16T08:46:49Z</time></trkpt><trkpt lat="43.0255161412" lon="0.2271084208"><ele>1065.28</ele><time>2016-05-16T08:47:03Z</time></trkpt><trkpt lat="43.0254841223" lon="0.2269510925"><ele>1066.72</ele><time>2016-05-16T08:47:10Z</time></trkpt><trkpt lat="43.0255151354" lon="0.2267941833"><ele>1068.16</ele><time>2016-05-16T08:47:15Z</time></trkpt><trkpt lat="43.0254761595" lon="0.2264585719"><ele>1069.60</ele><time>2016-05-16T08:47:29Z</time></trkpt><trkpt lat="43.0254787579" lon="0.2261748444"><ele>1072.01</ele><time>2016-05-16T08:47:42Z</time></trkpt><trkpt lat="43.0255683605" lon="0.2259214595"><ele>1074.41</ele><time>2016-05-16T08:47:54Z</time></trkpt><trkpt lat="43.0256532691" lon="0.2257122472"><ele>1075.85</ele><time>2016-05-16T08:48:03Z</time></trkpt><trkpt lat="43.0256553646" lon="0.2256570943"><ele>1075.85</ele><time>2016-05-16T08:48:06Z</time></trkpt><trkpt lat="43.0256988667" lon="0.2255797293"><ele>1076.81</ele><time>2016-05-16T08:48:10Z</time></trkpt><trkpt lat="43.0257081706" lon="0.2254825830"><ele>1077.29</ele><time>2016-05-16T08:48:14Z</time></trkpt><trkpt lat="43.0257080868" lon="0.2251243405"><ele>1079.22</ele><time>2016-05-16T08:48:30Z</time></trkpt><trkpt lat="43.0257203244" lon="0.2250981890"><ele>1079.70</ele><time>2016-05-16T08:48:31Z</time></trkpt><trkpt lat="43.0258049816" lon="0.2249050699"><ele>1080.66</ele><time>2016-05-16T08:48:39Z</time></trkpt><trkpt lat="43.0258356594" lon="0.2246122062"><ele>1082.58</ele><time>2016-05-16T08:48:54Z</time></trkpt><trkpt lat="43.0257867929" lon="0.2243631799"><ele>1084.99</ele><time>2016-05-16T08:49:07Z</time></trkpt><trkpt lat="43.0258566979" lon="0.2240551449"><ele>1086.43</ele><time>2016-05-16T08:49:20Z</time></trkpt><trkpt lat="43.0258619785" lon="0.2239763550"><ele>1087.87</ele><time>2016-05-16T08:49:25Z</time></trkpt><trkpt lat="43.0258628167" lon="0.2238573320"><ele>1088.35</ele><time>2016-05-16T08:49:30Z</time></trkpt><trkpt lat="43.0258819275" lon="0.2236721758"><ele>1089.79</ele><time>2016-05-16T08:49:38Z</time></trkpt><trkpt lat="43.0258863699" lon="0.2235161886"><ele>1091.23</ele><time>2016-05-16T08:49:45Z</time></trkpt><trkpt lat="43.0258381739" lon="0.2232801542"><ele>1093.16</ele><time>2016-05-16T08:49:55Z</time></trkpt><trkpt lat="43.0258516688" lon="0.2229753044"><ele>1095.08</ele><time>2016-05-16T08:50:08Z</time></trkpt><trkpt lat="43.0258858670" lon="0.2228267770"><ele>1096.04</ele><time>2016-05-16T08:50:14Z</time></trkpt><trkpt lat="43.0258380901" lon="0.2225916646"><ele>1097.96</ele><time>2016-05-16T08:50:25Z</time></trkpt><trkpt lat="43.0258158781" lon="0.2224442270"><ele>1099.40</ele><time>2016-05-16T08:50:33Z</time></trkpt><trkpt lat="43.0258122738" lon="0.2223564684"><ele>1099.89</ele><time>2016-05-16T08:50:37Z</time></trkpt><trkpt lat="43.0257970188" lon="0.2220299933"><ele>1102.77</ele><time>2016-05-16T08:50:53Z</time></trkpt><trkpt lat="43.0258033890" lon="0.2218990680"><ele>1103.73</ele><time>2016-05-16T08:50:59Z</time></trkpt><trkpt lat="43.0258069932" lon="0.2216587588"><ele>1104.69</ele><time>2016-05-16T08:51:10Z</time></trkpt><trkpt lat="43.0257941689" lon="0.2216235548"><ele>1104.69</ele><time>2016-05-16T08:51:12Z</time></trkpt><trkpt lat="43.0257723760" lon="0.2214878518"><ele>1106.13</ele><time>2016-05-16T08:51:19Z</time></trkpt><trkpt lat="43.0257774051" lon="0.2213627100"><ele>1107.10</ele><time>2016-05-16T08:51:25Z</time></trkpt><trkpt lat="43.0257756449" lon="0.2210384142"><ele>1109.50</ele><time>2016-05-16T08:51:41Z</time></trkpt><trkpt lat="43.0257591326" lon="0.2208019607"><ele>1111.42</ele><time>2016-05-16T08:51:54Z</time></trkpt><trkpt lat="43.0257470626" lon="0.2207085025"><ele>1112.38</ele><time>2016-05-16T08:51:59Z</time></trkpt><trkpt lat="43.0257430393" lon="0.2205469832"><ele>1113.82</ele><time>2016-05-16T08:52:07Z</time></trkpt><trkpt lat="43.0257090088" lon="0.2203434706"><ele>1115.75</ele><time>2016-05-16T08:52:17Z</time></trkpt><trkpt lat="43.0257095117" lon="0.2202784270"><ele>1115.75</ele><time>2016-05-16T08:52:20Z</time></trkpt><trkpt lat="43.0256572925" lon="0.2199800313"><ele>1118.15</ele><time>2016-05-16T08:52:35Z</time></trkpt><trkpt lat="43.0256460607" lon="0.2199043427"><ele>1118.15</ele><time>2016-05-16T08:52:40Z</time></trkpt><trkpt lat="43.0256720446" lon="0.2198292408"><ele>1119.59</ele><time>2016-05-16T08:52:44Z</time></trkpt><trkpt lat="43.0256904010" lon="0.2197802905"><ele>1120.07</ele><time>2016-05-16T08:52:46Z</time></trkpt><trkpt lat="43.0257525109" lon="0.2196940407"><ele>1120.55</ele><time>2016-05-16T08:52:50Z</time></trkpt><trkpt lat="43.0258407723" lon="0.2194124926"><ele>1122.48</ele><time>2016-05-16T08:53:04Z</time></trkpt><trkpt lat="43.0258215778" lon="0.2190488856"><ele>1124.88</ele><time>2016-05-16T08:53:21Z</time></trkpt><trkpt lat="43.0258250982" lon="0.2187701035"><ele>1126.80</ele><time>2016-05-16T08:53:34Z</time></trkpt><trkpt lat="43.0259268545" lon="0.2183873020"><ele>1129.21</ele><time>2016-05-16T08:53:51Z</time></trkpt><trkpt lat="43.0260178819" lon="0.2180135529"><ele>1130.17</ele><time>2016-05-16T08:54:05Z</time></trkpt><trkpt lat="43.0259935744" lon="0.2179040015"><ele>1130.17</ele><time>2016-05-16T08:54:10Z</time></trkpt><trkpt lat="43.0259486474" lon="0.2178705577"><ele>1131.13</ele><time>2016-05-16T08:54:14Z</time></trkpt><trkpt lat="43.0259110965" lon="0.2178735752"><ele>1131.61</ele><time>2016-05-16T08:54:17Z</time></trkpt><trkpt lat="43.0258629844" lon="0.2181405388"><ele>1133.05</ele><time>2016-05-16T08:54:28Z</time></trkpt><trkpt lat="43.0257981922" lon="0.2184722107"><ele>1134.49</ele><time>2016-05-16T08:54:41Z</time></trkpt><trkpt lat="43.0256751459" lon="0.2187185548"><ele>1135.94</ele><time>2016-05-16T08:54:53Z</time></trkpt><trkpt lat="43.0255670194" lon="0.2189217322"><ele>1137.86</ele><time>2016-05-16T08:55:04Z</time></trkpt><trkpt lat="43.0255419575" lon="0.2189961635"><ele>1138.82</ele><time>2016-05-16T08:55:08Z</time></trkpt><trkpt lat="43.0254977010" lon="0.2191518992"><ele>1141.22</ele><time>2016-05-16T08:55:18Z</time></trkpt><trkpt lat="43.0254453979" lon="0.2194602694"><ele>1143.63</ele><time>2016-05-16T08:55:33Z</time></trkpt><trkpt lat="43.0253645126" lon="0.2197170909"><ele>1146.51</ele><time>2016-05-16T08:55:47Z</time></trkpt><trkpt lat="43.0253591482" lon="0.2197293285"><ele>1146.03</ele><time>2016-05-16T08:55:48Z</time></trkpt><trkpt lat="43.0253357626" lon="0.2197906841"><ele>1146.99</ele><time>2016-05-16T08:55:52Z</time></trkpt><trkpt lat="43.0252506863" lon="0.2200599946"><ele>1148.43</ele><time>2016-05-16T08:56:07Z</time></trkpt><trkpt lat="43.0251891632" lon="0.2201643493"><ele>1149.87</ele><time>2016-05-16T08:56:14Z</time></trkpt><trkpt lat="43.0251573119" lon="0.2204636671"><ele>1152.28</ele><time>2016-05-16T08:56:30Z</time></trkpt><trkpt lat="43.0251410510" lon="0.2205601428"><ele>1153.24</ele><time>2016-05-16T08:56:36Z</time></trkpt><trkpt lat="43.0251615867" lon="0.2207481489"><ele>1154.68</ele><time>2016-05-16T08:56:45Z</time></trkpt><trkpt lat="43.0250883289" lon="0.2210156154"><ele>1157.08</ele><time>2016-05-16T08:57:01Z</time></trkpt><trkpt lat="43.0250672903" lon="0.2210650686"><ele>1157.56</ele><time>2016-05-16T08:57:05Z</time></trkpt><trkpt lat="43.0249945354" lon="0.2213140950"><ele>1159.49</ele><time>2016-05-16T08:57:19Z</time></trkpt><trkpt lat="43.0249309167" lon="0.2214767877"><ele>1161.41</ele><time>2016-05-16T08:57:31Z</time></trkpt><trkpt lat="43.0248408951" lon="0.2217383869"><ele>1163.81</ele><time>2016-05-16T08:57:47Z</time></trkpt><trkpt lat="43.0248040147" lon="0.2219752595"><ele>1165.74</ele><time>2016-05-16T08:58:00Z</time></trkpt><trkpt lat="43.0247734208" lon="0.2221297380"><ele>1166.70</ele><time>2016-05-16T08:58:08Z</time></trkpt><trkpt lat="43.0246608518" lon="0.2224411257"><ele>1169.10</ele><time>2016-05-16T08:58:24Z</time></trkpt><trkpt lat="43.0246192776" lon="0.2225775830"><ele>1170.06</ele><time>2016-05-16T08:58:30Z</time></trkpt><trkpt lat="43.0244803894" lon="0.2228722908"><ele>1171.98</ele><time>2016-05-16T08:58:45Z</time></trkpt><trkpt lat="43.0244815629" lon="0.2230728697"><ele>1173.43</ele><time>2016-05-16T08:58:54Z</time></trkpt><trkpt lat="43.0244796351" lon="0.2234038711"><ele>1174.87</ele><time>2016-05-16T08:59:08Z</time></trkpt><trkpt lat="43.0245280825" lon="0.2238591760"><ele>1177.27</ele><time>2016-05-16T08:59:29Z</time></trkpt><trkpt lat="43.0244544894" lon="0.2238895185"><ele>1178.23</ele><time>2016-05-16T08:59:35Z</time></trkpt><trkpt lat="43.0243854225" lon="0.2237336151"><ele>1179.19</ele><time>2016-05-16T08:59:46Z</time></trkpt><trkpt lat="43.0243899487" lon="0.2237019315"><ele>1179.67</ele><time>2016-05-16T08:59:48Z</time></trkpt><trkpt lat="43.0244818144" lon="0.2233906277"><ele>1181.60</ele><time>2016-05-16T09:00:03Z</time></trkpt><trkpt lat="43.0244651344" lon="0.2230601292"><ele>1183.04</ele><time>2016-05-16T09:00:19Z</time></trkpt><trkpt lat="43.0244905315" lon="0.2229372505"><ele>1183.52</ele><time>2016-05-16T09:00:24Z</time></trkpt><trkpt lat="43.0245069601" lon="0.2228706144"><ele>1184.48</ele><time>2016-05-16T09:00:28Z</time></trkpt><trkpt lat="43.0244984943" lon="0.2225837857"><ele>1185.92</ele><time>2016-05-16T09:00:42Z</time></trkpt><trkpt lat="43.0245050322" lon="0.2225614898"><ele>1185.44</ele><time>2016-05-16T09:00:43Z</time></trkpt><trkpt lat="43.0245117377" lon="0.2224802691"><ele>1185.92</ele><time>2016-05-16T09:00:47Z</time></trkpt><trkpt lat="43.0244425870" lon="0.2221428137"><ele>1188.33</ele><time>2016-05-16T09:01:04Z</time></trkpt><trkpt lat="43.0243746936" lon="0.2219747566"><ele>1189.77</ele><time>2016-05-16T09:01:14Z</time></trkpt><trkpt lat="43.0243697483" lon="0.2217637841"><ele>1191.21</ele><time>2016-05-16T09:01:26Z</time></trkpt><trkpt lat="43.0243808124" lon="0.2216843236"><ele>1192.17</ele><time>2016-05-16T09:01:31Z</time></trkpt><trkpt lat="43.0244004261" lon="0.2215908654"><ele>1192.65</ele><time>2016-05-16T09:01:36Z</time></trkpt><trkpt lat="43.0244181119" lon="0.2212901227"><ele>1195.54</ele><time>2016-05-16T09:01:52Z</time></trkpt><trkpt lat="43.0244004261" lon="0.2209592890"><ele>1197.46</ele><time>2016-05-16T09:02:09Z</time></trkpt><trkpt lat="43.0243836623" lon="0.2209120989"><ele>1197.94</ele><time>2016-05-16T09:02:12Z</time></trkpt><trkpt lat="43.0243295152" lon="0.2206470631"><ele>1199.86</ele><time>2016-05-16T09:02:27Z</time></trkpt><trkpt lat="43.0243300181" lon="0.2205866296"><ele>1199.86</ele><time>2016-05-16T09:02:31Z</time></trkpt><trkpt lat="43.0243399087" lon="0.2204676066"><ele>1200.82</ele><time>2016-05-16T09:02:36Z</time></trkpt><trkpt lat="43.0242871866" lon="0.2201442327"><ele>1202.27</ele><time>2016-05-16T09:02:50Z</time></trkpt><trkpt lat="43.0242727697" lon="0.2200114634"><ele>1202.27</ele><time>2016-05-16T09:02:55Z</time></trkpt><trkpt lat="43.0242165271" lon="0.2197041828"><ele>1203.71</ele><time>2016-05-16T09:03:05Z</time></trkpt><trkpt lat="43.0242844205" lon="0.2193036955"><ele>1205.15</ele><time>2016-05-16T09:03:17Z</time></trkpt><trkpt lat="43.0243110750" lon="0.2191642206"><ele>1205.63</ele><time>2016-05-16T09:03:21Z</time></trkpt><trkpt lat="43.0243106559" lon="0.2188033797"><ele>1208.03</ele><time>2016-05-16T09:03:36Z</time></trkpt><trkpt lat="43.0243113264" lon="0.2184775751"><ele>1209.96</ele><time>2016-05-16T09:03:51Z</time></trkpt><trkpt lat="43.0242972448" lon="0.2183899004"><ele>1210.92</ele><time>2016-05-16T09:03:55Z</time></trkpt><trkpt lat="43.0243218876" lon="0.2182353381"><ele>1211.88</ele><time>2016-05-16T09:04:02Z</time></trkpt><trkpt lat="43.0243295152" lon="0.2179137245"><ele>1213.80</ele><time>2016-05-16T09:04:15Z</time></trkpt><trkpt lat="43.0242929701" lon="0.2178061008"><ele>1214.76</ele><time>2016-05-16T09:04:19Z</time></trkpt><trkpt lat="43.0242721830" lon="0.2175216191"><ele>1215.24</ele><time>2016-05-16T09:04:28Z</time></trkpt><trkpt lat="43.0242663156" lon="0.2174688131"><ele>1215.72</ele><time>2016-05-16T09:04:30Z</time></trkpt><trkpt lat="43.0242501386" lon="0.2172021009"><ele>1216.21</ele><time>2016-05-16T09:04:40Z</time></trkpt><trkpt lat="43.0243301857" lon="0.2169773821"><ele>1217.17</ele><time>2016-05-16T09:04:48Z</time></trkpt><trkpt lat="43.0243098177" lon="0.2168091573"><ele>1217.65</ele><time>2016-05-16T09:04:55Z</time></trkpt><trkpt lat="43.0242954008" lon="0.2167751268"><ele>1217.17</ele><time>2016-05-16T09:05:08Z</time></trkpt><trkpt lat="43.0242973287" lon="0.2167703491"><ele>1217.17</ele><time>2016-05-16T09:05:38Z</time></trkpt><trkpt lat="43.0242928024" lon="0.2167633921"><ele>1216.69</ele><time>2016-05-16T09:06:02Z</time></trkpt><trkpt lat="43.0242899526" lon="0.2167629730"><ele>1216.69</ele><time>2016-05-16T09:06:21Z</time></trkpt><trkpt lat="43.0242946465" lon="0.2167599555"><ele>1217.17</ele><time>2016-05-16T09:06:44Z</time></trkpt><trkpt lat="43.0242938083" lon="0.2167617157"><ele>1216.69</ele><time>2016-05-16T09:07:10Z</time></trkpt><trkpt lat="43.0242914613" lon="0.2167657390"><ele>1216.69</ele><time>2016-05-16T09:07:38Z</time></trkpt><trkpt lat="43.0242670700" lon="0.2167450357"><ele>1216.69</ele><time>2016-05-16T09:07:56Z</time></trkpt><trkpt lat="43.0242616218" lon="0.2167296968"><ele>1216.69</ele><time>2016-05-16T09:08:13Z</time></trkpt><trkpt lat="43.0242599454" lon="0.2167343907"><ele>1216.69</ele><time>2016-05-16T09:08:34Z</time></trkpt><trkpt lat="43.0242489651" lon="0.2167353127"><ele>1216.21</ele><time>2016-05-16T09:08:58Z</time></trkpt><trkpt lat="43.0242482945" lon="0.2167331334"><ele>1216.21</ele><time>2016-05-16T09:09:18Z</time></trkpt><trkpt lat="43.0242524017" lon="0.2167271823"><ele>1216.69</ele><time>2016-05-16T09:09:37Z</time></trkpt><trkpt lat="43.0242541619" lon="0.2167225722"><ele>1216.21</ele><time>2016-05-16T09:10:01Z</time></trkpt><trkpt lat="43.0242575984" lon="0.2167156152"><ele>1216.21</ele><time>2016-05-16T09:10:19Z</time></trkpt><trkpt lat="43.0242599454" lon="0.2167176269"><ele>1216.21</ele><time>2016-05-16T09:10:45Z</time></trkpt><trkpt lat="43.0242528208" lon="0.2167176269"><ele>1215.72</ele><time>2016-05-16T09:11:09Z</time></trkpt><trkpt lat="43.0242483784" lon="0.2167130169"><ele>1215.72</ele><time>2016-05-16T09:11:31Z</time></trkpt><trkpt lat="43.0242508091" lon="0.2167105023"><ele>1215.72</ele><time>2016-05-16T09:11:53Z</time></trkpt><trkpt lat="43.0242452770" lon="0.2167121787"><ele>1215.24</ele><time>2016-05-16T09:12:15Z</time></trkpt><trkpt lat="43.0242347158" lon="0.2167045511"><ele>1215.72</ele><time>2016-05-16T09:12:31Z</time></trkpt><trkpt lat="43.0242193770" lon="0.2166854404"><ele>1215.24</ele><time>2016-05-16T09:12:59Z</time></trkpt><trkpt lat="43.0242177006" lon="0.2166899666"><ele>1215.72</ele><time>2016-05-16T09:13:19Z</time></trkpt><trkpt lat="43.0242197961" lon="0.2166948281"><ele>1215.24</ele><time>2016-05-16T09:13:43Z</time></trkpt><trkpt lat="43.0242342129" lon="0.2166911401"><ele>1214.76</ele><time>2016-05-16T09:14:05Z</time></trkpt><trkpt lat="43.0242375657" lon="0.2166881226"><ele>1215.72</ele><time>2016-05-16T09:14:12Z</time></trkpt><trkpt lat="43.0242214724" lon="0.2166607138"><ele>1215.24</ele><time>2016-05-16T09:14:16Z</time></trkpt><trkpt lat="43.0241601169" lon="0.2164435387"><ele>1214.28</ele><time>2016-05-16T09:14:26Z</time></trkpt><trkpt lat="43.0240937322" lon="0.2163410280"><ele>1215.72</ele><time>2016-05-16T09:14:32Z</time></trkpt><trkpt lat="43.0239887908" lon="0.2161272056"><ele>1219.57</ele><time>2016-05-16T09:14:45Z</time></trkpt><trkpt lat="43.0239527486" lon="0.2158593200"><ele>1221.49</ele><time>2016-05-16T09:14:58Z</time></trkpt><trkpt lat="43.0239211489" lon="0.2155508660"><ele>1223.42</ele><time>2016-05-16T09:15:13Z</time></trkpt><trkpt lat="43.0238440353" lon="0.2152231336"><ele>1225.34</ele><time>2016-05-16T09:15:29Z</time></trkpt><trkpt lat="43.0236852821" lon="0.2147757076"><ele>1226.30</ele><time>2016-05-16T09:15:46Z</time></trkpt><trkpt lat="43.0235146265" lon="0.2145210654"><ele>1227.74</ele><time>2016-05-16T09:15:59Z</time></trkpt><trkpt lat="43.0233262014" lon="0.2144557703"><ele>1231.11</ele><time>2016-05-16T09:16:10Z</time></trkpt><trkpt lat="43.0230835453" lon="0.2143225819"><ele>1231.11</ele><time>2016-05-16T09:16:24Z</time></trkpt><trkpt lat="43.0230148975" lon="0.2142649982"><ele>1231.11</ele><time>2016-05-16T09:16:27Z</time></trkpt><trkpt lat="43.0227596685" lon="0.2142307162"><ele>1233.03</ele><time>2016-05-16T09:16:40Z</time></trkpt><trkpt lat="43.0225602631" lon="0.2142199036"><ele>1235.91</ele><time>2016-05-16T09:16:53Z</time></trkpt><trkpt lat="43.0223275814" lon="0.2141752280"><ele>1238.32</ele><time>2016-05-16T09:17:09Z</time></trkpt><trkpt lat="43.0221052933" lon="0.2142237592"><ele>1241.20</ele><time>2016-05-16T09:17:24Z</time></trkpt><trkpt lat="43.0219415948" lon="0.2142349910"><ele>1243.60</ele><time>2016-05-16T09:17:36Z</time></trkpt><trkpt lat="43.0217379145" lon="0.2142768167"><ele>1246.49</ele><time>2016-05-16T09:17:52Z</time></trkpt><trkpt lat="43.0215452146" lon="0.2143156249"><ele>1248.41</ele><time>2016-05-16T09:18:07Z</time></trkpt><trkpt lat="43.0213393550" lon="0.2143748850"><ele>1249.85</ele><time>2016-05-16T09:18:22Z</time></trkpt><trkpt lat="43.0213241000" lon="0.2143817581"><ele>1249.85</ele><time>2016-05-16T09:18:23Z</time></trkpt><trkpt lat="43.0211104453" lon="0.2144217398"><ele>1251.77</ele><time>2016-05-16T09:18:38Z</time></trkpt><trkpt lat="43.0209424719" lon="0.2143956721"><ele>1254.18</ele><time>2016-05-16T09:18:50Z</time></trkpt><trkpt lat="43.0207739118" lon="0.2143487334"><ele>1257.06</ele><time>2016-05-16T09:19:03Z</time></trkpt><trkpt lat="43.0205973051" lon="0.2143340651"><ele>1260.43</ele><time>2016-05-16T09:19:15Z</time></trkpt><trkpt lat="43.0205453373" lon="0.2143346518"><ele>1261.87</ele><time>2016-05-16T09:19:19Z</time></trkpt><trkpt lat="43.0203639530" lon="0.2142950054"><ele>1264.75</ele><time>2016-05-16T09:19:34Z</time></trkpt><trkpt lat="43.0201996677" lon="0.2143249288"><ele>1266.67</ele><time>2016-05-16T09:19:49Z</time></trkpt><trkpt lat="43.0200719275" lon="0.2143968455"><ele>1268.12</ele><time>2016-05-16T09:20:02Z</time></trkpt><trkpt lat="43.0200053751" lon="0.2144172136"><ele>1269.08</ele><time>2016-05-16T09:20:08Z</time></trkpt><trkpt lat="43.0199099053" lon="0.2144996915"><ele>1271.00</ele><time>2016-05-16T09:20:21Z</time></trkpt><trkpt lat="43.0197695084" lon="0.2145832591"><ele>1272.92</ele><time>2016-05-16T09:20:33Z</time></trkpt><trkpt lat="43.0196353979" lon="0.2146820817"><ele>1273.40</ele><time>2016-05-16T09:20:43Z</time></trkpt><trkpt lat="43.0193685181" lon="0.2148816548"><ele>1275.33</ele><time>2016-05-16T09:20:55Z</time></trkpt><trkpt lat="43.0191971082" lon="0.2149654739"><ele>1273.40</ele><time>2016-05-16T09:21:00Z</time></trkpt><trkpt lat="43.0191622395" lon="0.2150044497"><ele>1273.40</ele><time>2016-05-16T09:21:01Z</time></trkpt><trkpt lat="43.0191317294" lon="0.2150342893"><ele>1273.40</ele><time>2016-05-16T09:21:02Z</time></trkpt><trkpt lat="43.0191021413" lon="0.2150626201"><ele>1273.40</ele><time>2016-05-16T09:21:03Z</time></trkpt><trkpt lat="43.0190683622" lon="0.2151005901"><ele>1272.44</ele><time>2016-05-16T09:21:04Z</time></trkpt><trkpt lat="43.0189638399" lon="0.2152160089"><ele>1271.00</ele><time>2016-05-16T09:21:07Z</time></trkpt><trkpt lat="43.0187874846" lon="0.2154678013"><ele>1272.44</ele><time>2016-05-16T09:21:16Z</time></trkpt><trkpt lat="43.0186174996" lon="0.2156745829"><ele>1274.36</ele><time>2016-05-16T09:21:29Z</time></trkpt><trkpt lat="43.0185791105" lon="0.2157605812"><ele>1275.81</ele><time>2016-05-16T09:21:34Z</time></trkpt><trkpt lat="43.0185704771" lon="0.2157771774"><ele>1275.33</ele><time>2016-05-16T09:21:35Z</time></trkpt><trkpt lat="43.0184926931" lon="0.2158972900"><ele>1277.25</ele><time>2016-05-16T09:21:44Z</time></trkpt><trkpt lat="43.0184856523" lon="0.2159121260"><ele>1277.73</ele><time>2016-05-16T09:21:45Z</time></trkpt><trkpt lat="43.0183869973" lon="0.2160852123"><ele>1280.13</ele><time>2016-05-16T09:21:58Z</time></trkpt><trkpt lat="43.0183117278" lon="0.2161919139"><ele>1282.54</ele><time>2016-05-16T09:22:06Z</time></trkpt><trkpt lat="43.0182986520" lon="0.2161995415"><ele>1282.54</ele><time>2016-05-16T09:22:07Z</time></trkpt><trkpt lat="43.0182893481" lon="0.2162080910"><ele>1282.54</ele><time>2016-05-16T09:22:08Z</time></trkpt><trkpt lat="43.0182774458" lon="0.2162132878"><ele>1282.54</ele><time>2016-05-16T09:22:09Z</time></trkpt><trkpt lat="43.0182670522" lon="0.2162220888"><ele>1283.02</ele><time>2016-05-16T09:22:10Z</time></trkpt><trkpt lat="43.0182460975" lon="0.2162365057"><ele>1282.54</ele><time>2016-05-16T09:22:12Z</time></trkpt><trkpt lat="43.0181633681" lon="0.2163536847"><ele>1285.42</ele><time>2016-05-16T09:22:25Z</time></trkpt><trkpt lat="43.0181544833" lon="0.2163601387"><ele>1285.42</ele><time>2016-05-16T09:22:26Z</time></trkpt><trkpt lat="43.0180931278" lon="0.2163720410"><ele>1284.94</ele><time>2016-05-16T09:22:31Z</time></trkpt><trkpt lat="43.0181105621" lon="0.2164762281"><ele>1286.86</ele><time>2016-05-16T09:22:42Z</time></trkpt><trkpt lat="43.0181298405" lon="0.2165291179"><ele>1287.34</ele><time>2016-05-16T09:22:47Z</time></trkpt><trkpt lat="43.0181165971" lon="0.2165620588"><ele>1287.34</ele><time>2016-05-16T09:22:51Z</time></trkpt><trkpt lat="43.0181034375" lon="0.2165710274"><ele>1287.82</ele><time>2016-05-16T09:23:04Z</time></trkpt><trkpt lat="43.0181219615" lon="0.2165784873"><ele>1287.34</ele><time>2016-05-16T09:23:25Z</time></trkpt><trkpt lat="43.0181129929" lon="0.2165790740"><ele>1286.86</ele><time>2016-05-16T09:23:53Z</time></trkpt><trkpt lat="43.0181098077" lon="0.2165711951"><ele>1287.82</ele><time>2016-05-16T09:24:04Z</time></trkpt><trkpt lat="43.0181681458" lon="0.2164231706"><ele>1285.90</ele><time>2016-05-16T09:24:11Z</time></trkpt><trkpt lat="43.0181585904" lon="0.2164085023"><ele>1285.90</ele><time>2016-05-16T09:24:19Z</time></trkpt><trkpt lat="43.0181602668" lon="0.2164002880"><ele>1285.42</ele><time>2016-05-16T09:24:34Z</time></trkpt><trkpt lat="43.0181587581" lon="0.2164362464"><ele>1285.90</ele><time>2016-05-16T09:24:36Z</time></trkpt><trkpt lat="43.0181300081" lon="0.2165056486"><ele>1286.86</ele><time>2016-05-16T09:24:41Z</time></trkpt><trkpt lat="43.0181331094" lon="0.2165727876"><ele>1287.34</ele><time>2016-05-16T09:24:45Z</time></trkpt><trkpt lat="43.0181292538" lon="0.2165935747"><ele>1287.82</ele><time>2016-05-16T09:24:52Z</time></trkpt><trkpt lat="43.0181007553" lon="0.2165811695"><ele>1287.82</ele><time>2016-05-16T09:25:05Z</time></trkpt><trkpt lat="43.0181019288" lon="0.2165922336"><ele>1287.34</ele><time>2016-05-16T09:25:09Z</time></trkpt><trkpt lat="43.0181147531" lon="0.2165867016"><ele>1287.82</ele><time>2016-05-16T09:25:20Z</time></trkpt><trkpt lat="43.0181045271" lon="0.2165884618"><ele>1287.82</ele><time>2016-05-16T09:25:35Z</time></trkpt><trkpt lat="43.0180904455" lon="0.2166030463"><ele>1288.30</ele><time>2016-05-16T09:25:41Z</time></trkpt><trkpt lat="43.0180667248" lon="0.2166571934"><ele>1289.27</ele><time>2016-05-16T09:25:45Z</time></trkpt><trkpt lat="43.0180407409" lon="0.2167205606"><ele>1289.75</ele><time>2016-05-16T09:25:50Z</time></trkpt><trkpt lat="43.0179854203" lon="0.2168453671"><ele>1291.19</ele><time>2016-05-16T09:26:00Z</time></trkpt><trkpt lat="43.0179644655" lon="0.2168777213"><ele>1291.67</ele><time>2016-05-16T09:26:03Z</time></trkpt><trkpt lat="43.0178951472" lon="0.2171031106"><ele>1294.55</ele><time>2016-05-16T09:26:20Z</time></trkpt><trkpt lat="43.0178807303" lon="0.2171948925"><ele>1295.99</ele><time>2016-05-16T09:26:26Z</time></trkpt><trkpt lat="43.0178418383" lon="0.2172974870"><ele>1297.44</ele><time>2016-05-16T09:26:33Z</time></trkpt><trkpt lat="43.0178096518" lon="0.2174059488"><ele>1298.88</ele><time>2016-05-16T09:26:40Z</time></trkpt><trkpt lat="43.0178117473" lon="0.2174522169"><ele>1299.36</ele><time>2016-05-16T09:26:43Z</time></trkpt><trkpt lat="43.0177262519" lon="0.2176900115"><ele>1301.28</ele><time>2016-05-16T09:26:59Z</time></trkpt><trkpt lat="43.0176150240" lon="0.2179306559"><ele>1302.72</ele><time>2016-05-16T09:27:15Z</time></trkpt><trkpt lat="43.0175397545" lon="0.2181612421"><ele>1304.17</ele><time>2016-05-16T09:27:29Z</time></trkpt><trkpt lat="43.0175287742" lon="0.2182166465"><ele>1304.65</ele><time>2016-05-16T09:27:32Z</time></trkpt><trkpt lat="43.0174954142" lon="0.2183025610"><ele>1304.65</ele><time>2016-05-16T09:27:37Z</time></trkpt><trkpt lat="43.0174219050" lon="0.2186098415"><ele>1308.49</ele><time>2016-05-16T09:27:52Z</time></trkpt><trkpt lat="43.0173977651" lon="0.2186590433"><ele>1308.49</ele><time>2016-05-16T09:27:55Z</time></trkpt><trkpt lat="43.0173364934" lon="0.2188547608"><ele>1310.90</ele><time>2016-05-16T09:28:07Z</time></trkpt><trkpt lat="43.0173057318" lon="0.2189599536"><ele>1311.86</ele><time>2016-05-16T09:28:18Z</time></trkpt><trkpt lat="43.0172938295" lon="0.2189623006"><ele>1311.86</ele><time>2016-05-16T09:28:20Z</time></trkpt><trkpt lat="43.0172795802" lon="0.2189996000"><ele>1311.86</ele><time>2016-05-16T09:28:23Z</time></trkpt><trkpt lat="43.0172585417" lon="0.2190830000"><ele>1312.82</ele><time>2016-05-16T09:28:28Z</time></trkpt><trkpt lat="43.0172516685" lon="0.2191246580"><ele>1313.30</ele><time>2016-05-16T09:28:30Z</time></trkpt><trkpt lat="43.0172139499" lon="0.2192566730"><ele>1314.26</ele><time>2016-05-16T09:28:38Z</time></trkpt><trkpt lat="43.0172029696" lon="0.2192996722"><ele>1314.74</ele><time>2016-05-16T09:28:41Z</time></trkpt><trkpt lat="43.0171538517" lon="0.2194018476"><ele>1315.22</ele><time>2016-05-16T09:28:48Z</time></trkpt><trkpt lat="43.0171306338" lon="0.2194805536"><ele>1316.18</ele><time>2016-05-16T09:28:53Z</time></trkpt><trkpt lat="43.0170559511" lon="0.2197152469"><ele>1318.59</ele><time>2016-05-16T09:29:07Z</time></trkpt><trkpt lat="43.0170280393" lon="0.2197856549"><ele>1318.59</ele><time>2016-05-16T09:29:11Z</time></trkpt><trkpt lat="43.0169999599" lon="0.2198964637"><ele>1319.07</ele><time>2016-05-16T09:29:17Z</time></trkpt><trkpt lat="43.0169835314" lon="0.2199753374"><ele>1320.51</ele><time>2016-05-16T09:29:21Z</time></trkpt><trkpt lat="43.0169615708" lon="0.2201147284"><ele>1322.43</ele><time>2016-05-16T09:29:33Z</time></trkpt><trkpt lat="43.0169530213" lon="0.2201216016"><ele>1322.91</ele><time>2016-05-16T09:29:34Z</time></trkpt><trkpt lat="43.0169422925" lon="0.2201444842"><ele>1321.95</ele><time>2016-05-16T09:29:36Z</time></trkpt><trkpt lat="43.0169195775" lon="0.2202183288"><ele>1322.91</ele><time>2016-05-16T09:29:42Z</time></trkpt><trkpt lat="43.0169177335" lon="0.2202443965"><ele>1323.39</ele><time>2016-05-16T09:29:44Z</time></trkpt><trkpt lat="43.0168660171" lon="0.2203881461"><ele>1325.31</ele><time>2016-05-16T09:29:57Z</time></trkpt><trkpt lat="43.0168158934" lon="0.2205183171"><ele>1325.80</ele><time>2016-05-16T09:30:10Z</time></trkpt><trkpt lat="43.0167953577" lon="0.2205795050"><ele>1327.24</ele><time>2016-05-16T09:30:16Z</time></trkpt><trkpt lat="43.0167969503" lon="0.2206853684"><ele>1328.68</ele><time>2016-05-16T09:30:28Z</time></trkpt><trkpt lat="43.0167800188" lon="0.2207798325"><ele>1331.56</ele><time>2016-05-16T09:30:40Z</time></trkpt><trkpt lat="43.0167464074" lon="0.2208599634"><ele>1332.04</ele><time>2016-05-16T09:30:51Z</time></trkpt><trkpt lat="43.0167144723" lon="0.2209511586"><ele>1333.49</ele><time>2016-05-16T09:31:02Z</time></trkpt><trkpt lat="43.0166891590" lon="0.2210473828"><ele>1334.93</ele><time>2016-05-16T09:31:13Z</time></trkpt><trkpt lat="43.0166685395" lon="0.2210824192"><ele>1334.93</ele><time>2016-05-16T09:31:17Z</time></trkpt><trkpt lat="43.0166332517" lon="0.2211685851"><ele>1336.37</ele><time>2016-05-16T09:31:28Z</time></trkpt><trkpt lat="43.0166323297" lon="0.2212370653"><ele>1336.85</ele><time>2016-05-16T09:31:35Z</time></trkpt><trkpt lat="43.0165856425" lon="0.2213101555"><ele>1337.33</ele><time>2016-05-16T09:31:46Z</time></trkpt><trkpt lat="43.0165752489" lon="0.2213311940"><ele>1337.81</ele><time>2016-05-16T09:31:49Z</time></trkpt><trkpt lat="43.0165468343" lon="0.2213773783"><ele>1338.29</ele><time>2016-05-16T09:31:52Z</time></trkpt><trkpt lat="43.0164875742" lon="0.2215694077"><ele>1340.70</ele><time>2016-05-16T09:32:04Z</time></trkpt><trkpt lat="43.0164850596" lon="0.2215740178"><ele>1340.70</ele><time>2016-05-16T09:32:06Z</time></trkpt><trkpt lat="43.0164736602" lon="0.2216003370"><ele>1341.18</ele><time>2016-05-16T09:32:09Z</time></trkpt><trkpt lat="43.0163861532" lon="0.2217943780"><ele>1344.06</ele><time>2016-05-16T09:32:24Z</time></trkpt><trkpt lat="43.0163556430" lon="0.2218766045"><ele>1345.02</ele><time>2016-05-16T09:32:32Z</time></trkpt><trkpt lat="43.0163313355" lon="0.2219191846"><ele>1345.50</ele><time>2016-05-16T09:32:38Z</time></trkpt><trkpt lat="43.0163027532" lon="0.2220387105"><ele>1346.94</ele><time>2016-05-16T09:32:51Z</time></trkpt><trkpt lat="43.0163113028" lon="0.2220438235"><ele>1347.43</ele><time>2016-05-16T09:33:12Z</time></trkpt><trkpt lat="43.0163040943" lon="0.2220947854"><ele>1348.39</ele><time>2016-05-16T09:33:22Z</time></trkpt><trkpt lat="43.0162895098" lon="0.2221527882"><ele>1349.83</ele><time>2016-05-16T09:33:33Z</time></trkpt><trkpt lat="43.0162911024" lon="0.2222732361"><ele>1352.71</ele><time>2016-05-16T09:33:48Z</time></trkpt><trkpt lat="43.0162903480" lon="0.2223732322"><ele>1354.63</ele><time>2016-05-16T09:34:02Z</time></trkpt><trkpt lat="43.0162817147" lon="0.2224398684"><ele>1355.60</ele><time>2016-05-16T09:34:13Z</time></trkpt><trkpt lat="43.0162793677" lon="0.2225531917"><ele>1357.52</ele><time>2016-05-16T09:34:25Z</time></trkpt><trkpt lat="43.0162660405" lon="0.2226438839"><ele>1359.92</ele><time>2016-05-16T09:34:38Z</time></trkpt><trkpt lat="43.0162466783" lon="0.2227222547"><ele>1361.36</ele><time>2016-05-16T09:34:51Z</time></trkpt><trkpt lat="43.0162093788" lon="0.2228322253"><ele>1363.29</ele><time>2016-05-16T09:35:04Z</time></trkpt><trkpt lat="43.0161803775" lon="0.2229820099"><ele>1365.21</ele><time>2016-05-16T09:35:19Z</time></trkpt><trkpt lat="43.0161574949" lon="0.2230958361"><ele>1367.13</ele><time>2016-05-16T09:35:33Z</time></trkpt><trkpt lat="43.0161441676" lon="0.2232079860"><ele>1370.02</ele><time>2016-05-16T09:35:48Z</time></trkpt><trkpt lat="43.0161353666" lon="0.2232987620"><ele>1371.46</ele><time>2016-05-16T09:36:02Z</time></trkpt><trkpt lat="43.0161383003" lon="0.2234074753"><ele>1373.86</ele><time>2016-05-16T09:36:16Z</time></trkpt><trkpt lat="43.0161213689" lon="0.2234876063"><ele>1375.78</ele><time>2016-05-16T09:36:29Z</time></trkpt><trkpt lat="43.0160911940" lon="0.2235870156"><ele>1378.67</ele><time>2016-05-16T09:36:43Z</time></trkpt><trkpt lat="43.0160768609" lon="0.2237004228"><ele>1380.59</ele><time>2016-05-16T09:36:55Z</time></trkpt><trkpt lat="43.0160381366" lon="0.2237885166"><ele>1382.03</ele><time>2016-05-16T09:37:09Z</time></trkpt><trkpt lat="43.0160022620" lon="0.2238983195"><ele>1383.96</ele><time>2016-05-16T09:37:23Z</time></trkpt><trkpt lat="43.0159707461" lon="0.2239692304"><ele>1384.92</ele><time>2016-05-16T09:37:34Z</time></trkpt><trkpt lat="43.0159327760" lon="0.2240956295"><ele>1385.88</ele><time>2016-05-16T09:37:48Z</time></trkpt><trkpt lat="43.0159049481" lon="0.2242068574"><ele>1387.32</ele><time>2016-05-16T09:38:01Z</time></trkpt><trkpt lat="43.0158975720" lon="0.2242582384"><ele>1389.24</ele><time>2016-05-16T09:38:13Z</time></trkpt><trkpt lat="43.0158945546" lon="0.2242619265"><ele>1389.24</ele><time>2016-05-16T09:38:37Z</time></trkpt><trkpt lat="43.0158925429" lon="0.2242907602"><ele>1389.24</ele><time>2016-05-16T09:38:57Z</time></trkpt><trkpt lat="43.0159005057" lon="0.2243133914"><ele>1389.72</ele><time>2016-05-16T09:39:08Z</time></trkpt><trkpt lat="43.0158984940" lon="0.2243139781"><ele>1389.24</ele><time>2016-05-16T09:39:12Z</time></trkpt><trkpt lat="43.0158075504" lon="0.2244141418"><ele>1388.28</ele><time>2016-05-16T09:39:19Z</time></trkpt><trkpt lat="43.0155192129" lon="0.2246700414"><ele>1385.88</ele><time>2016-05-16T09:39:30Z</time></trkpt><trkpt lat="43.0153141078" lon="0.2248867135"><ele>1384.44</ele><time>2016-05-16T09:39:41Z</time></trkpt><trkpt lat="43.0150956754" lon="0.2250887174"><ele>1383.96</ele><time>2016-05-16T09:39:52Z</time></trkpt><trkpt lat="43.0150542688" lon="0.2251640707"><ele>1383.96</ele><time>2016-05-16T09:39:55Z</time></trkpt><trkpt lat="43.0150316376" lon="0.2252010349"><ele>1384.92</ele><time>2016-05-16T09:39:57Z</time></trkpt><trkpt lat="43.0148397759" lon="0.2253975067"><ele>1384.44</ele><time>2016-05-16T09:40:07Z</time></trkpt><trkpt lat="43.0147046596" lon="0.2255739458"><ele>1384.44</ele><time>2016-05-16T09:40:19Z</time></trkpt><trkpt lat="43.0146741495" lon="0.2256041206"><ele>1383.47</ele><time>2016-05-16T09:40:22Z</time></trkpt><trkpt lat="43.0146444775" lon="0.2256658114"><ele>1382.51</ele><time>2016-05-16T09:40:32Z</time></trkpt><trkpt lat="43.0145498458" lon="0.2257559169"><ele>1380.59</ele><time>2016-05-16T09:40:38Z</time></trkpt><trkpt lat="43.0145236105" lon="0.2258030232"><ele>1380.11</ele><time>2016-05-16T09:40:41Z</time></trkpt><trkpt lat="43.0145043321" lon="0.2258388139"><ele>1379.63</ele><time>2016-05-16T09:40:52Z</time></trkpt><trkpt lat="43.0144796893" lon="0.2258861717"><ele>1379.63</ele><time>2016-05-16T09:41:01Z</time></trkpt><trkpt lat="43.0143942777" lon="0.2260039374"><ele>1378.67</ele><time>2016-05-16T09:41:09Z</time></trkpt><trkpt lat="43.0142394640" lon="0.2262583282"><ele>1378.19</ele><time>2016-05-16T09:41:22Z</time></trkpt><trkpt lat="43.0140762683" lon="0.2264884114"><ele>1376.26</ele><time>2016-05-16T09:41:33Z</time></trkpt><trkpt lat="43.0139626935" lon="0.2266353462"><ele>1377.23</ele><time>2016-05-16T09:41:42Z</time></trkpt><trkpt lat="43.0138317682" lon="0.2267625835"><ele>1377.23</ele><time>2016-05-16T09:41:53Z</time></trkpt><trkpt lat="43.0136065464" lon="0.2269101888"><ele>1376.26</ele><time>2016-05-16T09:42:05Z</time></trkpt><trkpt lat="43.0134258326" lon="0.2270516753"><ele>1375.78</ele><time>2016-05-16T09:42:15Z</time></trkpt><trkpt lat="43.0132472981" lon="0.2272338979"><ele>1376.75</ele><time>2016-05-16T09:42:27Z</time></trkpt><trkpt lat="43.0130671710" lon="0.2273844369"><ele>1376.75</ele><time>2016-05-16T09:42:38Z</time></trkpt><trkpt lat="43.0129266065" lon="0.2275600377"><ele>1377.71</ele><time>2016-05-16T09:42:50Z</time></trkpt><trkpt lat="43.0127541907" lon="0.2277928870"><ele>1379.15</ele><time>2016-05-16T09:43:03Z</time></trkpt><trkpt lat="43.0126259476" lon="0.2279865090"><ele>1380.11</ele><time>2016-05-16T09:43:15Z</time></trkpt><trkpt lat="43.0124111194" lon="0.2282195259"><ele>1381.07</ele><time>2016-05-16T09:43:29Z</time></trkpt><trkpt lat="43.0122436490" lon="0.2283916064"><ele>1381.55</ele><time>2016-05-16T09:43:41Z</time></trkpt><trkpt lat="43.0122329202" lon="0.2284077834"><ele>1382.03</ele><time>2016-05-16T09:43:42Z</time></trkpt><trkpt lat="43.0120834708" lon="0.2285403013"><ele>1382.03</ele><time>2016-05-16T09:43:51Z</time></trkpt><trkpt lat="43.0119757634" lon="0.2287895791"><ele>1382.51</ele><time>2016-05-16T09:44:03Z</time></trkpt><trkpt lat="43.0119489413" lon="0.2289013937"><ele>1382.03</ele><time>2016-05-16T09:44:08Z</time></trkpt><trkpt lat="43.0118594225" lon="0.2290954348"><ele>1381.07</ele><time>2016-05-16T09:44:21Z</time></trkpt><trkpt lat="43.0118684750" lon="0.2291140426"><ele>1381.07</ele><time>2016-05-16T09:44:31Z</time></trkpt><trkpt lat="43.0118548963" lon="0.2291557845"><ele>1381.07</ele><time>2016-05-16T09:44:44Z</time></trkpt><trkpt lat="43.0118966382" lon="0.2291507553"><ele>1381.07</ele><time>2016-05-16T09:45:00Z</time></trkpt><trkpt lat="43.0118883401" lon="0.2291481569"><ele>1381.55</ele><time>2016-05-16T09:45:21Z</time></trkpt><trkpt lat="43.0118934531" lon="0.2291323151"><ele>1380.59</ele><time>2016-05-16T09:45:27Z</time></trkpt><trkpt lat="43.0119128991" lon="0.2291529346"><ele>1381.07</ele><time>2016-05-16T09:45:40Z</time></trkpt><trkpt lat="43.0119086243" lon="0.2291559521"><ele>1380.11</ele><time>2016-05-16T09:46:00Z</time></trkpt><trkpt lat="43.0119086243" lon="0.2291562874"><ele>1380.59</ele><time>2016-05-16T09:46:13Z</time></trkpt><trkpt lat="43.0119078699" lon="0.2291541919"><ele>1380.59</ele><time>2016-05-16T09:46:30Z</time></trkpt><trkpt lat="43.0119049363" lon="0.2291517612"><ele>1381.07</ele><time>2016-05-16T09:46:38Z</time></trkpt><trkpt lat="43.0119009130" lon="0.2291570418"><ele>1382.03</ele><time>2016-05-16T09:46:50Z</time></trkpt><trkpt lat="43.0119002424" lon="0.2291560359"><ele>1381.55</ele><time>2016-05-16T09:47:05Z</time></trkpt><trkpt lat="43.0118922796" lon="0.2291564550"><ele>1381.07</ele><time>2016-05-16T09:47:19Z</time></trkpt><trkpt lat="43.0118858255" lon="0.2291380148"><ele>1380.11</ele><time>2016-05-16T09:47:40Z</time></trkpt><trkpt lat="43.0118721630" lon="0.2291167248"><ele>1381.55</ele><time>2016-05-16T09:47:51Z</time></trkpt><trkpt lat="43.0118829757" lon="0.2291132882"><ele>1380.59</ele><time>2016-05-16T09:48:12Z</time></trkpt><trkpt lat="43.0118919443" lon="0.2291111089"><ele>1381.55</ele><time>2016-05-16T09:48:35Z</time></trkpt><trkpt lat="43.0118913576" lon="0.2291108575"><ele>1371.94</ele><time>2016-05-16T09:48:39Z</time></trkpt><trkpt lat="43.0118912738" lon="0.2291106060"><ele>1382.51</ele><time>2016-05-16T09:48:40Z</time></trkpt><trkpt lat="43.0118864961" lon="0.2291045710"><ele>1384.44</ele><time>2016-05-16T09:48:59Z</time></trkpt><trkpt lat="43.0118889268" lon="0.2291076723"><ele>1380.59</ele><time>2016-05-16T09:49:03Z</time></trkpt><trkpt lat="43.0118898489" lon="0.2291090135"><ele>1385.40</ele><time>2016-05-16T09:49:05Z</time></trkpt><trkpt lat="43.0118907709" lon="0.2291100193"><ele>1381.55</ele><time>2016-05-16T09:49:06Z</time></trkpt><trkpt lat="43.0118912738" lon="0.2291109413"><ele>1384.92</ele><time>2016-05-16T09:49:08Z</time></trkpt><trkpt lat="43.0118909385" lon="0.2291139588"><ele>1381.55</ele><time>2016-05-16T09:49:14Z</time></trkpt><trkpt lat="43.0118906870" lon="0.2291144617"><ele>1382.03</ele><time>2016-05-16T09:49:15Z</time></trkpt><trkpt lat="43.0118904356" lon="0.2291152161"><ele>1385.40</ele><time>2016-05-16T09:49:16Z</time></trkpt><trkpt lat="43.0118900165" lon="0.2291157190"><ele>1385.40</ele><time>2016-05-16T09:49:17Z</time></trkpt><trkpt lat="43.0118897650" lon="0.2291158028"><ele>1382.51</ele><time>2016-05-16T09:49:18Z</time></trkpt><trkpt lat="43.0118897650" lon="0.2291165572"><ele>1385.88</ele><time>2016-05-16T09:49:20Z</time></trkpt><trkpt lat="43.0118897650" lon="0.2291173954"><ele>1379.63</ele><time>2016-05-16T09:49:21Z</time></trkpt><trkpt lat="43.0118892621" lon="0.2291191556"><ele>1376.26</ele><time>2016-05-16T09:49:23Z</time></trkpt><trkpt lat="43.0118890107" lon="0.2291194070"><ele>1382.03</ele><time>2016-05-16T09:49:24Z</time></trkpt><trkpt lat="43.0118889268" lon="0.2291203290"><ele>1378.67</ele><time>2016-05-16T09:49:28Z</time></trkpt><trkpt lat="43.0118895974" lon="0.2291203290"><ele>1381.55</ele><time>2016-05-16T09:49:34Z</time></trkpt><trkpt lat="43.0118906870" lon="0.2291200776"><ele>1381.55</ele><time>2016-05-16T09:49:40Z</time></trkpt><trkpt lat="43.0118911900" lon="0.2291228436"><ele>1381.07</ele><time>2016-05-16T09:49:45Z</time></trkpt><trkpt lat="43.0118911900" lon="0.2291230112"><ele>1381.55</ele><time>2016-05-16T09:49:46Z</time></trkpt><trkpt lat="43.0118671339" lon="0.2290963568"><ele>1381.07</ele><time>2016-05-16T09:49:55Z</time></trkpt><trkpt lat="43.0118684750" lon="0.2291111927"><ele>1381.55</ele><time>2016-05-16T09:50:04Z</time></trkpt><trkpt lat="43.0118571594" lon="0.2291349135"><ele>1381.07</ele><time>2016-05-16T09:50:14Z</time></trkpt><trkpt lat="43.0118553154" lon="0.2291333210"><ele>1381.07</ele><time>2016-05-16T09:50:32Z</time></trkpt><trkpt lat="43.0118559022" lon="0.2291383501"><ele>1381.55</ele><time>2016-05-16T09:50:44Z</time></trkpt><trkpt lat="43.0118622724" lon="0.2291417029"><ele>1381.07</ele><time>2016-05-16T09:50:53Z</time></trkpt><trkpt lat="43.0118941236" lon="0.2291163057"><ele>1381.07</ele><time>2016-05-16T09:51:03Z</time></trkpt><trkpt lat="43.0118920282" lon="0.2291253582"><ele>1381.55</ele><time>2016-05-16T09:51:07Z</time></trkpt><trkpt lat="43.0118876696" lon="0.2291029785"><ele>1382.03</ele><time>2016-05-16T09:51:18Z</time></trkpt><trkpt lat="43.0118782818" lon="0.2291151322"><ele>1381.07</ele><time>2016-05-16T09:51:22Z</time></trkpt><trkpt lat="43.0118775275" lon="0.2290878911"><ele>1382.03</ele><time>2016-05-16T09:51:25Z</time></trkpt><trkpt lat="43.0119096301" lon="0.2289679460"><ele>1382.51</ele><time>2016-05-16T09:51:33Z</time></trkpt><trkpt lat="43.0120895058" lon="0.2286123857"><ele>1382.99</ele><time>2016-05-16T09:51:45Z</time></trkpt><trkpt lat="43.0122489296" lon="0.2281444240"><ele>1381.07</ele><time>2016-05-16T09:51:58Z</time></trkpt><trkpt lat="43.0121620093" lon="0.2277534083"><ele>1380.59</ele><time>2016-05-16T09:52:09Z</time></trkpt><trkpt lat="43.0121976323" lon="0.2274200600"><ele>1379.15</ele><time>2016-05-16T09:52:19Z</time></trkpt><trkpt lat="43.0122262985" lon="0.2273180522"><ele>1378.19</ele><time>2016-05-16T09:52:21Z</time></trkpt><trkpt lat="43.0122778472" lon="0.2271155454"><ele>1377.23</ele><time>2016-05-16T09:52:25Z</time></trkpt><trkpt lat="43.0122974608" lon="0.2270628233"><ele>1376.75</ele><time>2016-05-16T09:52:26Z</time></trkpt><trkpt lat="43.0123118777" lon="0.2270016354"><ele>1375.30</ele><time>2016-05-16T09:52:27Z</time></trkpt><trkpt lat="43.0123371910" lon="0.2268602327"><ele>1373.86</ele><time>2016-05-16T09:52:29Z</time></trkpt><trkpt lat="43.0123402085" lon="0.2267936803"><ele>1373.86</ele><time>2016-05-16T09:52:30Z</time></trkpt><trkpt lat="43.0123404600" lon="0.2267365996"><ele>1373.38</ele><time>2016-05-16T09:52:31Z</time></trkpt><trkpt lat="43.0123648513" lon="0.2262978908"><ele>1371.46</ele><time>2016-05-16T09:52:41Z</time></trkpt><trkpt lat="43.0123983789" lon="0.2257934678"><ele>1368.09</ele><time>2016-05-16T09:52:52Z</time></trkpt><trkpt lat="43.0124107003" lon="0.2253131848"><ele>1366.65</ele><time>2016-05-16T09:53:04Z</time></trkpt><trkpt lat="43.0124008097" lon="0.2248477377"><ele>1366.17</ele><time>2016-05-16T09:53:16Z</time></trkpt><trkpt lat="43.0123799387" lon="0.2244171593"><ele>1365.69</ele><time>2016-05-16T09:53:28Z</time></trkpt><trkpt lat="43.0124044977" lon="0.2239546459"><ele>1362.33</ele><time>2016-05-16T09:53:38Z</time></trkpt><trkpt lat="43.0124024022" lon="0.2236176934"><ele>1360.88</ele><time>2016-05-16T09:53:47Z</time></trkpt><trkpt lat="43.0123977922" lon="0.2236000914"><ele>1360.88</ele><time>2016-05-16T09:53:48Z</time></trkpt><trkpt lat="43.0124014802" lon="0.2235766221"><ele>1360.40</ele><time>2016-05-16T09:53:49Z</time></trkpt><trkpt lat="43.0124134663" lon="0.2235513087"><ele>1360.40</ele><time>2016-05-16T09:53:50Z</time></trkpt><trkpt lat="43.0124225188" lon="0.2235244028"><ele>1359.92</ele><time>2016-05-16T09:53:51Z</time></trkpt><trkpt lat="43.0124554597" lon="0.2234292682"><ele>1357.52</ele><time>2016-05-16T09:53:54Z</time></trkpt><trkpt lat="43.0124601535" lon="0.2233817428"><ele>1357.04</ele><time>2016-05-16T09:53:55Z</time></trkpt><trkpt lat="43.0125025660" lon="0.2229725383"><ele>1353.67</ele><time>2016-05-16T09:54:07Z</time></trkpt><trkpt lat="43.0125442240" lon="0.2226619888"><ele>1352.23</ele><time>2016-05-16T09:54:17Z</time></trkpt><trkpt lat="43.0126016401" lon="0.2223400399"><ele>1351.75</ele><time>2016-05-16T09:54:28Z</time></trkpt><trkpt lat="43.0126059148" lon="0.2223207615"><ele>1351.27</ele><time>2016-05-16T09:54:29Z</time></trkpt><trkpt lat="43.0126076750" lon="0.2223043330"><ele>1351.27</ele><time>2016-05-16T09:54:30Z</time></trkpt><trkpt lat="43.0126101896" lon="0.2222532872"><ele>1351.75</ele><time>2016-05-16T09:54:36Z</time></trkpt><trkpt lat="43.0126208346" lon="0.2222046722"><ele>1352.23</ele><time>2016-05-16T09:54:38Z</time></trkpt><trkpt lat="43.0127213337" lon="0.2218687255"><ele>1347.43</ele><time>2016-05-16T09:54:48Z</time></trkpt><trkpt lat="43.0127857067" lon="0.2216395643"><ele>1344.54</ele><time>2016-05-16T09:54:53Z</time></trkpt><trkpt lat="43.0128641613" lon="0.2212957386"><ele>1341.18</ele><time>2016-05-16T09:55:01Z</time></trkpt><trkpt lat="43.0129489023" lon="0.2210871968"><ele>1341.18</ele><time>2016-05-16T09:55:10Z</time></trkpt><trkpt lat="43.0129795801" lon="0.2209440339"><ele>1340.70</ele><time>2016-05-16T09:55:16Z</time></trkpt><trkpt lat="43.0130058154" lon="0.2206864581"><ele>1340.70</ele><time>2016-05-16T09:55:23Z</time></trkpt><trkpt lat="43.0130381696" lon="0.2205935027"><ele>1340.22</ele><time>2016-05-16T09:55:26Z</time></trkpt><trkpt lat="43.0130515806" lon="0.2205278724"><ele>1339.73</ele><time>2016-05-16T09:55:28Z</time></trkpt><trkpt lat="43.0130668357" lon="0.2202927601"><ele>1337.33</ele><time>2016-05-16T09:55:34Z</time></trkpt><trkpt lat="43.0131163727" lon="0.2201125491"><ele>1335.89</ele><time>2016-05-16T09:55:38Z</time></trkpt><trkpt lat="43.0132342223" lon="0.2197855711"><ele>1336.37</ele><time>2016-05-16T09:55:51Z</time></trkpt><trkpt lat="43.0132782273" lon="0.2197180130"><ele>1335.89</ele><time>2016-05-16T09:55:55Z</time></trkpt><trkpt lat="43.0133086536" lon="0.2196053602"><ele>1334.45</ele><time>2016-05-16T09:56:00Z</time></trkpt><trkpt lat="43.0133093242" lon="0.2195238043"><ele>1334.93</ele><time>2016-05-16T09:56:06Z</time></trkpt><trkpt lat="43.0133441929" lon="0.2193216328"><ele>1333.97</ele><time>2016-05-16T09:56:15Z</time></trkpt><trkpt lat="43.0133576039" lon="0.2192441002"><ele>1333.49</ele><time>2016-05-16T09:56:23Z</time></trkpt><trkpt lat="43.0134057160" lon="0.2189609595"><ele>1333.01</ele><time>2016-05-16T09:56:32Z</time></trkpt><trkpt lat="43.0134297721" lon="0.2187436167"><ele>1331.08</ele><time>2016-05-16T09:56:44Z</time></trkpt><trkpt lat="43.0134348851" lon="0.2187394258"><ele>1331.56</ele><time>2016-05-16T09:57:02Z</time></trkpt><trkpt lat="43.0134239886" lon="0.2187431976"><ele>1331.08</ele><time>2016-05-16T09:57:19Z</time></trkpt><trkpt lat="43.0134271737" lon="0.2187483944"><ele>1331.08</ele><time>2016-05-16T09:57:21Z</time></trkpt><trkpt lat="43.0134485476" lon="0.2186285332"><ele>1331.08</ele><time>2016-05-16T09:57:26Z</time></trkpt><trkpt lat="43.0134896189" lon="0.2183945943"><ele>1327.24</ele><time>2016-05-16T09:57:32Z</time></trkpt><trkpt lat="43.0135013536" lon="0.2183655929"><ele>1327.24</ele><time>2016-05-16T09:57:33Z</time></trkpt><trkpt lat="43.0135270022" lon="0.2183056623"><ele>1325.31</ele><time>2016-05-16T09:57:35Z</time></trkpt><trkpt lat="43.0135748629" lon="0.2182039898"><ele>1321.95</ele><time>2016-05-16T09:57:38Z</time></trkpt><trkpt lat="43.0136392359" lon="0.2180718072"><ele>1320.03</ele><time>2016-05-16T09:57:42Z</time></trkpt><trkpt lat="43.0137191154" lon="0.2179454919"><ele>1316.18</ele><time>2016-05-16T09:57:46Z</time></trkpt><trkpt lat="43.0137720052" lon="0.2178190928"><ele>1312.34</ele><time>2016-05-16T09:57:49Z</time></trkpt><trkpt lat="43.0138417426" lon="0.2176387142"><ele>1308.49</ele><time>2016-05-16T09:57:52Z</time></trkpt><trkpt lat="43.0138616916" lon="0.2175741736"><ele>1307.53</ele><time>2016-05-16T09:57:53Z</time></trkpt><trkpt lat="43.0138778687" lon="0.2175056934"><ele>1306.09</ele><time>2016-05-16T09:57:54Z</time></trkpt><trkpt lat="43.0138953030" lon="0.2174310945"><ele>1304.65</ele><time>2016-05-16T09:57:55Z</time></trkpt><trkpt lat="43.0139204487" lon="0.2173481137"><ele>1302.72</ele><time>2016-05-16T09:57:56Z</time></trkpt><trkpt lat="43.0140498653" lon="0.2169652283"><ele>1300.80</ele><time>2016-05-16T09:58:03Z</time></trkpt><trkpt lat="43.0140576605" lon="0.2169369813"><ele>1301.28</ele><time>2016-05-16T09:58:04Z</time></trkpt><trkpt lat="43.0140657909" lon="0.2169183735"><ele>1301.28</ele><time>2016-05-16T09:58:05Z</time></trkpt><trkpt lat="43.0140752625" lon="0.2168995980"><ele>1301.28</ele><time>2016-05-16T09:58:06Z</time></trkpt><trkpt lat="43.0140867457" lon="0.2168762125"><ele>1301.28</ele><time>2016-05-16T09:58:07Z</time></trkpt><trkpt lat="43.0141010787" lon="0.2168496419"><ele>1300.80</ele><time>2016-05-16T09:58:08Z</time></trkpt><trkpt lat="43.0141184293" lon="0.2168167010"><ele>1301.28</ele><time>2016-05-16T09:58:09Z</time></trkpt><trkpt lat="43.0141370371" lon="0.2167784795"><ele>1300.80</ele><time>2016-05-16T09:58:10Z</time></trkpt><trkpt lat="43.0142109655" lon="0.2166041359"><ele>1301.28</ele><time>2016-05-16T09:58:16Z</time></trkpt><trkpt lat="43.0142268073" lon="0.2165824268"><ele>1300.80</ele><time>2016-05-16T09:58:17Z</time></trkpt><trkpt lat="43.0142454151" lon="0.2165597957"><ele>1300.80</ele><time>2016-05-16T09:58:18Z</time></trkpt><trkpt lat="43.0143317487" lon="0.2164783236"><ele>1301.76</ele><time>2016-05-16T09:58:23Z</time></trkpt><trkpt lat="43.0143409688" lon="0.2164694387"><ele>1301.76</ele><time>2016-05-16T09:58:24Z</time></trkpt><trkpt lat="43.0143525358" lon="0.2164593805"><ele>1301.76</ele><time>2016-05-16T09:58:25Z</time></trkpt><trkpt lat="43.0143702216" lon="0.2164552733"><ele>1301.76</ele><time>2016-05-16T09:58:26Z</time></trkpt><trkpt lat="43.0143850576" lon="0.2164460532"><ele>1301.28</ele><time>2016-05-16T09:58:27Z</time></trkpt><trkpt lat="43.0144031625" lon="0.2164327260"><ele>1301.28</ele><time>2016-05-16T09:58:28Z</time></trkpt><trkpt lat="43.0146643426" lon="0.2162654232"><ele>1300.80</ele><time>2016-05-16T09:58:39Z</time></trkpt><trkpt lat="43.0148349144" lon="0.2160826139"><ele>1300.32</ele><time>2016-05-16T09:58:48Z</time></trkpt><trkpt lat="43.0148907378" lon="0.2160064224"><ele>1299.84</ele><time>2016-05-16T09:58:52Z</time></trkpt><trkpt lat="43.0149450526" lon="0.2158983797"><ele>1298.88</ele><time>2016-05-16T09:59:00Z</time></trkpt><trkpt lat="43.0150572862" lon="0.2156680450"><ele>1297.92</ele><time>2016-05-16T09:59:12Z</time></trkpt><trkpt lat="43.0150691886" lon="0.2156520355"><ele>1297.92</ele><time>2016-05-16T09:59:14Z</time></trkpt><trkpt lat="43.0151211563" lon="0.2155651990"><ele>1298.40</ele><time>2016-05-16T09:59:25Z</time></trkpt><trkpt lat="43.0151469726" lon="0.2155388799"><ele>1299.36</ele><time>2016-05-16T09:59:27Z</time></trkpt><trkpt lat="43.0151974317" lon="0.2154755965"><ele>1297.92</ele><time>2016-05-16T09:59:36Z</time></trkpt><trkpt lat="43.0152178835" lon="0.2154222038"><ele>1297.92</ele><time>2016-05-16T09:59:40Z</time></trkpt><trkpt lat="43.0153814983" lon="0.2150477841"><ele>1295.51</ele><time>2016-05-16T09:59:51Z</time></trkpt><trkpt lat="43.0155145191" lon="0.2146929782"><ele>1295.51</ele><time>2016-05-16T10:00:03Z</time></trkpt><trkpt lat="43.0157285091" lon="0.2142845280"><ele>1295.51</ele><time>2016-05-16T10:00:16Z</time></trkpt><trkpt lat="43.0159453489" lon="0.2139334101"><ele>1298.40</ele><time>2016-05-16T10:00:27Z</time></trkpt><trkpt lat="43.0160362087" lon="0.2137461584"><ele>1299.36</ele><time>2016-05-16T10:00:33Z</time></trkpt><trkpt lat="43.0160976481" lon="0.2135490160"><ele>1299.84</ele><time>2016-05-16T10:00:39Z</time></trkpt><trkpt lat="43.0162226222" lon="0.2130155917"><ele>1298.40</ele><time>2016-05-16T10:00:54Z</time></trkpt><trkpt lat="43.0164474249" lon="0.2127305232"><ele>1300.32</ele><time>2016-05-16T10:01:04Z</time></trkpt><trkpt lat="43.0166368559" lon="0.2124259248"><ele>1300.80</ele><time>2016-05-16T10:01:16Z</time></trkpt><trkpt lat="43.0166970380" lon="0.2123069856"><ele>1301.28</ele><time>2016-05-16T10:01:20Z</time></trkpt><trkpt lat="43.0167915020" lon="0.2119288780"><ele>1299.36</ele><time>2016-05-16T10:01:29Z</time></trkpt><trkpt lat="43.0169422086" lon="0.2112079505"><ele>1296.48</ele><time>2016-05-16T10:01:40Z</time></trkpt><trkpt lat="43.0169474892" lon="0.2111181803"><ele>1295.51</ele><time>2016-05-16T10:01:41Z</time></trkpt><trkpt lat="43.0169503391" lon="0.2110389713"><ele>1295.99</ele><time>2016-05-16T10:01:42Z</time></trkpt><trkpt lat="43.0169681087" lon="0.2107241470"><ele>1296.48</ele><time>2016-05-16T10:01:48Z</time></trkpt><trkpt lat="43.0169859622" lon="0.2106523141"><ele>1295.99</ele><time>2016-05-16T10:01:50Z</time></trkpt><trkpt lat="43.0169911589" lon="0.2105974127"><ele>1295.99</ele><time>2016-05-16T10:01:51Z</time></trkpt><trkpt lat="43.0170012172" lon="0.2105439361"><ele>1296.48</ele><time>2016-05-16T10:01:52Z</time></trkpt><trkpt lat="43.0170317274" lon="0.2101841010"><ele>1296.48</ele><time>2016-05-16T10:01:58Z</time></trkpt><trkpt lat="43.0170370080" lon="0.2101238351"><ele>1296.48</ele><time>2016-05-16T10:01:59Z</time></trkpt><trkpt lat="43.0170365050" lon="0.2100714482"><ele>1296.48</ele><time>2016-05-16T10:02:00Z</time></trkpt><trkpt lat="43.0170331523" lon="0.2100271918"><ele>1296.96</ele><time>2016-05-16T10:02:01Z</time></trkpt><trkpt lat="43.0170310568" lon="0.2099860366"><ele>1296.96</ele><time>2016-05-16T10:02:02Z</time></trkpt><trkpt lat="43.0170176458" lon="0.2095509320"><ele>1299.36</ele><time>2016-05-16T10:02:12Z</time></trkpt><trkpt lat="43.0169957690" lon="0.2094455715"><ele>1299.36</ele><time>2016-05-16T10:02:14Z</time></trkpt><trkpt lat="43.0169712100" lon="0.2093960345"><ele>1299.84</ele><time>2016-05-16T10:02:15Z</time></trkpt><trkpt lat="43.0169567093" lon="0.2093454916"><ele>1300.32</ele><time>2016-05-16T10:02:16Z</time></trkpt><trkpt lat="43.0169319827" lon="0.2087823953"><ele>1298.40</ele><time>2016-05-16T10:02:26Z</time></trkpt><trkpt lat="43.0169203319" lon="0.2086498775"><ele>1297.44</ele><time>2016-05-16T10:02:28Z</time></trkpt><trkpt lat="43.0169560388" lon="0.2084032819"><ele>1294.07</ele><time>2016-05-16T10:02:32Z</time></trkpt><trkpt lat="43.0170618184" lon="0.2080858592"><ele>1291.19</ele><time>2016-05-16T10:02:37Z</time></trkpt><trkpt lat="43.0171026383" lon="0.2079755533"><ele>1289.75</ele><time>2016-05-16T10:02:39Z</time></trkpt><trkpt lat="43.0171718728" lon="0.2077880502"><ele>1286.38</ele><time>2016-05-16T10:02:43Z</time></trkpt><trkpt lat="43.0171914026" lon="0.2077480685"><ele>1286.38</ele><time>2016-05-16T10:02:44Z</time></trkpt><trkpt lat="43.0172221642" lon="0.2076301351"><ele>1285.42</ele><time>2016-05-16T10:02:47Z</time></trkpt><trkpt lat="43.0172177218" lon="0.2075880580"><ele>1285.42</ele><time>2016-05-16T10:02:48Z</time></trkpt><trkpt lat="43.0172157940" lon="0.2075495012"><ele>1285.90</ele><time>2016-05-16T10:02:49Z</time></trkpt><trkpt lat="43.0172183085" lon="0.2075158898"><ele>1285.90</ele><time>2016-05-16T10:02:50Z</time></trkpt><trkpt lat="43.0172193144" lon="0.2074890677"><ele>1285.90</ele><time>2016-05-16T10:02:51Z</time></trkpt><trkpt lat="43.0172200687" lon="0.2074665204"><ele>1286.38</ele><time>2016-05-16T10:02:52Z</time></trkpt><trkpt lat="43.0173157901" lon="0.2072100341"><ele>1286.38</ele><time>2016-05-16T10:03:02Z</time></trkpt><trkpt lat="43.0174385011" lon="0.2067994885"><ele>1285.90</ele><time>2016-05-16T10:03:14Z</time></trkpt><trkpt lat="43.0176902935" lon="0.2062845882"><ele>1284.46</ele><time>2016-05-16T10:03:26Z</time></trkpt><trkpt lat="43.0179528147" lon="0.2057905588"><ele>1285.42</ele><time>2016-05-16T10:03:41Z</time></trkpt><trkpt lat="43.0182567425" lon="0.2054478228"><ele>1287.34</ele><time>2016-05-16T10:03:54Z</time></trkpt><trkpt lat="43.0185404699" lon="0.2050859760"><ele>1290.23</ele><time>2016-05-16T10:04:08Z</time></trkpt><trkpt lat="43.0187035818" lon="0.2049684618"><ele>1288.78</ele><time>2016-05-16T10:04:23Z</time></trkpt><trkpt lat="43.0186985526" lon="0.2049728204"><ele>1289.27</ele><time>2016-05-16T10:04:43Z</time></trkpt><trkpt lat="43.0186998937" lon="0.2049708087"><ele>1289.27</ele><time>2016-05-16T10:05:07Z</time></trkpt><trkpt lat="43.0187024921" lon="0.2049691323"><ele>1289.27</ele><time>2016-05-16T10:05:33Z</time></trkpt><trkpt lat="43.0187033303" lon="0.2049743291"><ele>1289.27</ele><time>2016-05-16T10:05:55Z</time></trkpt><trkpt lat="43.0186960381" lon="0.2049704734"><ele>1289.27</ele><time>2016-05-16T10:06:16Z</time></trkpt><trkpt lat="43.0186974630" lon="0.2049729042"><ele>1288.78</ele><time>2016-05-16T10:06:38Z</time></trkpt><trkpt lat="43.0186981335" lon="0.2049759217"><ele>1288.78</ele><time>2016-05-16T10:06:50Z</time></trkpt><trkpt lat="43.0187059287" lon="0.2049652766"><ele>1288.78</ele><time>2016-05-16T10:06:51Z</time></trkpt><trkpt lat="43.0187351815" lon="0.2049460821"><ele>1288.78</ele><time>2016-05-16T10:06:53Z</time></trkpt><trkpt lat="43.0187528674" lon="0.2049364429"><ele>1288.78</ele><time>2016-05-16T10:06:54Z</time></trkpt><trkpt lat="43.0189949367" lon="0.2047884185"><ele>1287.82</ele><time>2016-05-16T10:07:03Z</time></trkpt><trkpt lat="43.0192038137" lon="0.2042949758"><ele>1287.34</ele><time>2016-05-16T10:07:14Z</time></trkpt><trkpt lat="43.0192256905" lon="0.2042385656"><ele>1286.38</ele><time>2016-05-16T10:07:15Z</time></trkpt><trkpt lat="43.0193375051" lon="0.2039659861"><ele>1284.46</ele><time>2016-05-16T10:07:20Z</time></trkpt><trkpt lat="43.0193599686" lon="0.2038999368"><ele>1283.98</ele><time>2016-05-16T10:07:21Z</time></trkpt><trkpt lat="43.0193883833" lon="0.2038311213"><ele>1283.02</ele><time>2016-05-16T10:07:22Z</time></trkpt><trkpt lat="43.0194229167" lon="0.2037632279"><ele>1282.06</ele><time>2016-05-16T10:07:23Z</time></trkpt><trkpt lat="43.0194587912" lon="0.2036966756"><ele>1281.09</ele><time>2016-05-16T10:07:24Z</time></trkpt><trkpt lat="43.0195260979" lon="0.2035654150"><ele>1280.61</ele><time>2016-05-16T10:07:26Z</time></trkpt><trkpt lat="43.0195631459" lon="0.2035068255"><ele>1279.65</ele><time>2016-05-16T10:07:27Z</time></trkpt><trkpt lat="43.0196039658" lon="0.2034571208"><ele>1278.21</ele><time>2016-05-16T10:07:28Z</time></trkpt><trkpt lat="43.0196492281" lon="0.2034137864"><ele>1277.25</ele><time>2016-05-16T10:07:29Z</time></trkpt><trkpt lat="43.0196970887" lon="0.2033784147"><ele>1276.77</ele><time>2016-05-16T10:07:30Z</time></trkpt><trkpt lat="43.0197439436" lon="0.2033492457"><ele>1275.81</ele><time>2016-05-16T10:07:31Z</time></trkpt><trkpt lat="43.0199182034" lon="0.2032645047"><ele>1272.44</ele><time>2016-05-16T10:07:36Z</time></trkpt><trkpt lat="43.0200413335" lon="0.2032192424"><ele>1269.56</ele><time>2016-05-16T10:07:40Z</time></trkpt><trkpt lat="43.0200955644" lon="0.2031621616"><ele>1268.12</ele><time>2016-05-16T10:07:42Z</time></trkpt><trkpt lat="43.0201125797" lon="0.2031196654"><ele>1267.16</ele><time>2016-05-16T10:07:43Z</time></trkpt><trkpt lat="43.0202093907" lon="0.2029190864"><ele>1265.23</ele><time>2016-05-16T10:07:50Z</time></trkpt><trkpt lat="43.0202178564" lon="0.2028951142"><ele>1264.75</ele><time>2016-05-16T10:07:51Z</time></trkpt><trkpt lat="43.0202373862" lon="0.2028411347"><ele>1263.79</ele><time>2016-05-16T10:07:52Z</time></trkpt><trkpt lat="43.0202494562" lon="0.2027887478"><ele>1263.31</ele><time>2016-05-16T10:07:53Z</time></trkpt><trkpt lat="43.0202546529" lon="0.2027449105"><ele>1262.83</ele><time>2016-05-16T10:07:54Z</time></trkpt><trkpt lat="43.0202632025" lon="0.2026993968"><ele>1262.83</ele><time>2016-05-16T10:07:55Z</time></trkpt><trkpt lat="43.0202718358" lon="0.2026552241"><ele>1261.87</ele><time>2016-05-16T10:07:56Z</time></trkpt><trkpt lat="43.0202740151" lon="0.2026049327"><ele>1261.39</ele><time>2016-05-16T10:07:57Z</time></trkpt><trkpt lat="43.0202663038" lon="0.2025536355"><ele>1260.91</ele><time>2016-05-16T10:07:58Z</time></trkpt><trkpt lat="43.0202557426" lon="0.2025015000"><ele>1259.94</ele><time>2016-05-16T10:07:59Z</time></trkpt><trkpt lat="43.0202439241" lon="0.2024418209"><ele>1258.50</ele><time>2016-05-16T10:08:00Z</time></trkpt><trkpt lat="43.0202316027" lon="0.2023792081"><ele>1258.02</ele><time>2016-05-16T10:08:01Z</time></trkpt><trkpt lat="43.0202139169" lon="0.2023215406"><ele>1257.06</ele><time>2016-05-16T10:08:02Z</time></trkpt><trkpt lat="43.0202022661" lon="0.2022759430"><ele>1256.58</ele><time>2016-05-16T10:08:03Z</time></trkpt><trkpt lat="43.0201958958" lon="0.2022386435"><ele>1255.62</ele><time>2016-05-16T10:08:04Z</time></trkpt><trkpt lat="43.0201896932" lon="0.2022054512"><ele>1255.14</ele><time>2016-05-16T10:08:05Z</time></trkpt><trkpt lat="43.0201806407" lon="0.2021712530"><ele>1254.66</ele><time>2016-05-16T10:08:06Z</time></trkpt><trkpt lat="43.0201331992" lon="0.2019887790"><ele>1251.29</ele><time>2016-05-16T10:08:10Z</time></trkpt><trkpt lat="43.0201093107" lon="0.2018643916"><ele>1248.89</ele><time>2016-05-16T10:08:13Z</time></trkpt><trkpt lat="43.0201097298" lon="0.2018244099"><ele>1248.41</ele><time>2016-05-16T10:08:14Z</time></trkpt><trkpt lat="43.0200911220" lon="0.2016091626"><ele>1245.04</ele><time>2016-05-16T10:08:18Z</time></trkpt><trkpt lat="43.0200946424" lon="0.2015302051"><ele>1244.08</ele><time>2016-05-16T10:08:19Z</time></trkpt><trkpt lat="43.0201206263" lon="0.2012893092"><ele>1240.24</ele><time>2016-05-16T10:08:22Z</time></trkpt><trkpt lat="43.0201369710" lon="0.2012106031"><ele>1238.80</ele><time>2016-05-16T10:08:23Z</time></trkpt><trkpt lat="43.0201449338" lon="0.2011274546"><ele>1238.32</ele><time>2016-05-16T10:08:24Z</time></trkpt><trkpt lat="43.0201464426" lon="0.2010382712"><ele>1237.35</ele><time>2016-05-16T10:08:25Z</time></trkpt><trkpt lat="43.0201512203" lon="0.2009459026"><ele>1236.39</ele><time>2016-05-16T10:08:26Z</time></trkpt><trkpt lat="43.0201642122" lon="0.2007482573"><ele>1235.43</ele><time>2016-05-16T10:08:28Z</time></trkpt><trkpt lat="43.0201680679" lon="0.2006505243"><ele>1234.47</ele><time>2016-05-16T10:08:29Z</time></trkpt><trkpt lat="43.0201787129" lon="0.2005589940"><ele>1233.51</ele><time>2016-05-16T10:08:30Z</time></trkpt><trkpt lat="43.0201919563" lon="0.2004713193"><ele>1233.03</ele><time>2016-05-16T10:08:31Z</time></trkpt><trkpt lat="43.0202076305" lon="0.2003897633"><ele>1233.03</ele><time>2016-05-16T10:08:32Z</time></trkpt><trkpt lat="43.0203265697" lon="0.1999760326"><ele>1232.55</ele><time>2016-05-16T10:08:41Z</time></trkpt><trkpt lat="43.0203424953" lon="0.1999537367"><ele>1231.59</ele><time>2016-05-16T10:08:52Z</time></trkpt><trkpt lat="43.0203542300" lon="0.1999486238"><ele>1232.07</ele><time>2016-05-16T10:09:00Z</time></trkpt><trkpt lat="43.0203677248" lon="0.1999368053"><ele>1232.07</ele><time>2016-05-16T10:09:02Z</time></trkpt><trkpt lat="43.0203720834" lon="0.1999159344"><ele>1232.07</ele><time>2016-05-16T10:09:10Z</time></trkpt><trkpt lat="43.0203699041" lon="0.1998959016"><ele>1231.59</ele><time>2016-05-16T10:09:22Z</time></trkpt><trkpt lat="43.0203589238" lon="0.1998935547"><ele>1231.11</ele><time>2016-05-16T10:09:38Z</time></trkpt><trkpt lat="43.0203487817" lon="0.1998944767"><ele>1232.07</ele><time>2016-05-16T10:09:52Z</time></trkpt><trkpt lat="43.0203455128" lon="0.1998962369"><ele>1231.11</ele><time>2016-05-16T10:10:06Z</time></trkpt><trkpt lat="43.0203459319" lon="0.1998938061"><ele>1231.59</ele><time>2016-05-16T10:10:07Z</time></trkpt><trkpt lat="43.0203476921" lon="0.1999149285"><ele>1231.11</ele><time>2016-05-16T10:10:18Z</time></trkpt><trkpt lat="43.0203494523" lon="0.1999286748"><ele>1231.11</ele><time>2016-05-16T10:10:31Z</time></trkpt><trkpt lat="43.0203357060" lon="0.1999333687"><ele>1232.07</ele><time>2016-05-16T10:10:41Z</time></trkpt><trkpt lat="43.0203233007" lon="0.1999195386"><ele>1231.59</ele><time>2016-05-16T10:11:08Z</time></trkpt><trkpt lat="43.0203172658" lon="0.1999161858"><ele>1231.59</ele><time>2016-05-16T10:11:29Z</time></trkpt><trkpt lat="43.0203215405" lon="0.1999088097"><ele>1231.59</ele><time>2016-05-16T10:11:57Z</time></trkpt><trkpt lat="43.0203172658" lon="0.1999327820"><ele>1231.59</ele><time>2016-05-16T10:12:18Z</time></trkpt><trkpt lat="43.0203291681" lon="0.1999295969"><ele>1231.59</ele><time>2016-05-16T10:12:31Z</time></trkpt><trkpt lat="43.0203433335" lon="0.1999487076"><ele>1232.07</ele><time>2016-05-16T10:12:53Z</time></trkpt><trkpt lat="43.0203461833" lon="0.1999411639"><ele>1230.14</ele><time>2016-05-16T10:13:02Z</time></trkpt><trkpt lat="43.0203488655" lon="0.1999452710"><ele>1230.14</ele><time>2016-05-16T10:13:14Z</time></trkpt><trkpt lat="43.0203512125" lon="0.1999508031"><ele>1230.14</ele><time>2016-05-16T10:13:49Z</time></trkpt><trkpt lat="43.0203555711" lon="0.1999501325"><ele>1230.62</ele><time>2016-05-16T10:14:28Z</time></trkpt><trkpt lat="43.0203435011" lon="0.1999521442"><ele>1230.14</ele><time>2016-05-16T10:15:07Z</time></trkpt><trkpt lat="43.0203543138" lon="0.1999507193"><ele>1230.14</ele><time>2016-05-16T10:15:46Z</time></trkpt><trkpt lat="43.0203543138" lon="0.1999594364"><ele>1230.14</ele><time>2016-05-16T10:16:35Z</time></trkpt><trkpt lat="43.0203502905" lon="0.1999549940"><ele>1229.66</ele><time>2016-05-16T10:17:25Z</time></trkpt><trkpt lat="43.0203532241" lon="0.1999463607"><ele>1230.14</ele><time>2016-05-16T10:18:08Z</time></trkpt><trkpt lat="43.0203517154" lon="0.1999462768"><ele>1229.66</ele><time>2016-05-16T10:18:52Z</time></trkpt><trkpt lat="43.0203538109" lon="0.1999470312"><ele>1230.14</ele><time>2016-05-16T10:19:36Z</time></trkpt><trkpt lat="43.0203499552" lon="0.1999512222"><ele>1229.66</ele><time>2016-05-16T10:20:16Z</time></trkpt><trkpt lat="43.0203521345" lon="0.1999559999"><ele>1229.66</ele><time>2016-05-16T10:20:58Z</time></trkpt><trkpt lat="43.0203556549" lon="0.1999591850"><ele>1230.14</ele><time>2016-05-16T10:21:37Z</time></trkpt><trkpt lat="43.0203582533" lon="0.1999556646"><ele>1230.62</ele><time>2016-05-16T10:22:13Z</time></trkpt><trkpt lat="43.0203642882" lon="0.1999625377"><ele>1229.66</ele><time>2016-05-16T10:22:49Z</time></trkpt><trkpt lat="43.0203670543" lon="0.1999515574"><ele>1230.14</ele><time>2016-05-16T10:23:34Z</time></trkpt><trkpt lat="43.0203617737" lon="0.1999577601"><ele>1230.14</ele><time>2016-05-16T10:24:16Z</time></trkpt><trkpt lat="43.0203660484" lon="0.1999442652"><ele>1230.14</ele><time>2016-05-16T10:25:01Z</time></trkpt><trkpt lat="43.0203637015" lon="0.1999421697"><ele>1230.14</ele><time>2016-05-16T10:25:41Z</time></trkpt><trkpt lat="43.0203648750" lon="0.1999455225"><ele>1229.66</ele><time>2016-05-16T10:26:20Z</time></trkpt><trkpt lat="43.0203681439" lon="0.1999462768"><ele>1230.62</ele><time>2016-05-16T10:27:02Z</time></trkpt><trkpt lat="43.0203670543" lon="0.1999474503"><ele>1230.14</ele><time>2016-05-16T10:27:46Z</time></trkpt><trkpt lat="43.0203551520" lon="0.1999555808"><ele>1230.62</ele><time>2016-05-16T10:28:26Z</time></trkpt><trkpt lat="43.0203669704" lon="0.1999503840"><ele>1229.66</ele><time>2016-05-16T10:28:59Z</time></trkpt><trkpt lat="43.0203483626" lon="0.1999550778"><ele>1230.62</ele><time>2016-05-16T10:29:13Z</time></trkpt><trkpt lat="43.0203424115" lon="0.1999556646"><ele>1230.62</ele><time>2016-05-16T10:29:38Z</time></trkpt><trkpt lat="43.0203300063" lon="0.1999543235"><ele>1230.62</ele><time>2016-05-16T10:30:03Z</time></trkpt><trkpt lat="43.0203240551" lon="0.1999535691"><ele>1231.59</ele><time>2016-05-16T10:30:19Z</time></trkpt><trkpt lat="43.0203224625" lon="0.1999409124"><ele>1231.59</ele><time>2016-05-16T10:30:31Z</time></trkpt><trkpt lat="43.0203219596" lon="0.1999441814"><ele>1231.11</ele><time>2016-05-16T10:30:44Z</time></trkpt><trkpt lat="43.0203158408" lon="0.1999460254"><ele>1231.59</ele><time>2016-05-16T10:30:57Z</time></trkpt><trkpt lat="43.0203150865" lon="0.1999148447"><ele>1231.59</ele><time>2016-05-16T10:31:07Z</time></trkpt><trkpt lat="43.0203125719" lon="0.1998054609"><ele>1231.11</ele><time>2016-05-16T10:31:11Z</time></trkpt><trkpt lat="43.0202985741" lon="0.1997332927"><ele>1230.62</ele><time>2016-05-16T10:31:12Z</time></trkpt><trkpt lat="43.0202861689" lon="0.1996474620"><ele>1227.26</ele><time>2016-05-16T10:31:13Z</time></trkpt><trkpt lat="43.0202665552" lon="0.1993348170"><ele>1223.42</ele><time>2016-05-16T10:31:16Z</time></trkpt><trkpt lat="43.0202772841" lon="0.1992346533"><ele>1223.42</ele><time>2016-05-16T10:31:17Z</time></trkpt><trkpt lat="43.0203038547" lon="0.1991468947"><ele>1221.97</ele><time>2016-05-16T10:31:18Z</time></trkpt><trkpt lat="43.0203407351" lon="0.1990791690"><ele>1221.49</ele><time>2016-05-16T10:31:19Z</time></trkpt><trkpt lat="43.0203678925" lon="0.1990297996"><ele>1219.57</ele><time>2016-05-16T10:31:20Z</time></trkpt><trkpt lat="43.0203844886" lon="0.1989919133"><ele>1219.09</ele><time>2016-05-16T10:31:21Z</time></trkpt><trkpt lat="43.0203948822" lon="0.1989623252"><ele>1219.09</ele><time>2016-05-16T10:31:22Z</time></trkpt><trkpt lat="43.0204037670" lon="0.1989386044"><ele>1217.65</ele><time>2016-05-16T10:31:23Z</time></trkpt><trkpt lat="43.0204113107" lon="0.1989187393"><ele>1217.65</ele><time>2016-05-16T10:31:24Z</time></trkpt><trkpt lat="43.0204189382" lon="0.1988958567"><ele>1216.69</ele><time>2016-05-16T10:31:25Z</time></trkpt><trkpt lat="43.0204274878" lon="0.1988682803"><ele>1216.69</ele><time>2016-05-16T10:31:26Z</time></trkpt><trkpt lat="43.0204348639" lon="0.1988422964"><ele>1216.69</ele><time>2016-05-16T10:31:27Z</time></trkpt><trkpt lat="43.0204424914" lon="0.1988168154"><ele>1215.24</ele><time>2016-05-16T10:31:28Z</time></trkpt><trkpt lat="43.0204775278" lon="0.1986905839"><ele>1213.80</ele><time>2016-05-16T10:31:32Z</time></trkpt><trkpt lat="43.0205225386" lon="0.1985624246"><ele>1209.96</ele><time>2016-05-16T10:31:36Z</time></trkpt><trkpt lat="43.0205291603" lon="0.1985339262"><ele>1210.44</ele><time>2016-05-16T10:31:37Z</time></trkpt><trkpt lat="43.0205903482" lon="0.1983156614"><ele>1207.07</ele><time>2016-05-16T10:31:42Z</time></trkpt><trkpt lat="43.0206016637" lon="0.1982640289"><ele>1206.11</ele><time>2016-05-16T10:31:43Z</time></trkpt><trkpt lat="43.0206133984" lon="0.1982114743"><ele>1205.63</ele><time>2016-05-16T10:31:44Z</time></trkpt><trkpt lat="43.0206238758" lon="0.1981610991"><ele>1204.67</ele><time>2016-05-16T10:31:45Z</time></trkpt><trkpt lat="43.0207584053" lon="0.1977960672"><ele>1201.30</ele><time>2016-05-16T10:31:50Z</time></trkpt><trkpt lat="43.0208012369" lon="0.1977188699"><ele>1200.34</ele><time>2016-05-16T10:31:51Z</time></trkpt><trkpt lat="43.0208407156" lon="0.1976582687"><ele>1199.86</ele><time>2016-05-16T10:31:52Z</time></trkpt><trkpt lat="43.0208673701" lon="0.1976241544"><ele>1199.38</ele><time>2016-05-16T10:31:53Z</time></trkpt><trkpt lat="43.0209164042" lon="0.1975641400"><ele>1198.90</ele><time>2016-05-16T10:31:56Z</time></trkpt><trkpt lat="43.0209275521" lon="0.1975401677"><ele>1197.94</ele><time>2016-05-16T10:31:57Z</time></trkpt><trkpt lat="43.0209301505" lon="0.1974932291"><ele>1196.98</ele><time>2016-05-16T10:31:59Z</time></trkpt><trkpt lat="43.0209151469" lon="0.1974667422"><ele>1196.02</ele><time>2016-05-16T10:32:00Z</time></trkpt><trkpt lat="43.0208723154" lon="0.1973840967"><ele>1195.54</ele><time>2016-05-16T10:32:02Z</time></trkpt><trkpt lat="43.0208109599" lon="0.1971595455"><ele>1192.17</ele><time>2016-05-16T10:32:07Z</time></trkpt><trkpt lat="43.0208376981" lon="0.1970092580"><ele>1187.85</ele><time>2016-05-16T10:32:10Z</time></trkpt><trkpt lat="43.0208671186" lon="0.1968661789"><ele>1184.96</ele><time>2016-05-16T10:32:14Z</time></trkpt><trkpt lat="43.0208873190" lon="0.1968115289"><ele>1183.52</ele><time>2016-05-16T10:32:16Z</time></trkpt><trkpt lat="43.0209102016" lon="0.1968033984"><ele>1181.60</ele><time>2016-05-16T10:32:19Z</time></trkpt><trkpt lat="43.0209316593" lon="0.1968075894"><ele>1180.64</ele><time>2016-05-16T10:32:20Z</time></trkpt><trkpt lat="43.0209511891" lon="0.1968038175"><ele>1179.67</ele><time>2016-05-16T10:32:21Z</time></trkpt><trkpt lat="43.0209640134" lon="0.1967894007"><ele>1179.19</ele><time>2016-05-16T10:32:22Z</time></trkpt><trkpt lat="43.0209774245" lon="0.1967564598"><ele>1177.27</ele><time>2016-05-16T10:32:24Z</time></trkpt><trkpt lat="43.0209926795" lon="0.1967371814"><ele>1176.79</ele><time>2016-05-16T10:32:25Z</time></trkpt><trkpt lat="43.0210104492" lon="0.1967256144"><ele>1173.91</ele><time>2016-05-16T10:32:26Z</time></trkpt><trkpt lat="43.0210240278" lon="0.1967275422"><ele>1173.91</ele><time>2016-05-16T10:32:27Z</time></trkpt><trkpt lat="43.0210351758" lon="0.1967396121"><ele>1173.43</ele><time>2016-05-16T10:32:28Z</time></trkpt><trkpt lat="43.0210468266" lon="0.1967620756"><ele>1172.47</ele><time>2016-05-16T10:32:29Z</time></trkpt><trkpt lat="43.0210593157" lon="0.1967940107"><ele>1171.50</ele><time>2016-05-16T10:32:30Z</time></trkpt><trkpt lat="43.0210994650" lon="0.1968997065"><ele>1168.62</ele><time>2016-05-16T10:32:34Z</time></trkpt><trkpt lat="43.0211170670" lon="0.1969290432"><ele>1168.14</ele><time>2016-05-16T10:32:35Z</time></trkpt><trkpt lat="43.0212337431" lon="0.1970367506"><ele>1163.81</ele><time>2016-05-16T10:32:39Z</time></trkpt><trkpt lat="43.0213673506" lon="0.1971260179"><ele>1161.41</ele><time>2016-05-16T10:32:42Z</time></trkpt><trkpt lat="43.0214831885" lon="0.1972568594"><ele>1158.05</ele><time>2016-05-16T10:32:45Z</time></trkpt><trkpt lat="43.0216005351" lon="0.1973887067"><ele>1154.68</ele><time>2016-05-16T10:32:49Z</time></trkpt><trkpt lat="43.0216225795" lon="0.1973970886"><ele>1154.68</ele><time>2016-05-16T10:32:50Z</time></trkpt><trkpt lat="43.0216421094" lon="0.1974001061"><ele>1153.72</ele><time>2016-05-16T10:32:51Z</time></trkpt><trkpt lat="43.0216679256" lon="0.1974184625"><ele>1152.28</ele><time>2016-05-16T10:32:53Z</time></trkpt><trkpt lat="43.0216741282" lon="0.1974424347"><ele>1152.28</ele><time>2016-05-16T10:32:54Z</time></trkpt><trkpt lat="43.0216806661" lon="0.1974704303"><ele>1151.32</ele><time>2016-05-16T10:32:55Z</time></trkpt><trkpt lat="43.0216984358" lon="0.1975190453"><ele>1150.35</ele><time>2016-05-16T10:32:57Z</time></trkpt><trkpt lat="43.0217301194" lon="0.1975504775"><ele>1148.43</ele><time>2016-05-16T10:32:59Z</time></trkpt><trkpt lat="43.0218006950" lon="0.1975322049"><ele>1145.07</ele><time>2016-05-16T10:33:04Z</time></trkpt><trkpt lat="43.0218339711" lon="0.1974672452"><ele>1142.18</ele><time>2016-05-16T10:33:07Z</time></trkpt><trkpt lat="43.0218387488" lon="0.1974571869"><ele>1141.22</ele><time>2016-05-16T10:33:08Z</time></trkpt><trkpt lat="43.0218575243" lon="0.1974729449"><ele>1140.74</ele><time>2016-05-16T10:33:09Z</time></trkpt><trkpt lat="43.0219110008" lon="0.1975657325"><ele>1139.30</ele><time>2016-05-16T10:33:12Z</time></trkpt><trkpt lat="43.0218793172" lon="0.1976679079"><ele>1136.90</ele><time>2016-05-16T10:33:16Z</time></trkpt><trkpt lat="43.0218684208" lon="0.1977316942"><ele>1134.01</ele><time>2016-05-16T10:33:18Z</time></trkpt><trkpt lat="43.0218487233" lon="0.1979012601"><ele>1129.69</ele><time>2016-05-16T10:33:22Z</time></trkpt><trkpt lat="43.0218329653" lon="0.1979394816"><ele>1129.21</ele><time>2016-05-16T10:33:23Z</time></trkpt><trkpt lat="43.0217982642" lon="0.1980875060"><ele>1125.36</ele><time>2016-05-16T10:33:27Z</time></trkpt><trkpt lat="43.0218045507" lon="0.1981190220"><ele>1124.40</ele><time>2016-05-16T10:33:29Z</time></trkpt><trkpt lat="43.0218309537" lon="0.1981118973"><ele>1122.48</ele><time>2016-05-16T10:33:32Z</time></trkpt><trkpt lat="43.0218509864" lon="0.1981119812"><ele>1120.55</ele><time>2016-05-16T10:33:34Z</time></trkpt><trkpt lat="43.0218761321" lon="0.1982853189"><ele>1116.23</ele><time>2016-05-16T10:33:40Z</time></trkpt><trkpt lat="43.0218774732" lon="0.1983092073"><ele>1115.27</ele><time>2016-05-16T10:33:41Z</time></trkpt><trkpt lat="43.0218913872" lon="0.1983521227"><ele>1113.82</ele><time>2016-05-16T10:33:43Z</time></trkpt><trkpt lat="43.0219402537" lon="0.1984036714"><ele>1110.94</ele><time>2016-05-16T10:33:45Z</time></trkpt><trkpt lat="43.0219600350" lon="0.1984189264"><ele>1109.50</ele><time>2016-05-16T10:33:46Z</time></trkpt><trkpt lat="43.0220221449" lon="0.1984646078"><ele>1108.06</ele><time>2016-05-16T10:33:49Z</time></trkpt><trkpt lat="43.0220398307" lon="0.1984724030"><ele>1105.65</ele><time>2016-05-16T10:33:51Z</time></trkpt><trkpt lat="43.0220536608" lon="0.1984881610"><ele>1103.73</ele><time>2016-05-16T10:33:53Z</time></trkpt><trkpt lat="43.0220803991" lon="0.1985149831"><ele>1100.37</ele><time>2016-05-16T10:33:56Z</time></trkpt><trkpt lat="43.0221469514" lon="0.1986905839"><ele>1094.60</ele><time>2016-05-16T10:34:02Z</time></trkpt><trkpt lat="43.0221654754" lon="0.1987616625"><ele>1094.12</ele><time>2016-05-16T10:34:03Z</time></trkpt><trkpt lat="43.0221893638" lon="0.1988282148"><ele>1092.68</ele><time>2016-05-16T10:34:04Z</time></trkpt><trkpt lat="43.0222079717" lon="0.1988764107"><ele>1091.71</ele><time>2016-05-16T10:34:05Z</time></trkpt><trkpt lat="43.0222255737" lon="0.1989142969"><ele>1091.71</ele><time>2016-05-16T10:34:06Z</time></trkpt><trkpt lat="43.0222458579" lon="0.1989380177"><ele>1091.23</ele><time>2016-05-16T10:34:07Z</time></trkpt><trkpt lat="43.0222865939" lon="0.1989782508"><ele>1090.27</ele><time>2016-05-16T10:34:09Z</time></trkpt><trkpt lat="43.0223748554" lon="0.1989905722"><ele>1087.39</ele><time>2016-05-16T10:34:12Z</time></trkpt><trkpt lat="43.0225225445" lon="0.1989773288"><ele>1084.02</ele><time>2016-05-16T10:34:17Z</time></trkpt><trkpt lat="43.0226351134" lon="0.1989257801"><ele>1080.18</ele><time>2016-05-16T10:34:20Z</time></trkpt><trkpt lat="43.0227573216" lon="0.1988277119"><ele>1078.26</ele><time>2016-05-16T10:34:23Z</time></trkpt><trkpt lat="43.0228287354" lon="0.1987640932"><ele>1076.81</ele><time>2016-05-16T10:34:25Z</time></trkpt><trkpt lat="43.0228739977" lon="0.1987277996"><ele>1075.85</ele><time>2016-05-16T10:34:27Z</time></trkpt><trkpt lat="43.0229248758" lon="0.1986117102"><ele>1071.53</ele><time>2016-05-16T10:34:32Z</time></trkpt><trkpt lat="43.0230039172" lon="0.1985017397"><ele>1069.12</ele><time>2016-05-16T10:34:36Z</time></trkpt><trkpt lat="43.0230029114" lon="0.1984895859"><ele>1068.16</ele><time>2016-05-16T10:34:38Z</time></trkpt><trkpt lat="43.0229785200" lon="0.1984655298"><ele>1066.24</ele><time>2016-05-16T10:34:41Z</time></trkpt><trkpt lat="43.0229803640" lon="0.1984300744"><ele>1066.24</ele><time>2016-05-16T10:34:44Z</time></trkpt><trkpt lat="43.0230727326" lon="0.1983422320"><ele>1063.36</ele><time>2016-05-16T10:34:49Z</time></trkpt><trkpt lat="43.0230967049" lon="0.1983337663"><ele>1062.87</ele><time>2016-05-16T10:34:50Z</time></trkpt><trkpt lat="43.0232373532" lon="0.1982487738"><ele>1059.03</ele><time>2016-05-16T10:34:53Z</time></trkpt><trkpt lat="43.0232732277" lon="0.1982252207"><ele>1058.07</ele><time>2016-05-16T10:34:54Z</time></trkpt><trkpt lat="43.0233575497" lon="0.1981586684"><ele>1054.70</ele><time>2016-05-16T10:34:56Z</time></trkpt><trkpt lat="43.0233734753" lon="0.1981476042"><ele>1055.67</ele><time>2016-05-16T10:34:57Z</time></trkpt><trkpt lat="43.0234120321" lon="0.1981233805"><ele>1053.74</ele><time>2016-05-16T10:34:58Z</time></trkpt><trkpt lat="43.0234431289" lon="0.1980882604"><ele>1051.82</ele><time>2016-05-16T10:34:59Z</time></trkpt><trkpt lat="43.0235194042" lon="0.1979901921"><ele>1048.45</ele><time>2016-05-16T10:35:02Z</time></trkpt><trkpt lat="43.0235875491" lon="0.1978725940"><ele>1045.09</ele><time>2016-05-16T10:35:06Z</time></trkpt><trkpt lat="43.0236073304" lon="0.1978354622"><ele>1045.09</ele><time>2016-05-16T10:35:07Z</time></trkpt><trkpt lat="43.0236286204" lon="0.1977930497"><ele>1042.69</ele><time>2016-05-16T10:35:08Z</time></trkpt><trkpt lat="43.0236530956" lon="0.1977391541"><ele>1041.25</ele><time>2016-05-16T10:35:09Z</time></trkpt><trkpt lat="43.0236774869" lon="0.1976875216"><ele>1040.28</ele><time>2016-05-16T10:35:10Z</time></trkpt><trkpt lat="43.0237044767" lon="0.1976415049"><ele>1039.32</ele><time>2016-05-16T10:35:11Z</time></trkpt><trkpt lat="43.0237328913" lon="0.1975988410"><ele>1038.84</ele><time>2016-05-16T10:35:12Z</time></trkpt><trkpt lat="43.0238500703" lon="0.1974128466"><ele>1034.52</ele><time>2016-05-16T10:35:16Z</time></trkpt><trkpt lat="43.0240048002" lon="0.1972444542"><ele>1030.67</ele><time>2016-05-16T10:35:21Z</time></trkpt><trkpt lat="43.0241685826" lon="0.1971220784"><ele>1028.27</ele><time>2016-05-16T10:35:25Z</time></trkpt><trkpt lat="43.0243895296" lon="0.1969907340"><ele>1023.46</ele><time>2016-05-16T10:35:29Z</time></trkpt><trkpt lat="43.0244537350" lon="0.1969515905"><ele>1022.98</ele><time>2016-05-16T10:35:30Z</time></trkpt><trkpt lat="43.0245109834" lon="0.1969204098"><ele>1020.58</ele><time>2016-05-16T10:35:31Z</time></trkpt><trkpt lat="43.0245646276" lon="0.1968804281"><ele>1020.10</ele><time>2016-05-16T10:35:32Z</time></trkpt><trkpt lat="43.0246131588" lon="0.1968709566"><ele>1019.62</ele><time>2016-05-16T10:35:33Z</time></trkpt><trkpt lat="43.0246694852" lon="0.1968607306"><ele>1018.17</ele><time>2016-05-16T10:35:34Z</time></trkpt><trkpt lat="43.0249076989" lon="0.1967438031"><ele>1014.33</ele><time>2016-05-16T10:35:38Z</time></trkpt><trkpt lat="43.0250830483" lon="0.1966619119"><ele>1010.96</ele><time>2016-05-16T10:35:41Z</time></trkpt><trkpt lat="43.0252784304" lon="0.1965625025"><ele>1007.12</ele><time>2016-05-16T10:35:44Z</time></trkpt><trkpt lat="43.0254865531" lon="0.1965005603"><ele>1005.20</ele><time>2016-05-16T10:35:47Z</time></trkpt><trkpt lat="43.0256932508" lon="0.1964268833"><ele>1002.31</ele><time>2016-05-16T10:35:50Z</time></trkpt><trkpt lat="43.0257599708" lon="0.1963960379"><ele>1001.83</ele><time>2016-05-16T10:35:51Z</time></trkpt><trkpt lat="43.0259796605" lon="0.1963049266"><ele>998.95</ele><time>2016-05-16T10:35:55Z</time></trkpt><trkpt lat="43.0261795688" lon="0.1962305792"><ele>994.62</ele><time>2016-05-16T10:35:59Z</time></trkpt><trkpt lat="43.0263151042" lon="0.1961600035"><ele>991.74</ele><time>2016-05-16T10:36:03Z</time></trkpt><trkpt lat="43.0263800640" lon="0.1961006597"><ele>989.81</ele><time>2016-05-16T10:36:06Z</time></trkpt><trkpt lat="43.0264466163" lon="0.1960443333"><ele>988.85</ele><time>2016-05-16T10:36:09Z</time></trkpt><trkpt lat="43.0264795572" lon="0.1960317604"><ele>987.89</ele><time>2016-05-16T10:36:10Z</time></trkpt><trkpt lat="43.0265182815" lon="0.1960247196"><ele>987.41</ele><time>2016-05-16T10:36:11Z</time></trkpt><trkpt lat="43.0265505519" lon="0.1960119791"><ele>986.45</ele><time>2016-05-16T10:36:12Z</time></trkpt><trkpt lat="43.0265952274" lon="0.1959906891"><ele>986.45</ele><time>2016-05-16T10:36:13Z</time></trkpt><trkpt lat="43.0267336126" lon="0.1959168445"><ele>983.57</ele><time>2016-05-16T10:36:16Z</time></trkpt><trkpt lat="43.0267852452" lon="0.1958885137"><ele>983.57</ele><time>2016-05-16T10:36:17Z</time></trkpt><trkpt lat="43.0268410686" lon="0.1958725043"><ele>982.60</ele><time>2016-05-16T10:36:18Z</time></trkpt><trkpt lat="43.0270939507" lon="0.1958196983"><ele>979.72</ele><time>2016-05-16T10:36:26Z</time></trkpt><trkpt lat="43.0272696353" lon="0.1957999170"><ele>976.36</ele><time>2016-05-16T10:36:31Z</time></trkpt><trkpt lat="43.0273174960" lon="0.1957992464"><ele>975.39</ele><time>2016-05-16T10:36:32Z</time></trkpt><trkpt lat="43.0273671169" lon="0.1957826503"><ele>974.91</ele><time>2016-05-16T10:36:33Z</time></trkpt><trkpt lat="43.0274123792" lon="0.1957609411"><ele>974.43</ele><time>2016-05-16T10:36:34Z</time></trkpt><trkpt lat="43.0274481699" lon="0.1957445126"><ele>972.51</ele><time>2016-05-16T10:36:35Z</time></trkpt><trkpt lat="43.0274837930" lon="0.1957373880"><ele>972.51</ele><time>2016-05-16T10:36:36Z</time></trkpt><trkpt lat="43.0276238546" lon="0.1957035251"><ele>969.15</ele><time>2016-05-16T10:36:40Z</time></trkpt><trkpt lat="43.0276578851" lon="0.1956736017"><ele>968.67</ele><time>2016-05-16T10:36:41Z</time></trkpt><trkpt lat="43.0276916642" lon="0.1956529822"><ele>968.18</ele><time>2016-05-16T10:36:42Z</time></trkpt><trkpt lat="43.0277245212" lon="0.1956509706"><ele>967.70</ele><time>2016-05-16T10:36:43Z</time></trkpt><trkpt lat="43.0277553666" lon="0.1956424210"><ele>967.22</ele><time>2016-05-16T10:36:44Z</time></trkpt><trkpt lat="43.0278546084" lon="0.1956275851"><ele>965.30</ele><time>2016-05-16T10:36:48Z</time></trkpt><trkpt lat="43.0278763175" lon="0.1956149284"><ele>964.82</ele><time>2016-05-16T10:36:49Z</time></trkpt><trkpt lat="43.0279252678" lon="0.1955924649"><ele>963.86</ele><time>2016-05-16T10:36:51Z</time></trkpt><trkpt lat="43.0279623158" lon="0.1956082229"><ele>963.38</ele><time>2016-05-16T10:36:52Z</time></trkpt><trkpt lat="43.0279900599" lon="0.1956000924"><ele>961.94</ele><time>2016-05-16T10:36:54Z</time></trkpt><trkpt lat="43.0279889703" lon="0.1955788024"><ele>960.49</ele><time>2016-05-16T10:36:56Z</time></trkpt><trkpt lat="43.0279570352" lon="0.1955456939"><ele>959.05</ele><time>2016-05-16T10:36:58Z</time></trkpt><trkpt lat="43.0279122759" lon="0.1955199614"><ele>958.57</ele><time>2016-05-16T10:36:59Z</time></trkpt><trkpt lat="43.0277682748" lon="0.1954286825"><ele>953.77</ele><time>2016-05-16T10:37:02Z</time></trkpt><trkpt lat="43.0277193245" lon="0.1953852642"><ele>954.73</ele><time>2016-05-16T10:37:03Z</time></trkpt><trkpt lat="43.0275784247" lon="0.1952666603"><ele>951.36</ele><time>2016-05-16T10:37:06Z</time></trkpt><trkpt lat="43.0274505168" lon="0.1951173786"><ele>948.00</ele><time>2016-05-16T10:37:12Z</time></trkpt><trkpt lat="43.0275474116" lon="0.1950019598"><ele>944.15</ele><time>2016-05-16T10:37:16Z</time></trkpt><trkpt lat="43.0275762454" lon="0.1949737966"><ele>942.23</ele><time>2016-05-16T10:37:17Z</time></trkpt><trkpt lat="43.0276563764" lon="0.1949090045"><ele>940.31</ele><time>2016-05-16T10:37:20Z</time></trkpt><trkpt lat="43.0277463142" lon="0.1948633231"><ele>936.46</ele><time>2016-05-16T10:37:23Z</time></trkpt><trkpt lat="43.0277720466" lon="0.1948495768"><ele>935.98</ele><time>2016-05-16T10:37:24Z</time></trkpt><trkpt lat="43.0278844479" lon="0.1947438810"><ele>932.62</ele><time>2016-05-16T10:37:27Z</time></trkpt><trkpt lat="43.0279603880" lon="0.1947241835"><ele>929.73</ele><time>2016-05-16T10:37:30Z</time></trkpt><trkpt lat="43.0280066561" lon="0.1947353315"><ele>925.41</ele><time>2016-05-16T10:37:36Z</time></trkpt><trkpt lat="43.0279888865" lon="0.1947020553"><ele>924.45</ele><time>2016-05-16T10:37:37Z</time></trkpt><trkpt lat="43.0279622320" lon="0.1946648397"><ele>924.45</ele><time>2016-05-16T10:37:38Z</time></trkpt><trkpt lat="43.0279354937" lon="0.1946318988"><ele>923.00</ele><time>2016-05-16T10:37:39Z</time></trkpt><trkpt lat="43.0279166345" lon="0.1946054958"><ele>922.52</ele><time>2016-05-16T10:37:40Z</time></trkpt><trkpt lat="43.0279012118" lon="0.1945869718"><ele>922.04</ele><time>2016-05-16T10:37:41Z</time></trkpt><trkpt lat="43.0278870463" lon="0.1945708785"><ele>921.08</ele><time>2016-05-16T10:37:42Z</time></trkpt><trkpt lat="43.0278647505" lon="0.1945535280"><ele>918.68</ele><time>2016-05-16T10:37:45Z</time></trkpt><trkpt lat="43.0278049037" lon="0.1944901608"><ele>914.35</ele><time>2016-05-16T10:37:48Z</time></trkpt><trkpt lat="43.0277795903" lon="0.1943749096"><ele>912.43</ele><time>2016-05-16T10:37:51Z</time></trkpt><trkpt lat="43.0277876370" lon="0.1943536196"><ele>911.95</ele><time>2016-05-16T10:37:52Z</time></trkpt><trkpt lat="43.0278002936" lon="0.1943386998"><ele>910.51</ele><time>2016-05-16T10:37:53Z</time></trkpt><trkpt lat="43.0278111063" lon="0.1943256240"><ele>910.03</ele><time>2016-05-16T10:37:54Z</time></trkpt><trkpt lat="43.0278328154" lon="0.1943131350"><ele>909.06</ele><time>2016-05-16T10:37:55Z</time></trkpt><trkpt lat="43.0279064924" lon="0.1942840498"><ele>905.70</ele><time>2016-05-16T10:37:58Z</time></trkpt><trkpt lat="43.0279733799" lon="0.1942872349"><ele>903.30</ele><time>2016-05-16T10:38:01Z</time></trkpt><trkpt lat="43.0280190613" lon="0.1942995563"><ele>900.41</ele><time>2016-05-16T10:38:03Z</time></trkpt><trkpt lat="43.0281248409" lon="0.1942278072"><ele>895.61</ele><time>2016-05-16T10:38:07Z</time></trkpt><trkpt lat="43.0282632262" lon="0.1941725705"><ele>891.76</ele><time>2016-05-16T10:38:11Z</time></trkpt><trkpt lat="43.0283028726" lon="0.1941538788"><ele>890.80</ele><time>2016-05-16T10:38:12Z</time></trkpt><trkpt lat="43.0284286849" lon="0.1940379571"><ele>887.43</ele><time>2016-05-16T10:38:15Z</time></trkpt><trkpt lat="43.0285260826" lon="0.1939921081"><ele>884.07</ele><time>2016-05-16T10:38:18Z</time></trkpt><trkpt lat="43.0287557468" lon="0.1938954648"><ele>881.19</ele><time>2016-05-16T10:38:22Z</time></trkpt><trkpt lat="43.0288906954" lon="0.1938751806"><ele>878.30</ele><time>2016-05-16T10:38:25Z</time></trkpt><trkpt lat="43.0289613549" lon="0.1938367076"><ele>877.34</ele><time>2016-05-16T10:38:26Z</time></trkpt><trkpt lat="43.0289875902" lon="0.1938153338"><ele>875.90</ele><time>2016-05-16T10:38:27Z</time></trkpt><trkpt lat="43.0290420726" lon="0.1937788725"><ele>873.01</ele><time>2016-05-16T10:38:30Z</time></trkpt><trkpt lat="43.0290504545" lon="0.1937616058"><ele>872.05</ele><time>2016-05-16T10:38:31Z</time></trkpt><trkpt lat="43.0291754287" lon="0.1936585922"><ele>868.21</ele><time>2016-05-16T10:38:35Z</time></trkpt><trkpt lat="43.0292079505" lon="0.1936432533"><ele>867.25</ele><time>2016-05-16T10:38:36Z</time></trkpt><trkpt lat="43.0292274803" lon="0.1936103124"><ele>865.80</ele><time>2016-05-16T10:38:38Z</time></trkpt><trkpt lat="43.0292386282" lon="0.1935958117"><ele>863.88</ele><time>2016-05-16T10:38:39Z</time></trkpt><trkpt lat="43.0293317512" lon="0.1935382280"><ele>860.52</ele><time>2016-05-16T10:38:42Z</time></trkpt><trkpt lat="43.0294491816" lon="0.1934363041"><ele>856.67</ele><time>2016-05-16T10:38:46Z</time></trkpt><trkpt lat="43.0294752494" lon="0.1934215520"><ele>856.19</ele><time>2016-05-16T10:38:47Z</time></trkpt><trkpt lat="43.0295055080" lon="0.1934189536"><ele>855.23</ele><time>2016-05-16T10:38:48Z</time></trkpt><trkpt lat="43.0295286421" lon="0.1934325323"><ele>855.23</ele><time>2016-05-16T10:38:49Z</time></trkpt><trkpt lat="43.0295785982" lon="0.1934435964"><ele>851.38</ele><time>2016-05-16T10:38:50Z</time></trkpt><trkpt lat="43.0296096113" lon="0.1934656408"><ele>852.35</ele><time>2016-05-16T10:38:51Z</time></trkpt><trkpt lat="43.0297546182" lon="0.1936088037"><ele>849.46</ele><time>2016-05-16T10:38:54Z</time></trkpt><trkpt lat="43.0299010500" lon="0.1937311795"><ele>846.58</ele><time>2016-05-16T10:38:57Z</time></trkpt><trkpt lat="43.0300367530" lon="0.1938064490"><ele>842.25</ele><time>2016-05-16T10:39:00Z</time></trkpt><trkpt lat="43.0301257689" lon="0.1938153338"><ele>840.33</ele><time>2016-05-16T10:39:02Z</time></trkpt><trkpt lat="43.0302154552" lon="0.1938550640"><ele>837.45</ele><time>2016-05-16T10:39:04Z</time></trkpt><trkpt lat="43.0302528385" lon="0.1938894298"><ele>836.00</ele><time>2016-05-16T10:39:05Z</time></trkpt><trkpt lat="43.0303540081" lon="0.1940650307"><ele>832.64</ele><time>2016-05-16T10:39:09Z</time></trkpt><trkpt lat="43.0304213148" lon="0.1942959521"><ele>829.27</ele><time>2016-05-16T10:39:13Z</time></trkpt><trkpt lat="43.0304247513" lon="0.1943030767"><ele>829.27</ele><time>2016-05-16T10:39:14Z</time></trkpt><trkpt lat="43.0303562712" lon="0.1944372710"><ele>826.39</ele><time>2016-05-16T10:39:18Z</time></trkpt><trkpt lat="43.0303512421" lon="0.1945172343"><ele>824.95</ele><time>2016-05-16T10:39:19Z</time></trkpt><trkpt lat="43.0303527508" lon="0.1946160570"><ele>822.55</ele><time>2016-05-16T10:39:22Z</time></trkpt><trkpt lat="43.0303784832" lon="0.1946561225"><ele>820.14</ele><time>2016-05-16T10:39:24Z</time></trkpt><trkpt lat="43.0304488912" lon="0.1946501713"><ele>818.22</ele><time>2016-05-16T10:39:26Z</time></trkpt><trkpt lat="43.0305647291" lon="0.1945895702"><ele>814.37</ele><time>2016-05-16T10:39:30Z</time></trkpt><trkpt lat="43.0305812415" lon="0.1944784261"><ele>810.05</ele><time>2016-05-16T10:39:33Z</time></trkpt><trkpt lat="43.0306106620" lon="0.1944341697"><ele>809.09</ele><time>2016-05-16T10:39:35Z</time></trkpt><trkpt lat="43.0306311976" lon="0.1943992171"><ele>807.64</ele><time>2016-05-16T10:39:37Z</time></trkpt><trkpt lat="43.0306291860" lon="0.1943811122"><ele>806.68</ele><time>2016-05-16T10:39:38Z</time></trkpt><trkpt lat="43.0306439381" lon="0.1943383645"><ele>805.24</ele><time>2016-05-16T10:39:40Z</time></trkpt><trkpt lat="43.0306601152" lon="0.1943319105"><ele>803.80</ele><time>2016-05-16T10:39:41Z</time></trkpt><trkpt lat="43.0307121668" lon="0.1943412144"><ele>801.88</ele><time>2016-05-16T10:39:43Z</time></trkpt><trkpt lat="43.0308027752" lon="0.1944366004"><ele>798.03</ele><time>2016-05-16T10:39:49Z</time></trkpt><trkpt lat="43.0308240652" lon="0.1944922563"><ele>796.11</ele><time>2016-05-16T10:39:52Z</time></trkpt><trkpt lat="43.0308327824" lon="0.1945205033"><ele>795.63</ele><time>2016-05-16T10:39:53Z</time></trkpt><trkpt lat="43.0308563355" lon="0.1945530251"><ele>791.30</ele><time>2016-05-16T10:39:58Z</time></trkpt><trkpt lat="43.0308801401" lon="0.1945566293"><ele>790.82</ele><time>2016-05-16T10:40:00Z</time></trkpt><trkpt lat="43.0309081357" lon="0.1945541147"><ele>789.38</ele><time>2016-05-16T10:40:02Z</time></trkpt><trkpt lat="43.0309208762" lon="0.1945497561"><ele>788.42</ele><time>2016-05-16T10:40:03Z</time></trkpt><trkpt lat="43.0309772026" lon="0.1944915857"><ele>786.02</ele><time>2016-05-16T10:40:07Z</time></trkpt><trkpt lat="43.0309949722" lon="0.1943828724"><ele>783.61</ele><time>2016-05-16T10:40:10Z</time></trkpt><trkpt lat="43.0310074612" lon="0.1943541225"><ele>779.29</ele><time>2016-05-16T10:40:13Z</time></trkpt><trkpt lat="43.0310097244" lon="0.1943589002"><ele>779.29</ele><time>2016-05-16T10:40:14Z</time></trkpt><trkpt lat="43.0311050266" lon="0.1943156496"><ele>776.88</ele><time>2016-05-16T10:40:17Z</time></trkpt><trkpt lat="43.0311792903" lon="0.1942961197"><ele>777.84</ele><time>2016-05-16T10:40:30Z</time></trkpt><trkpt lat="43.0312386341" lon="0.1942785177"><ele>778.81</ele><time>2016-05-16T10:40:55Z</time></trkpt><trkpt lat="43.0312997382" lon="0.1942479238"><ele>780.25</ele><time>2016-05-16T10:41:24Z</time></trkpt><trkpt lat="43.0313317571" lon="0.1942097861"><ele>780.73</ele><time>2016-05-16T10:41:47Z</time></trkpt><trkpt lat="43.0313626025" lon="0.1942096185"><ele>782.17</ele><time>2016-05-16T10:42:14Z</time></trkpt><trkpt lat="43.0314024165" lon="0.1941964589"><ele>783.13</ele><time>2016-05-16T10:42:38Z</time></trkpt><trkpt lat="43.0314351059" lon="0.1942119654"><ele>783.61</ele><time>2016-05-16T10:43:02Z</time></trkpt><trkpt lat="43.0314788595" lon="0.1941518672"><ele>783.13</ele><time>2016-05-16T10:43:17Z</time></trkpt><trkpt lat="43.0315299891" lon="0.1941039227"><ele>783.61</ele><time>2016-05-16T10:43:31Z</time></trkpt><trkpt lat="43.0315586552" lon="0.1940536313"><ele>785.05</ele><time>2016-05-16T10:43:53Z</time></trkpt><trkpt lat="43.0315688811" lon="0.1940280665"><ele>786.50</ele><time>2016-05-16T10:44:16Z</time></trkpt><trkpt lat="43.0315561406" lon="0.1939432416"><ele>786.98</ele><time>2016-05-16T10:44:38Z</time></trkpt><trkpt lat="43.0315771792" lon="0.1939761825"><ele>787.94</ele><time>2016-05-16T10:44:59Z</time></trkpt><trkpt lat="43.0315948650" lon="0.1939797029"><ele>787.46</ele><time>2016-05-16T10:45:06Z</time></trkpt><trkpt lat="43.0316428095" lon="0.1940246299"><ele>786.02</ele><time>2016-05-16T10:45:10Z</time></trkpt><trkpt lat="43.0316734873" lon="0.1941280626"><ele>784.09</ele><time>2016-05-16T10:45:13Z</time></trkpt><trkpt lat="43.0317563005" lon="0.1942977123"><ele>780.73</ele><time>2016-05-16T10:45:18Z</time></trkpt><trkpt lat="43.0318039935" lon="0.1943609957"><ele>778.32</ele><time>2016-05-16T10:45:20Z</time></trkpt><trkpt lat="43.0318915006" lon="0.1943875663"><ele>775.92</ele><time>2016-05-16T10:45:23Z</time></trkpt><trkpt lat="43.0319639202" lon="0.1944066770"><ele>772.56</ele><time>2016-05-16T10:45:25Z</time></trkpt><trkpt lat="43.0319728050" lon="0.1944131311"><ele>772.56</ele><time>2016-05-16T10:45:26Z</time></trkpt><trkpt lat="43.0320173129" lon="0.1943953615"><ele>771.11</ele><time>2016-05-16T10:45:28Z</time></trkpt><trkpt lat="43.0320249405" lon="0.1943926793"><ele>770.63</ele><time>2016-05-16T10:45:29Z</time></trkpt><trkpt lat="43.0320722982" lon="0.1943491772"><ele>770.63</ele><time>2016-05-16T10:45:32Z</time></trkpt><trkpt lat="43.0322471447" lon="0.1942205988"><ele>766.79</ele><time>2016-05-16T10:45:42Z</time></trkpt><trkpt lat="43.0322445463" lon="0.1942159887"><ele>766.31</ele><time>2016-05-16T10:45:43Z</time></trkpt><trkpt lat="43.0322370026" lon="0.1941839699"><ele>762.94</ele><time>2016-05-16T10:45:45Z</time></trkpt><trkpt lat="43.0322333984" lon="0.1941689663"><ele>764.87</ele><time>2016-05-16T10:45:47Z</time></trkpt><trkpt lat="43.0324805807" lon="0.1940701436"><ele>761.98</ele><time>2016-05-16T10:45:53Z</time></trkpt><trkpt lat="43.0326927267" lon="0.1940296590"><ele>760.06</ele><time>2016-05-16T10:45:58Z</time></trkpt><trkpt lat="43.0328347161" lon="0.1940179244"><ele>759.10</ele><time>2016-05-16T10:46:00Z</time></trkpt><trkpt lat="43.0331938807" lon="0.1940346882"><ele>756.21</ele><time>2016-05-16T10:46:04Z</time></trkpt><trkpt lat="43.0332751852" lon="0.1940024178"><ele>755.73</ele><time>2016-05-16T10:46:05Z</time></trkpt><trkpt lat="43.0333551485" lon="0.1939548086"><ele>754.77</ele><time>2016-05-16T10:46:06Z</time></trkpt><trkpt lat="43.0334133189" lon="0.1938960515"><ele>753.81</ele><time>2016-05-16T10:46:07Z</time></trkpt><trkpt lat="43.0334695615" lon="0.1938445866"><ele>752.37</ele><time>2016-05-16T10:46:08Z</time></trkpt><trkpt lat="43.0335261393" lon="0.1937893499"><ele>752.37</ele><time>2016-05-16T10:46:09Z</time></trkpt><trkpt lat="43.0335688870" lon="0.1937274914"><ele>751.89</ele><time>2016-05-16T10:46:10Z</time></trkpt><trkpt lat="43.0335996486" lon="0.1936613582"><ele>751.41</ele><time>2016-05-16T10:46:11Z</time></trkpt><trkpt lat="43.0336132273" lon="0.1935781259"><ele>750.45</ele><time>2016-05-16T10:46:12Z</time></trkpt><trkpt lat="43.0336280633" lon="0.1934968214"><ele>750.45</ele><time>2016-05-16T10:46:13Z</time></trkpt><trkpt lat="43.0336644407" lon="0.1933472883"><ele>748.52</ele><time>2016-05-16T10:46:15Z</time></trkpt><trkpt lat="43.0336991418" lon="0.1932821609"><ele>749.00</ele><time>2016-05-16T10:46:16Z</time></trkpt><trkpt lat="43.0339293927" lon="0.1929223258"><ele>745.64</ele><time>2016-05-16T10:46:21Z</time></trkpt><trkpt lat="43.0340257008" lon="0.1927896403"><ele>744.68</ele><time>2016-05-16T10:46:23Z</time></trkpt><trkpt lat="43.0340804346" lon="0.1927220821"><ele>744.20</ele><time>2016-05-16T10:46:24Z</time></trkpt><trkpt lat="43.0341361742" lon="0.1926665101"><ele>743.72</ele><time>2016-05-16T10:46:25Z</time></trkpt><trkpt lat="43.0342595559" lon="0.1925460622"><ele>743.72</ele><time>2016-05-16T10:46:27Z</time></trkpt><trkpt lat="43.0343173072" lon="0.1924857963"><ele>739.87</ele><time>2016-05-16T10:46:28Z</time></trkpt><trkpt lat="43.0344199017" lon="0.1923632529"><ele>741.31</ele><time>2016-05-16T10:46:30Z</time></trkpt><trkpt lat="43.0344728753" lon="0.1922817808"><ele>740.35</ele><time>2016-05-16T10:46:31Z</time></trkpt><trkpt lat="43.0347042996" lon="0.1919500250"><ele>736.51</ele><time>2016-05-16T10:46:35Z</time></trkpt><trkpt lat="43.0347804911" lon="0.1918507833"><ele>736.51</ele><time>2016-05-16T10:46:36Z</time></trkpt><trkpt lat="43.0349042919" lon="0.1916696504"><ele>735.07</ele><time>2016-05-16T10:46:38Z</time></trkpt><trkpt lat="43.0349493027" lon="0.1915838197"><ele>733.62</ele><time>2016-05-16T10:46:39Z</time></trkpt><trkpt lat="43.0351289269" lon="0.1912612841"><ele>730.74</ele><time>2016-05-16T10:46:46Z</time></trkpt><trkpt lat="43.0352862552" lon="0.1910618786"><ele>729.78</ele><time>2016-05-16T10:46:50Z</time></trkpt><trkpt lat="43.0353273265" lon="0.1909974217"><ele>728.34</ele><time>2016-05-16T10:46:51Z</time></trkpt><trkpt lat="43.0353658833" lon="0.1909332164"><ele>728.34</ele><time>2016-05-16T10:46:52Z</time></trkpt><trkpt lat="43.0354053620" lon="0.1908737049"><ele>728.34</ele><time>2016-05-16T10:46:53Z</time></trkpt><trkpt lat="43.0354402307" lon="0.1908254251"><ele>727.37</ele><time>2016-05-16T10:46:54Z</time></trkpt><trkpt lat="43.0358306598" lon="0.1905486546"><ele>724.97</ele><time>2016-05-16T10:47:04Z</time></trkpt><trkpt lat="43.0358819570" lon="0.1905085053"><ele>724.97</ele><time>2016-05-16T10:47:05Z</time></trkpt><trkpt lat="43.0359366070" lon="0.1904740557"><ele>724.49</ele><time>2016-05-16T10:47:06Z</time></trkpt><trkpt lat="43.0359723140" lon="0.1904387679"><ele>724.01</ele><time>2016-05-16T10:47:07Z</time></trkpt><trkpt lat="43.0359975435" lon="0.1903970260"><ele>723.53</ele><time>2016-05-16T10:47:08Z</time></trkpt><trkpt lat="43.0361093581" lon="0.1902176533"><ele>722.57</ele><time>2016-05-16T10:47:13Z</time></trkpt><trkpt lat="43.0361212604" lon="0.1902104449"><ele>722.57</ele><time>2016-05-16T10:47:14Z</time></trkpt><trkpt lat="43.0362379365" lon="0.1900955290"><ele>722.09</ele><time>2016-05-16T10:47:15Z</time></trkpt><trkpt lat="43.0363219231" lon="0.1900173258"><ele>722.57</ele><time>2016-05-16T10:47:16Z</time></trkpt><trkpt lat="43.0363365915" lon="0.1900210977"><ele>722.57</ele><time>2016-05-16T10:47:17Z</time></trkpt><trkpt lat="43.0363509245" lon="0.1900285576"><ele>723.53</ele><time>2016-05-16T10:47:18Z</time></trkpt><trkpt lat="43.0363748968" lon="0.1900283061"><ele>723.05</ele><time>2016-05-16T10:47:19Z</time></trkpt><trkpt lat="43.0363911577" lon="0.1900281385"><ele>723.53</ele><time>2016-05-16T10:47:20Z</time></trkpt><trkpt lat="43.0364141241" lon="0.1900420524"><ele>724.01</ele><time>2016-05-16T10:47:21Z</time></trkpt><trkpt lat="43.0364420358" lon="0.1900605764"><ele>724.49</ele><time>2016-05-16T10:47:22Z</time></trkpt><trkpt lat="43.0364645831" lon="0.1900726464"><ele>724.97</ele><time>2016-05-16T10:47:23Z</time></trkpt><trkpt lat="43.0364836100" lon="0.1900857221"><ele>725.93</ele><time>2016-05-16T10:47:24Z</time></trkpt><trkpt lat="43.0365601368" lon="0.1900465786"><ele>727.37</ele><time>2016-05-16T10:47:36Z</time></trkpt><trkpt lat="43.0365897249" lon="0.1900062617"><ele>727.37</ele><time>2016-05-16T10:47:46Z</time></trkpt><trkpt lat="43.0365943350" lon="0.1899848878"><ele>726.89</ele><time>2016-05-16T10:47:47Z</time></trkpt><trkpt lat="43.0366408546" lon="0.1898881607"><ele>727.37</ele><time>2016-05-16T10:47:57Z</time></trkpt><trkpt lat="43.0366964266" lon="0.1898427308"><ele>727.37</ele><time>2016-05-16T10:48:08Z</time></trkpt><trkpt lat="43.0367075745" lon="0.1898508612"><ele>727.86</ele><time>2016-05-16T10:48:09Z</time></trkpt><trkpt lat="43.0367175490" lon="0.1898573153"><ele>727.86</ele><time>2016-05-16T10:48:10Z</time></trkpt><trkpt lat="43.0367388390" lon="0.1898018271"><ele>727.37</ele><time>2016-05-16T10:48:16Z</time></trkpt><trkpt lat="43.0367437005" lon="0.1897551399"><ele>728.34</ele><time>2016-05-16T10:48:27Z</time></trkpt><trkpt lat="43.0367310438" lon="0.1897781901"><ele>728.82</ele><time>2016-05-16T10:48:42Z</time></trkpt><trkpt lat="43.0367138609" lon="0.1897731610"><ele>727.86</ele><time>2016-05-16T10:48:51Z</time></trkpt><trkpt lat="43.0367023777" lon="0.1897600014"><ele>727.86</ele><time>2016-05-16T10:48:52Z</time></trkpt><trkpt lat="43.0366920680" lon="0.1897509489"><ele>726.89</ele><time>2016-05-16T10:48:53Z</time></trkpt><trkpt lat="43.0366794113" lon="0.1897457521"><ele>727.37</ele><time>2016-05-16T10:48:54Z</time></trkpt><trkpt lat="43.0366690177" lon="0.1897485182"><ele>726.89</ele><time>2016-05-16T10:48:55Z</time></trkpt><trkpt lat="43.0366576184" lon="0.1897510327"><ele>725.93</ele><time>2016-05-16T10:48:56Z</time></trkpt><trkpt lat="43.0366411060" lon="0.1897484343"><ele>725.93</ele><time>2016-05-16T10:48:57Z</time></trkpt><trkpt lat="43.0366245937" lon="0.1897351909"><ele>725.45</ele><time>2016-05-16T10:48:58Z</time></trkpt><trkpt lat="43.0366031360" lon="0.1897118893"><ele>724.49</ele><time>2016-05-16T10:49:00Z</time></trkpt><trkpt lat="43.0365976039" lon="0.1896842290"><ele>723.53</ele><time>2016-05-16T10:49:05Z</time></trkpt><trkpt lat="43.0365870427" lon="0.1896905992"><ele>723.53</ele><time>2016-05-16T10:49:27Z</time></trkpt><trkpt lat="43.0365862045" lon="0.1897043455"><ele>723.53</ele><time>2016-05-16T10:49:28Z</time></trkpt><trkpt lat="43.0365837738" lon="0.1897229534"><ele>723.53</ele><time>2016-05-16T10:49:29Z</time></trkpt><trkpt lat="43.0365722068" lon="0.1897320058"><ele>723.53</ele><time>2016-05-16T10:49:30Z</time></trkpt><trkpt lat="43.0365576223" lon="0.1897265576"><ele>723.53</ele><time>2016-05-16T10:49:31Z</time></trkpt><trkpt lat="43.0365486536" lon="0.1897103805"><ele>723.05</ele><time>2016-05-16T10:49:32Z</time></trkpt><trkpt lat="43.0365202390" lon="0.1896804571"><ele>723.05</ele><time>2016-05-16T10:49:34Z</time></trkpt><trkpt lat="43.0365047324" lon="0.1896339376"><ele>723.05</ele><time>2016-05-16T10:49:48Z</time></trkpt><trkpt lat="43.0365155451" lon="0.1896045171"><ele>723.53</ele><time>2016-05-16T10:50:04Z</time></trkpt><trkpt lat="43.0365199875" lon="0.1895471849"><ele>723.05</ele><time>2016-05-16T10:50:08Z</time></trkpt><trkpt lat="43.0365206581" lon="0.1895126514"><ele>722.57</ele><time>2016-05-16T10:50:09Z</time></trkpt><trkpt lat="43.0365190655" lon="0.1894778665"><ele>722.09</ele><time>2016-05-16T10:50:10Z</time></trkpt><trkpt lat="43.0365168024" lon="0.1894430816"><ele>721.61</ele><time>2016-05-16T10:50:11Z</time></trkpt><trkpt lat="43.0365152098" lon="0.1894028485"><ele>721.13</ele><time>2016-05-16T10:50:12Z</time></trkpt><trkpt lat="43.0365163833" lon="0.1893529762"><ele>721.13</ele><time>2016-05-16T10:50:13Z</time></trkpt><trkpt lat="43.0365242623" lon="0.1888357289"><ele>719.68</ele><time>2016-05-16T10:50:23Z</time></trkpt><trkpt lat="43.0365311354" lon="0.1887537539"><ele>719.20</ele><time>2016-05-16T10:50:24Z</time></trkpt><trkpt lat="43.0365447141" lon="0.1886771433"><ele>719.20</ele><time>2016-05-16T10:50:25Z</time></trkpt><trkpt lat="43.0365732126" lon="0.1885315496"><ele>718.72</ele><time>2016-05-16T10:50:27Z</time></trkpt><trkpt lat="43.0365889706" lon="0.1883859560"><ele>718.24</ele><time>2016-05-16T10:50:29Z</time></trkpt><trkpt lat="43.0365875456" lon="0.1882424578"><ele>715.36</ele><time>2016-05-16T10:50:31Z</time></trkpt><trkpt lat="43.0365859531" lon="0.1881733909"><ele>717.76</ele><time>2016-05-16T10:50:32Z</time></trkpt><trkpt lat="43.0365878809" lon="0.1881064195"><ele>717.76</ele><time>2016-05-16T10:50:33Z</time></trkpt><trkpt lat="43.0365961790" lon="0.1879112050"><ele>717.28</ele><time>2016-05-16T10:50:36Z</time></trkpt><trkpt lat="43.0365981068" lon="0.1878519449"><ele>717.28</ele><time>2016-05-16T10:50:37Z</time></trkpt><trkpt lat="43.0366002023" lon="0.1878003962"><ele>717.28</ele><time>2016-05-16T10:50:38Z</time></trkpt><trkpt lat="43.0366082489" lon="0.1877292339"><ele>717.28</ele><time>2016-05-16T10:50:39Z</time></trkpt><trkpt lat="43.0366297904" lon="0.1875791978"><ele>716.80</ele><time>2016-05-16T10:50:41Z</time></trkpt><trkpt lat="43.0366662517" lon="0.1872790419"><ele>715.84</ele><time>2016-05-16T10:50:45Z</time></trkpt><trkpt lat="43.0366630666" lon="0.1872119866"><ele>715.36</ele><time>2016-05-16T10:50:46Z</time></trkpt><trkpt lat="43.0366525054" lon="0.1870673988"><ele>713.92</ele><time>2016-05-16T10:50:48Z</time></trkpt><trkpt lat="43.0366435368" lon="0.1870044507"><ele>713.92</ele><time>2016-05-16T10:50:49Z</time></trkpt><trkpt lat="43.0366702750" lon="0.1867446955"><ele>712.47</ele><time>2016-05-16T10:50:53Z</time></trkpt><trkpt lat="43.0367960036" lon="0.1864167955"><ele>710.55</ele><time>2016-05-16T10:50:58Z</time></trkpt><trkpt lat="43.0368220713" lon="0.1863271929"><ele>710.07</ele><time>2016-05-16T10:50:59Z</time></trkpt><trkpt lat="43.0369228218" lon="0.1859916653"><ele>709.59</ele><time>2016-05-16T10:51:03Z</time></trkpt><trkpt lat="43.0369492248" lon="0.1859225146"><ele>709.11</ele><time>2016-05-16T10:51:04Z</time></trkpt><trkpt lat="43.0369982589" lon="0.1858159807"><ele>707.67</ele><time>2016-05-16T10:51:06Z</time></trkpt><trkpt lat="43.0370408390" lon="0.1856822893"><ele>709.11</ele><time>2016-05-16T10:51:08Z</time></trkpt><trkpt lat="43.0371168628" lon="0.1853448339"><ele>705.75</ele><time>2016-05-16T10:51:12Z</time></trkpt><trkpt lat="43.0371235684" lon="0.1852578297"><ele>705.26</ele><time>2016-05-16T10:51:13Z</time></trkpt><trkpt lat="43.0371249933" lon="0.1851665508"><ele>703.34</ele><time>2016-05-16T10:51:14Z</time></trkpt><trkpt lat="43.0371280108" lon="0.1850647107"><ele>703.82</ele><time>2016-05-16T10:51:15Z</time></trkpt><trkpt lat="43.0371361412" lon="0.1849529799"><ele>702.86</ele><time>2016-05-16T10:51:16Z</time></trkpt><trkpt lat="43.0371476244" lon="0.1848523971"><ele>703.34</ele><time>2016-05-16T10:51:17Z</time></trkpt><trkpt lat="43.0371638015" lon="0.1847577654"><ele>701.42</ele><time>2016-05-16T10:51:18Z</time></trkpt><trkpt lat="43.0371853430" lon="0.1846615411"><ele>701.42</ele><time>2016-05-16T10:51:19Z</time></trkpt><trkpt lat="43.0372166913" lon="0.1845582761"><ele>700.46</ele><time>2016-05-16T10:51:20Z</time></trkpt><trkpt lat="43.0372538231" lon="0.1844670810"><ele>699.98</ele><time>2016-05-16T10:51:21Z</time></trkpt><trkpt lat="43.0372967385" lon="0.1843747962"><ele>699.02</ele><time>2016-05-16T10:51:22Z</time></trkpt><trkpt lat="43.0373383127" lon="0.1843012869"><ele>698.53</ele><time>2016-05-16T10:51:23Z</time></trkpt><trkpt lat="43.0374440085" lon="0.1841415279"><ele>697.09</ele><time>2016-05-16T10:51:25Z</time></trkpt><trkpt lat="43.0375007540" lon="0.1840601396"><ele>697.57</ele><time>2016-05-16T10:51:26Z</time></trkpt><trkpt lat="43.0375501234" lon="0.1839815173"><ele>697.09</ele><time>2016-05-16T10:51:27Z</time></trkpt><trkpt lat="43.0378709827" lon="0.1835371926"><ele>694.69</ele><time>2016-05-16T10:51:32Z</time></trkpt><trkpt lat="43.0380793568" lon="0.1832524594"><ele>694.21</ele><time>2016-05-16T10:51:36Z</time></trkpt><trkpt lat="43.0382611603" lon="0.1829648763"><ele>693.25</ele><time>2016-05-16T10:51:40Z</time></trkpt><trkpt lat="43.0383080151" lon="0.1828933787"><ele>693.25</ele><time>2016-05-16T10:51:41Z</time></trkpt><trkpt lat="43.0383692030" lon="0.1828029379"><ele>692.77</ele><time>2016-05-16T10:51:42Z</time></trkpt><trkpt lat="43.0384256970" lon="0.1827022713"><ele>692.77</ele><time>2016-05-16T10:51:43Z</time></trkpt><trkpt lat="43.0384723004" lon="0.1825914625"><ele>691.81</ele><time>2016-05-16T10:51:44Z</time></trkpt><trkpt lat="43.0385163892" lon="0.1824769657"><ele>691.81</ele><time>2016-05-16T10:51:45Z</time></trkpt><trkpt lat="43.0386038963" lon="0.1822762191"><ele>690.84</ele><time>2016-05-16T10:51:47Z</time></trkpt><trkpt lat="43.0386893079" lon="0.1820914820"><ele>690.84</ele><time>2016-05-16T10:51:49Z</time></trkpt><trkpt lat="43.0387193151" lon="0.1820037235"><ele>690.84</ele><time>2016-05-16T10:51:50Z</time></trkpt><trkpt lat="43.0389939900" lon="0.1813618373"><ele>689.40</ele><time>2016-05-16T10:51:58Z</time></trkpt><trkpt lat="43.0390218180" lon="0.1812796108"><ele>688.92</ele><time>2016-05-16T10:51:59Z</time></trkpt><trkpt lat="43.0390419345" lon="0.1811885834"><ele>688.92</ele><time>2016-05-16T10:52:00Z</time></trkpt><trkpt lat="43.0390594527" lon="0.1810968015"><ele>688.92</ele><time>2016-05-16T10:52:01Z</time></trkpt><trkpt lat="43.0390747916" lon="0.1810051873"><ele>688.44</ele><time>2016-05-16T10:52:02Z</time></trkpt><trkpt lat="43.0390968360" lon="0.1809151657"><ele>688.92</ele><time>2016-05-16T10:52:03Z</time></trkpt><trkpt lat="43.0391249992" lon="0.1808231324"><ele>688.44</ele><time>2016-05-16T10:52:04Z</time></trkpt><trkpt lat="43.0391590297" lon="0.1807387266"><ele>687.96</ele><time>2016-05-16T10:52:05Z</time></trkpt><trkpt lat="43.0392604508" lon="0.1805047039"><ele>686.52</ele><time>2016-05-16T10:52:08Z</time></trkpt><trkpt lat="43.0393476225" lon="0.1802632213"><ele>685.56</ele><time>2016-05-16T10:52:11Z</time></trkpt><trkpt lat="43.0396072101" lon="0.1796261128"><ele>681.71</ele><time>2016-05-16T10:52:20Z</time></trkpt><trkpt lat="43.0397012550" lon="0.1793868933"><ele>680.27</ele><time>2016-05-16T10:52:25Z</time></trkpt><trkpt lat="43.0397165101" lon="0.1793246157"><ele>678.83</ele><time>2016-05-16T10:52:33Z</time></trkpt><trkpt lat="43.0397235509" lon="0.1793288905"><ele>679.31</ele><time>2016-05-16T10:52:51Z</time></trkpt><trkpt lat="43.0397240538" lon="0.1793293934"><ele>682.67</ele><time>2016-05-16T10:52:53Z</time></trkpt><trkpt lat="43.0397244729" lon="0.1793293096"><ele>676.91</ele><time>2016-05-16T10:52:54Z</time></trkpt><trkpt lat="43.0397254787" lon="0.1793286391"><ele>682.19</ele><time>2016-05-16T10:52:58Z</time></trkpt><trkpt lat="43.0397254787" lon="0.1793282200"><ele>681.23</ele><time>2016-05-16T10:52:59Z</time></trkpt><trkpt lat="43.0397256464" lon="0.1793278847"><ele>682.67</ele><time>2016-05-16T10:53:02Z</time></trkpt><trkpt lat="43.0397280771" lon="0.1793279685"><ele>673.54</ele><time>2016-05-16T10:53:06Z</time></trkpt><trkpt lat="43.0397288315" lon="0.1793278009"><ele>679.79</ele><time>2016-05-16T10:53:07Z</time></trkpt><trkpt lat="43.0397239700" lon="0.1793169044"><ele>671.62</ele><time>2016-05-16T10:53:15Z</time></trkpt><trkpt lat="43.0397226289" lon="0.1793158986"><ele>679.79</ele><time>2016-05-16T10:53:16Z</time></trkpt><trkpt lat="43.0397211201" lon="0.1793150604"><ele>690.36</ele><time>2016-05-16T10:53:17Z</time></trkpt><trkpt lat="43.0397212040" lon="0.1793143898"><ele>679.31</ele><time>2016-05-16T10:53:18Z</time></trkpt><trkpt lat="43.0397251435" lon="0.1793172397"><ele>678.35</ele><time>2016-05-16T10:53:30Z</time></trkpt><trkpt lat="43.0397268198" lon="0.1793163177"><ele>678.83</ele><time>2016-05-16T10:53:47Z</time></trkpt><trkpt lat="43.0397486966" lon="0.1793123782"><ele>677.39</ele><time>2016-05-16T10:53:55Z</time></trkpt><trkpt lat="43.0397602636" lon="0.1793302316"><ele>677.39</ele><time>2016-05-16T10:53:57Z</time></trkpt><trkpt lat="43.0397508759" lon="0.1793375239"><ele>678.35</ele><time>2016-05-16T10:53:58Z</time></trkpt><trkpt lat="43.0397233833" lon="0.1793446485"><ele>678.35</ele><time>2016-05-16T10:54:01Z</time></trkpt><trkpt lat="43.0396621116" lon="0.1794100273"><ele>678.35</ele><time>2016-05-16T10:54:09Z</time></trkpt><trkpt lat="43.0396355409" lon="0.1794292219"><ele>677.87</ele><time>2016-05-16T10:54:12Z</time></trkpt><trkpt lat="43.0394554138" lon="0.1795508433"><ele>676.91</ele><time>2016-05-16T10:54:20Z</time></trkpt><trkpt lat="43.0393274222" lon="0.1794133801"><ele>676.42</ele><time>2016-05-16T10:54:28Z</time></trkpt><trkpt lat="43.0393128376" lon="0.1793813612"><ele>675.94</ele><time>2016-05-16T10:54:29Z</time></trkpt><trkpt lat="43.0392956547" lon="0.1793549582"><ele>675.46</ele><time>2016-05-16T10:54:30Z</time></trkpt><trkpt lat="43.0392800644" lon="0.1793326624"><ele>675.94</ele><time>2016-05-16T10:54:31Z</time></trkpt><trkpt lat="43.0392655637" lon="0.1793065108"><ele>675.94</ele><time>2016-05-16T10:54:32Z</time></trkpt><trkpt lat="43.0392531585" lon="0.1792805269"><ele>676.91</ele><time>2016-05-16T10:54:33Z</time></trkpt><trkpt lat="43.0392425135" lon="0.1792436466"><ele>677.39</ele><time>2016-05-16T10:54:35Z</time></trkpt><trkpt lat="43.0392457824" lon="0.1791951153"><ele>678.35</ele><time>2016-05-16T10:54:38Z</time></trkpt><trkpt lat="43.0392243247" lon="0.1791057643"><ele>681.23</ele><time>2016-05-16T10:54:50Z</time></trkpt><trkpt lat="43.0392462015" lon="0.1789298281"><ele>683.15</ele><time>2016-05-16T10:55:00Z</time></trkpt><trkpt lat="43.0392495543" lon="0.1788951270"><ele>683.15</ele><time>2016-05-16T10:55:01Z</time></trkpt><trkpt lat="43.0392744485" lon="0.1786837354"><ele>685.08</ele><time>2016-05-16T10:55:10Z</time></trkpt><trkpt lat="43.0392861832" lon="0.1784818992"><ele>687.00</ele><time>2016-05-16T10:55:21Z</time></trkpt><trkpt lat="43.0392469559" lon="0.1782938093"><ele>688.44</ele><time>2016-05-16T10:55:32Z</time></trkpt><trkpt lat="43.0392209720" lon="0.1782425959"><ele>688.44</ele><time>2016-05-16T10:55:34Z</time></trkpt><trkpt lat="43.0392125901" lon="0.1782211382"><ele>688.92</ele><time>2016-05-16T10:55:35Z</time></trkpt><trkpt lat="43.0391401704" lon="0.1781272609"><ele>690.36</ele><time>2016-05-16T10:55:43Z</time></trkpt><trkpt lat="43.0391265079" lon="0.1781115029"><ele>690.84</ele><time>2016-05-16T10:55:44Z</time></trkpt><trkpt lat="43.0391060561" lon="0.1780761313"><ele>694.69</ele><time>2016-05-16T10:55:51Z</time></trkpt><trkpt lat="43.0391068105" lon="0.1780748740"><ele>686.52</ele><time>2016-05-16T10:55:52Z</time></trkpt><trkpt lat="43.0391070619" lon="0.1780746225"><ele>687.96</ele><time>2016-05-16T10:55:53Z</time></trkpt><trkpt lat="43.0391054694" lon="0.1780716889"><ele>690.84</ele><time>2016-05-16T10:55:54Z</time></trkpt><trkpt lat="43.0391022842" lon="0.1780677494"><ele>691.33</ele><time>2016-05-16T10:55:55Z</time></trkpt><trkpt lat="43.0390795693" lon="0.1780193858"><ele>690.36</ele><time>2016-05-16T10:56:06Z</time></trkpt><trkpt lat="43.0390690919" lon="0.1779695135"><ele>690.84</ele><time>2016-05-16T10:56:10Z</time></trkpt><trkpt lat="43.0390452873" lon="0.1778830122"><ele>690.84</ele><time>2016-05-16T10:56:16Z</time></trkpt><trkpt lat="43.0390421860" lon="0.1778654102"><ele>690.84</ele><time>2016-05-16T10:56:17Z</time></trkpt><trkpt lat="43.0390259251" lon="0.1778213214"><ele>690.84</ele><time>2016-05-16T10:56:20Z</time></trkpt><trkpt lat="43.0390156154" lon="0.1777993608"><ele>690.84</ele><time>2016-05-16T10:56:21Z</time></trkpt><trkpt lat="43.0389923137" lon="0.1777679287"><ele>691.33</ele><time>2016-05-16T10:56:23Z</time></trkpt><trkpt lat="43.0389395077" lon="0.1776874624"><ele>691.33</ele><time>2016-05-16T10:56:28Z</time></trkpt><trkpt lat="43.0388473067" lon="0.1775544416"><ele>691.81</ele><time>2016-05-16T10:56:35Z</time></trkpt><trkpt lat="43.0387945008" lon="0.1775127836"><ele>692.77</ele><time>2016-05-16T10:56:39Z</time></trkpt><trkpt lat="43.0386785790" lon="0.1773190778"><ele>695.65</ele><time>2016-05-16T10:56:51Z</time></trkpt><trkpt lat="43.0386509188" lon="0.1772699598"><ele>695.65</ele><time>2016-05-16T10:56:53Z</time></trkpt><trkpt lat="43.0385724641" lon="0.1771862246"><ele>696.13</ele><time>2016-05-16T10:57:03Z</time></trkpt><trkpt lat="43.0385110248" lon="0.1771495957"><ele>699.02</ele><time>2016-05-16T10:57:16Z</time></trkpt><trkpt lat="43.0384646729" lon="0.1771632582"><ele>703.34</ele><time>2016-05-16T10:57:23Z</time></trkpt><trkpt lat="43.0384537764" lon="0.1771714725"><ele>699.98</ele><time>2016-05-16T10:57:24Z</time></trkpt><trkpt lat="43.0384442210" lon="0.1771762501"><ele>699.98</ele><time>2016-05-16T10:57:25Z</time></trkpt><trkpt lat="43.0383514334" lon="0.1772178244"><ele>701.42</ele><time>2016-05-16T10:57:33Z</time></trkpt><trkpt lat="43.0382754095" lon="0.1772424672"><ele>702.38</ele><time>2016-05-16T10:57:46Z</time></trkpt><trkpt lat="43.0381916743" lon="0.1772055030"><ele>704.30</ele><time>2016-05-16T10:57:56Z</time></trkpt><trkpt lat="43.0381775927" lon="0.1771521103"><ele>703.82</ele><time>2016-05-16T10:58:07Z</time></trkpt><trkpt lat="43.0381761678" lon="0.1771282218"><ele>704.30</ele><time>2016-05-16T10:58:10Z</time></trkpt><trkpt lat="43.0381936859" lon="0.1770884916"><ele>711.51</ele><time>2016-05-16T10:58:15Z</time></trkpt><trkpt lat="43.0381933507" lon="0.1770863123"><ele>707.19</ele><time>2016-05-16T10:58:16Z</time></trkpt><trkpt lat="43.0382023193" lon="0.1770561375"><ele>705.75</ele><time>2016-05-16T10:58:19Z</time></trkpt><trkpt lat="43.0382681172" lon="0.1769848075"><ele>706.71</ele><time>2016-05-16T10:58:30Z</time></trkpt><trkpt lat="43.0383386090" lon="0.1768902596"><ele>708.63</ele><time>2016-05-16T10:58:42Z</time></trkpt><trkpt lat="43.0383790098" lon="0.1768425666"><ele>708.63</ele><time>2016-05-16T10:58:47Z</time></trkpt><trkpt lat="43.0384417903" lon="0.1767223701"><ele>710.55</ele><time>2016-05-16T10:58:56Z</time></trkpt><trkpt lat="43.0384938419" lon="0.1766301692"><ele>712.47</ele><time>2016-05-16T10:59:09Z</time></trkpt><trkpt lat="43.0385537725" lon="0.1765699871"><ele>713.92</ele><time>2016-05-16T10:59:20Z</time></trkpt><trkpt lat="43.0385520123" lon="0.1765805483"><ele>714.40</ele><time>2016-05-16T10:59:33Z</time></trkpt><trkpt lat="43.0385610647" lon="0.1765642874"><ele>713.44</ele><time>2016-05-16T10:59:44Z</time></trkpt><trkpt lat="43.0386856198" lon="0.1764818933"><ele>714.88</ele><time>2016-05-16T10:59:54Z</time></trkpt><trkpt lat="43.0387530103" lon="0.1764676441"><ele>716.32</ele><time>2016-05-16T11:00:04Z</time></trkpt><trkpt lat="43.0387650803" lon="0.1764663029"><ele>716.80</ele><time>2016-05-16T11:00:06Z</time></trkpt><trkpt lat="43.0389423575" lon="0.1763700787"><ele>718.24</ele><time>2016-05-16T11:00:23Z</time></trkpt><trkpt lat="43.0389633961" lon="0.1762683224"><ele>727.37</ele><time>2016-05-16T11:00:32Z</time></trkpt><trkpt lat="43.0389597919" lon="0.1762585156"><ele>713.92</ele><time>2016-05-16T11:00:33Z</time></trkpt><trkpt lat="43.0389675032" lon="0.1762451883"><ele>714.40</ele><time>2016-05-16T11:00:34Z</time></trkpt><trkpt lat="43.0389695987" lon="0.1762334537"><ele>721.61</ele><time>2016-05-16T11:00:35Z</time></trkpt><trkpt lat="43.0389705207" lon="0.1762188692"><ele>727.37</ele><time>2016-05-16T11:00:36Z</time></trkpt><trkpt lat="43.0389711075" lon="0.1762066316"><ele>722.57</ele><time>2016-05-16T11:00:37Z</time></trkpt><trkpt lat="43.0389729515" lon="0.1761959866"><ele>716.32</ele><time>2016-05-16T11:00:38Z</time></trkpt><trkpt lat="43.0389746279" lon="0.1761809830"><ele>720.16</ele><time>2016-05-16T11:00:39Z</time></trkpt><trkpt lat="43.0389750469" lon="0.1761692483"><ele>719.68</ele><time>2016-05-16T11:00:40Z</time></trkpt><trkpt lat="43.0390053894" lon="0.1760201342"><ele>722.57</ele><time>2016-05-16T11:00:53Z</time></trkpt><trkpt lat="43.0390110053" lon="0.1758387499"><ele>723.53</ele><time>2016-05-16T11:01:07Z</time></trkpt><trkpt lat="43.0390079040" lon="0.1756989397"><ele>724.97</ele><time>2016-05-16T11:01:20Z</time></trkpt><trkpt lat="43.0389914755" lon="0.1755390968"><ele>726.41</ele><time>2016-05-16T11:01:30Z</time></trkpt><trkpt lat="43.0389172956" lon="0.1753272023"><ele>728.82</ele><time>2016-05-16T11:01:46Z</time></trkpt><trkpt lat="43.0389063992" lon="0.1752831135"><ele>732.66</ele><time>2016-05-16T11:01:51Z</time></trkpt><trkpt lat="43.0389074888" lon="0.1752775814"><ele>729.78</ele><time>2016-05-16T11:01:52Z</time></trkpt><trkpt lat="43.0388688482" lon="0.1752377674"><ele>729.78</ele><time>2016-05-16T11:01:56Z</time></trkpt><trkpt lat="43.0388522521" lon="0.1751737297"><ele>730.26</ele><time>2016-05-16T11:02:08Z</time></trkpt><trkpt lat="43.0388448760" lon="0.1751522720"><ele>731.22</ele><time>2016-05-16T11:02:12Z</time></trkpt><trkpt lat="43.0388195626" lon="0.1750284713"><ele>732.66</ele><time>2016-05-16T11:02:22Z</time></trkpt><trkpt lat="43.0388046429" lon="0.1748894993"><ele>734.10</ele><time>2016-05-16T11:02:38Z</time></trkpt><trkpt lat="43.0388026312" lon="0.1748625096"><ele>734.58</ele><time>2016-05-16T11:02:40Z</time></trkpt><trkpt lat="43.0387861189" lon="0.1747241244"><ele>736.03</ele><time>2016-05-16T11:02:53Z</time></trkpt><trkpt lat="43.0386945046" lon="0.1745545585"><ele>737.95</ele><time>2016-05-16T11:03:06Z</time></trkpt><trkpt lat="43.0386175588" lon="0.1745218690"><ele>739.39</ele><time>2016-05-16T11:03:18Z</time></trkpt><trkpt lat="43.0386114400" lon="0.1745211985"><ele>739.39</ele><time>2016-05-16T11:03:19Z</time></trkpt><trkpt lat="43.0385877192" lon="0.1745524630"><ele>739.39</ele><time>2016-05-16T11:03:27Z</time></trkpt><trkpt lat="43.0385841150" lon="0.1746001560"><ele>741.31</ele><time>2016-05-16T11:03:34Z</time></trkpt><trkpt lat="43.0385746434" lon="0.1747247111"><ele>742.28</ele><time>2016-05-16T11:03:46Z</time></trkpt><trkpt lat="43.0385664292" lon="0.1748550497"><ele>744.68</ele><time>2016-05-16T11:03:59Z</time></trkpt><trkpt lat="43.0385129526" lon="0.1749889925"><ele>747.56</ele><time>2016-05-16T11:04:12Z</time></trkpt><trkpt lat="43.0384562910" lon="0.1751806866"><ele>750.45</ele><time>2016-05-16T11:04:28Z</time></trkpt><trkpt lat="43.0384120345" lon="0.1752767432"><ele>752.37</ele><time>2016-05-16T11:04:36Z</time></trkpt><trkpt lat="43.0383816082" lon="0.1753629930"><ele>753.33</ele><time>2016-05-16T11:04:49Z</time></trkpt><trkpt lat="43.0383745674" lon="0.1753722969"><ele>754.29</ele><time>2016-05-16T11:04:51Z</time></trkpt><trkpt lat="43.0383172352" lon="0.1754159667"><ele>755.25</ele><time>2016-05-16T11:05:04Z</time></trkpt><trkpt lat="43.0383029021" lon="0.1754547749"><ele>758.14</ele><time>2016-05-16T11:05:17Z</time></trkpt><trkpt lat="43.0382903293" lon="0.1754792500"><ele>760.54</ele><time>2016-05-16T11:05:32Z</time></trkpt><trkpt lat="43.0382243637" lon="0.1755252667"><ele>761.98</ele><time>2016-05-16T11:05:44Z</time></trkpt><trkpt lat="43.0381676182" lon="0.1755862869"><ele>764.39</ele><time>2016-05-16T11:05:58Z</time></trkpt><trkpt lat="43.0381096993" lon="0.1756462175"><ele>766.79</ele><time>2016-05-16T11:06:14Z</time></trkpt><trkpt lat="43.0379183404" lon="0.1757887937"><ele>768.71</ele><time>2016-05-16T11:06:27Z</time></trkpt><trkpt lat="43.0377823859" lon="0.1758933999"><ele>771.11</ele><time>2016-05-16T11:06:40Z</time></trkpt><trkpt lat="43.0376666319" lon="0.1759778894"><ele>773.52</ele><time>2016-05-16T11:06:56Z</time></trkpt><trkpt lat="43.0375938769" lon="0.1760058012"><ele>774.96</ele><time>2016-05-16T11:07:13Z</time></trkpt><trkpt lat="43.0375687312" lon="0.1760105789"><ele>778.32</ele><time>2016-05-16T11:07:18Z</time></trkpt><trkpt lat="43.0375696532" lon="0.1760091539"><ele>776.40</ele><time>2016-05-16T11:07:19Z</time></trkpt><trkpt lat="43.0375760235" lon="0.1759919710"><ele>773.04</ele><time>2016-05-16T11:07:20Z</time></trkpt><trkpt lat="43.0375625286" lon="0.1759896241"><ele>769.19</ele><time>2016-05-16T11:07:22Z</time></trkpt><trkpt lat="43.0375643726" lon="0.1759873610"><ele>770.15</ele><time>2016-05-16T11:07:23Z</time></trkpt><trkpt lat="43.0375678092" lon="0.1759818289"><ele>773.52</ele><time>2016-05-16T11:07:25Z</time></trkpt><trkpt lat="43.0375708267" lon="0.1759764645"><ele>775.92</ele><time>2016-05-16T11:07:27Z</time></trkpt><trkpt lat="43.0375704914" lon="0.1759762969"><ele>774.96</ele><time>2016-05-16T11:07:30Z</time></trkpt><trkpt lat="43.0375697371" lon="0.1759780571"><ele>770.63</ele><time>2016-05-16T11:07:31Z</time></trkpt><trkpt lat="43.0375692341" lon="0.1759799849"><ele>776.88</ele><time>2016-05-16T11:07:32Z</time></trkpt><trkpt lat="43.0375686474" lon="0.1759822480"><ele>767.27</ele><time>2016-05-16T11:07:33Z</time></trkpt><trkpt lat="43.0375527218" lon="0.1759853493"><ele>775.92</ele><time>2016-05-16T11:07:34Z</time></trkpt><trkpt lat="43.0375404004" lon="0.1759877801"><ele>766.79</ele><time>2016-05-16T11:07:35Z</time></trkpt><trkpt lat="43.0375285819" lon="0.1759902108"><ele>774.96</ele><time>2016-05-16T11:07:36Z</time></trkpt><trkpt lat="43.0374480318" lon="0.1760096569"><ele>774.48</ele><time>2016-05-16T11:07:57Z</time></trkpt><trkpt lat="43.0374384765" lon="0.1760100760"><ele>774.48</ele><time>2016-05-16T11:08:05Z</time></trkpt><trkpt lat="43.0373530649" lon="0.1760210562"><ele>775.92</ele><time>2016-05-16T11:08:17Z</time></trkpt><trkpt lat="43.0373308528" lon="0.1760146860"><ele>779.77</ele><time>2016-05-16T11:08:22Z</time></trkpt><trkpt lat="43.0373272486" lon="0.1760152727"><ele>776.88</ele><time>2016-05-16T11:08:25Z</time></trkpt><trkpt lat="43.0373229738" lon="0.1760077290"><ele>782.17</ele><time>2016-05-16T11:08:31Z</time></trkpt><trkpt lat="43.0373226386" lon="0.1760051306"><ele>767.75</ele><time>2016-05-16T11:08:32Z</time></trkpt><trkpt lat="43.0373221356" lon="0.1760031190"><ele>777.84</ele><time>2016-05-16T11:08:33Z</time></trkpt><trkpt lat="43.0373226386" lon="0.1759970002"><ele>770.63</ele><time>2016-05-16T11:08:36Z</time></trkpt><trkpt lat="43.0373229738" lon="0.1759950723"><ele>777.36</ele><time>2016-05-16T11:08:37Z</time></trkpt><trkpt lat="43.0373236444" lon="0.1759934798"><ele>782.17</ele><time>2016-05-16T11:08:40Z</time></trkpt><trkpt lat="43.0373237282" lon="0.1759931445"><ele>772.08</ele><time>2016-05-16T11:08:41Z</time></trkpt><trkpt lat="43.0373237282" lon="0.1759926416"><ele>780.25</ele><time>2016-05-16T11:08:42Z</time></trkpt><trkpt lat="43.0373236444" lon="0.1759921387"><ele>770.15</ele><time>2016-05-16T11:08:43Z</time></trkpt><trkpt lat="43.0373233091" lon="0.1759928931"><ele>776.88</ele><time>2016-05-16T11:08:44Z</time></trkpt><trkpt lat="43.0373231415" lon="0.1759940665"><ele>773.52</ele><time>2016-05-16T11:08:45Z</time></trkpt><trkpt lat="43.0373228062" lon="0.1759963296"><ele>777.36</ele><time>2016-05-16T11:08:47Z</time></trkpt><trkpt lat="43.0373227224" lon="0.1759976707"><ele>776.40</ele><time>2016-05-16T11:08:48Z</time></trkpt><trkpt lat="43.0373111553" lon="0.1760007720"><ele>776.40</ele><time>2016-05-16T11:09:05Z</time></trkpt><trkpt lat="43.0371458642" lon="0.1760085672"><ele>779.29</ele><time>2016-05-16T11:09:23Z</time></trkpt><trkpt lat="43.0370134301" lon="0.1760461181"><ele>781.21</ele><time>2016-05-16T11:09:42Z</time></trkpt><trkpt lat="43.0369332153" lon="0.1760999300"><ele>783.61</ele><time>2016-05-16T11:09:59Z</time></trkpt><trkpt lat="43.0368866120" lon="0.1761546638"><ele>784.09</ele><time>2016-05-16T11:10:02Z</time></trkpt><trkpt lat="43.0368238315" lon="0.1762016863"><ele>786.02</ele><time>2016-05-16T11:10:17Z</time></trkpt><trkpt lat="43.0367025454" lon="0.1762893610"><ele>787.94</ele><time>2016-05-16T11:10:32Z</time></trkpt><trkpt lat="43.0365145393" lon="0.1764229685"><ele>788.90</ele><time>2016-05-16T11:10:43Z</time></trkpt><trkpt lat="43.0364181474" lon="0.1764461864"><ele>789.86</ele><time>2016-05-16T11:10:54Z</time></trkpt><trkpt lat="43.0363038182" lon="0.1765144151"><ele>791.30</ele><time>2016-05-16T11:11:11Z</time></trkpt><trkpt lat="43.0363220070" lon="0.1764992438"><ele>792.26</ele><time>2016-05-16T11:11:20Z</time></trkpt><trkpt lat="43.0363462307" lon="0.1765039377"><ele>792.74</ele><time>2016-05-16T11:11:24Z</time></trkpt><trkpt lat="43.0364198238" lon="0.1764708292"><ele>793.71</ele><time>2016-05-16T11:11:30Z</time></trkpt><trkpt lat="43.0365573708" lon="0.1763168536"><ele>794.67</ele><time>2016-05-16T11:11:42Z</time></trkpt><trkpt lat="43.0366467219" lon="0.1761808991"><ele>795.15</ele><time>2016-05-16T11:11:50Z</time></trkpt><trkpt lat="43.0368264299" lon="0.1759878639"><ele>795.15</ele><time>2016-05-16T11:12:03Z</time></trkpt><trkpt lat="43.0369705986" lon="0.1757752150"><ele>797.07</ele><time>2016-05-16T11:12:15Z</time></trkpt><trkpt lat="43.0371126719" lon="0.1756168809"><ele>798.51</ele><time>2016-05-16T11:12:28Z</time></trkpt><trkpt lat="43.0372093152" lon="0.1753855404"><ele>799.95</ele><time>2016-05-16T11:12:42Z</time></trkpt><trkpt lat="43.0372389872" lon="0.1752569620"><ele>800.44</ele><time>2016-05-16T11:12:54Z</time></trkpt><trkpt lat="43.0372417532" lon="0.1752534416"><ele>805.24</ele><time>2016-05-16T11:12:58Z</time></trkpt><trkpt lat="43.0372383166" lon="0.1752535254"><ele>800.92</ele><time>2016-05-16T11:12:59Z</time></trkpt><trkpt lat="43.0372413341" lon="0.1751735620"><ele>800.44</ele><time>2016-05-16T11:13:19Z</time></trkpt><trkpt lat="43.0372382328" lon="0.1751571335"><ele>801.40</ele><time>2016-05-16T11:13:21Z</time></trkpt><trkpt lat="43.0372176971" lon="0.1750700455"><ele>802.36</ele><time>2016-05-16T11:13:27Z</time></trkpt><trkpt lat="43.0372141767" lon="0.1750577241"><ele>801.88</ele><time>2016-05-16T11:13:28Z</time></trkpt><trkpt lat="43.0371952336" lon="0.1750200056"><ele>803.32</ele><time>2016-05-16T11:13:31Z</time></trkpt><trkpt lat="43.0371404998" lon="0.1748387050"><ele>804.76</ele><time>2016-05-16T11:13:44Z</time></trkpt><trkpt lat="43.0371142644" lon="0.1746433228"><ele>805.72</ele><time>2016-05-16T11:13:54Z</time></trkpt><trkpt lat="43.0370461196" lon="0.1743589249"><ele>808.61</ele><time>2016-05-16T11:14:10Z</time></trkpt><trkpt lat="43.0370031204" lon="0.1742577553"><ele>809.09</ele><time>2016-05-16T11:14:16Z</time></trkpt><trkpt lat="43.0369467940" lon="0.1741434261"><ele>810.53</ele><time>2016-05-16T11:14:23Z</time></trkpt><trkpt lat="43.0369084887" lon="0.1739098225"><ele>811.97</ele><time>2016-05-16T11:14:36Z</time></trkpt><trkpt lat="43.0368785653" lon="0.1737581100"><ele>813.41</ele><time>2016-05-16T11:14:49Z</time></trkpt><trkpt lat="43.0368861090" lon="0.1737389155"><ele>813.41</ele><time>2016-05-16T11:14:52Z</time></trkpt><trkpt lat="43.0369243305" lon="0.1737212297"><ele>814.37</ele><time>2016-05-16T11:14:55Z</time></trkpt><trkpt lat="43.0369207263" lon="0.1738467067"><ele>815.82</ele><time>2016-05-16T11:15:11Z</time></trkpt><trkpt lat="43.0369178765" lon="0.1738859341"><ele>816.30</ele><time>2016-05-16T11:15:14Z</time></trkpt><trkpt lat="43.0369345564" lon="0.1741668954"><ele>818.22</ele><time>2016-05-16T11:15:30Z</time></trkpt><trkpt lat="43.0369415134" lon="0.1743743476"><ele>819.66</ele><time>2016-05-16T11:15:42Z</time></trkpt><trkpt lat="43.0369370710" lon="0.1744619384"><ele>820.14</ele><time>2016-05-16T11:15:46Z</time></trkpt><trkpt lat="43.0369274318" lon="0.1744983997"><ele>820.14</ele><time>2016-05-16T11:15:48Z</time></trkpt><trkpt lat="43.0369175412" lon="0.1745978929"><ele>821.10</ele><time>2016-05-16T11:15:53Z</time></trkpt><trkpt lat="43.0368575267" lon="0.1747460011"><ele>822.55</ele><time>2016-05-16T11:16:06Z</time></trkpt><trkpt lat="43.0368556827" lon="0.1746745035"><ele>823.51</ele><time>2016-05-16T11:16:13Z</time></trkpt><trkpt lat="43.0368770566" lon="0.1746068615"><ele>823.99</ele><time>2016-05-16T11:16:18Z</time></trkpt><trkpt lat="43.0368115939" lon="0.1744240522"><ele>825.43</ele><time>2016-05-16T11:16:32Z</time></trkpt><trkpt lat="43.0368041340" lon="0.1744036842"><ele>825.43</ele><time>2016-05-16T11:16:33Z</time></trkpt><trkpt lat="43.0367996916" lon="0.1743600983"><ele>825.43</ele><time>2016-05-16T11:16:35Z</time></trkpt><trkpt lat="43.0367850233" lon="0.1743103098"><ele>824.95</ele><time>2016-05-16T11:16:38Z</time></trkpt><trkpt lat="43.0367532559" lon="0.1742264070"><ele>826.87</ele><time>2016-05-16T11:16:47Z</time></trkpt><trkpt lat="43.0367758032" lon="0.1742135826"><ele>826.87</ele><time>2016-05-16T11:16:57Z</time></trkpt><trkpt lat="43.0366981030" lon="0.1743886806"><ele>828.79</ele><time>2016-05-16T11:17:11Z</time></trkpt><trkpt lat="43.0366297066" lon="0.1746651996"><ele>830.24</ele><time>2016-05-16T11:17:27Z</time></trkpt><trkpt lat="43.0366282817" lon="0.1746831369"><ele>831.20</ele><time>2016-05-16T11:17:29Z</time></trkpt><trkpt lat="43.0366143677" lon="0.1747781876"><ele>831.68</ele><time>2016-05-16T11:17:36Z</time></trkpt><trkpt lat="43.0366212409" lon="0.1749258768"><ele>833.60</ele><time>2016-05-16T11:17:48Z</time></trkpt><trkpt lat="43.0365866236" lon="0.1751036569"><ele>835.04</ele><time>2016-05-16T11:18:00Z</time></trkpt><trkpt lat="43.0365535989" lon="0.1751070935"><ele>837.45</ele><time>2016-05-16T11:18:12Z</time></trkpt><trkpt lat="43.0365520902" lon="0.1751099434"><ele>829.76</ele><time>2016-05-16T11:18:15Z</time></trkpt><trkpt lat="43.0365512520" lon="0.1751117874"><ele>835.52</ele><time>2016-05-16T11:18:16Z</time></trkpt><trkpt lat="43.0365504976" lon="0.1751148049"><ele>842.73</ele><time>2016-05-16T11:18:17Z</time></trkpt><trkpt lat="43.0365490727" lon="0.1751166489"><ele>825.91</ele><time>2016-05-16T11:18:18Z</time></trkpt><trkpt lat="43.0365487374" lon="0.1751173194"><ele>835.04</ele><time>2016-05-16T11:18:20Z</time></trkpt><trkpt lat="43.0365486536" lon="0.1751177385"><ele>841.77</ele><time>2016-05-16T11:18:21Z</time></trkpt><trkpt lat="43.0365486536" lon="0.1751186606"><ele>835.04</ele><time>2016-05-16T11:18:22Z</time></trkpt><trkpt lat="43.0364989489" lon="0.1752223447"><ele>835.04</ele><time>2016-05-16T11:18:34Z</time></trkpt><trkpt lat="43.0364476517" lon="0.1752533577"><ele>837.45</ele><time>2016-05-16T11:18:47Z</time></trkpt><trkpt lat="43.0364427902" lon="0.1752234343"><ele>838.89</ele><time>2016-05-16T11:18:58Z</time></trkpt><trkpt lat="43.0364167225" lon="0.1751650125"><ele>839.37</ele><time>2016-05-16T11:19:04Z</time></trkpt><trkpt lat="43.0363716278" lon="0.1751006395"><ele>840.33</ele><time>2016-05-16T11:19:17Z</time></trkpt><trkpt lat="43.0363437999" lon="0.1750091929"><ele>842.73</ele><time>2016-05-16T11:19:31Z</time></trkpt><trkpt lat="43.0363364238" lon="0.1749659423"><ele>843.21</ele><time>2016-05-16T11:19:38Z</time></trkpt><trkpt lat="43.0362956040" lon="0.1748569775"><ele>844.18</ele><time>2016-05-16T11:19:50Z</time></trkpt><trkpt lat="43.0362847913" lon="0.1747412235"><ele>845.62</ele><time>2016-05-16T11:20:01Z</time></trkpt><trkpt lat="43.0362598971" lon="0.1746159978"><ele>847.54</ele><time>2016-05-16T11:20:14Z</time></trkpt><trkpt lat="43.0362250283" lon="0.1745579112"><ele>848.50</ele><time>2016-05-16T11:20:28Z</time></trkpt><trkpt lat="43.0361697078" lon="0.1745083742"><ele>849.46</ele><time>2016-05-16T11:20:36Z</time></trkpt><trkpt lat="43.0361179914" lon="0.1743678097"><ele>850.42</ele><time>2016-05-16T11:20:48Z</time></trkpt><trkpt lat="43.0360724777" lon="0.1742799673"><ele>851.38</ele><time>2016-05-16T11:20:58Z</time></trkpt><trkpt lat="43.0360580608" lon="0.1741452701"><ele>851.87</ele><time>2016-05-16T11:21:10Z</time></trkpt><trkpt lat="43.0360593181" lon="0.1741175260"><ele>852.35</ele><time>2016-05-16T11:21:19Z</time></trkpt><trkpt lat="43.0360579770" lon="0.1741184480"><ele>856.67</ele><time>2016-05-16T11:21:24Z</time></trkpt><trkpt lat="43.0360573065" lon="0.1741182804"><ele>851.38</ele><time>2016-05-16T11:21:25Z</time></trkpt><trkpt lat="43.0360569712" lon="0.1741178613"><ele>851.38</ele><time>2016-05-16T11:21:26Z</time></trkpt><trkpt lat="43.0360450689" lon="0.1740915421"><ele>850.90</ele><time>2016-05-16T11:21:41Z</time></trkpt><trkpt lat="43.0360321607" lon="0.1740647200"><ele>850.90</ele><time>2016-05-16T11:21:50Z</time></trkpt><trkpt lat="43.0360016506" lon="0.1740172785"><ele>850.90</ele><time>2016-05-16T11:22:00Z</time></trkpt><trkpt lat="43.0360045005" lon="0.1740209665"><ele>856.19</ele><time>2016-05-16T11:22:09Z</time></trkpt><trkpt lat="43.0360045843" lon="0.1740207989"><ele>851.38</ele><time>2016-05-16T11:22:10Z</time></trkpt><trkpt lat="43.0360092781" lon="0.1740243193"><ele>846.58</ele><time>2016-05-16T11:22:24Z</time></trkpt><trkpt lat="43.0360091105" lon="0.1740245707"><ele>843.21</ele><time>2016-05-16T11:22:25Z</time></trkpt><trkpt lat="43.0360097811" lon="0.1740250736"><ele>851.38</ele><time>2016-05-16T11:22:26Z</time></trkpt><trkpt lat="43.0360107031" lon="0.1740241516"><ele>850.90</ele><time>2016-05-16T11:22:27Z</time></trkpt><trkpt lat="43.0360141397" lon="0.1740240678"><ele>850.90</ele><time>2016-05-16T11:22:47Z</time></trkpt><trkpt lat="43.0360198393" lon="0.1739730220"><ele>849.46</ele><time>2016-05-16T11:22:58Z</time></trkpt><trkpt lat="43.0360765010" lon="0.1739349682"><ele>848.02</ele><time>2016-05-16T11:23:10Z</time></trkpt><trkpt lat="43.0360766686" lon="0.1739354711"><ele>844.66</ele><time>2016-05-16T11:23:11Z</time></trkpt><trkpt lat="43.0360769201" lon="0.1739359740"><ele>849.46</ele><time>2016-05-16T11:23:12Z</time></trkpt><trkpt lat="43.0360385310" lon="0.1739475410"><ele>848.98</ele><time>2016-05-16T11:23:25Z</time></trkpt><trkpt lat="43.0360219348" lon="0.1739969943"><ele>850.42</ele><time>2016-05-16T11:23:38Z</time></trkpt><trkpt lat="43.0360221025" lon="0.1740005985"><ele>845.62</ele><time>2016-05-16T11:23:39Z</time></trkpt><trkpt lat="43.0360229407" lon="0.1740022749"><ele>850.42</ele><time>2016-05-16T11:23:40Z</time></trkpt><trkpt lat="43.0360232759" lon="0.1740123332"><ele>850.90</ele><time>2016-05-16T11:23:57Z</time></trkpt><trkpt lat="43.0360310711" lon="0.1740078069"><ele>851.38</ele><time>2016-05-16T11:24:11Z</time></trkpt><trkpt lat="43.0360553786" lon="0.1739550848"><ele>848.98</ele><time>2016-05-16T11:24:14Z</time></trkpt><trkpt lat="43.0360630900" lon="0.1739438530"><ele>848.02</ele><time>2016-05-16T11:24:15Z</time></trkpt><trkpt lat="43.0360690411" lon="0.1739163604"><ele>846.58</ele><time>2016-05-16T11:24:17Z</time></trkpt><trkpt lat="43.0360651854" lon="0.1737542544"><ele>843.21</ele><time>2016-05-16T11:24:24Z</time></trkpt><trkpt lat="43.0360951088" lon="0.1736796554"><ele>839.85</ele><time>2016-05-16T11:24:30Z</time></trkpt><trkpt lat="43.0361137167" lon="0.1736647356"><ele>840.33</ele><time>2016-05-16T11:24:40Z</time></trkpt><trkpt lat="43.0361187458" lon="0.1736664958"><ele>838.89</ele><time>2016-05-16T11:24:58Z</time></trkpt><trkpt lat="43.0361277144" lon="0.1736652385"><ele>838.89</ele><time>2016-05-16T11:24:59Z</time></trkpt><trkpt lat="43.0361493398" lon="0.1736604609"><ele>838.89</ele><time>2016-05-16T11:25:01Z</time></trkpt><trkpt lat="43.0362369306" lon="0.1735550165"><ele>833.12</ele><time>2016-05-16T11:25:08Z</time></trkpt><trkpt lat="43.0362560414" lon="0.1735304575"><ele>832.16</ele><time>2016-05-16T11:25:11Z</time></trkpt><trkpt lat="43.0362737272" lon="0.1735000312"><ele>830.24</ele><time>2016-05-16T11:25:13Z</time></trkpt><trkpt lat="43.0363691971" lon="0.1734072436"><ele>826.39</ele><time>2016-05-16T11:25:19Z</time></trkpt><trkpt lat="43.0364537705" lon="0.1733154617"><ele>822.55</ele><time>2016-05-16T11:25:23Z</time></trkpt><trkpt lat="43.0364759825" lon="0.1732995361"><ele>820.62</ele><time>2016-05-16T11:25:25Z</time></trkpt><trkpt lat="43.0364962667" lon="0.1732816827"><ele>819.66</ele><time>2016-05-16T11:25:27Z</time></trkpt><trkpt lat="43.0365878809" lon="0.1732106041"><ele>816.78</ele><time>2016-05-16T11:25:35Z</time></trkpt><trkpt lat="43.0366139486" lon="0.1731971093"><ele>819.66</ele><time>2016-05-16T11:25:37Z</time></trkpt><trkpt lat="43.0366214924" lon="0.1731913257"><ele>811.97</ele><time>2016-05-16T11:25:42Z</time></trkpt><trkpt lat="43.0366215762" lon="0.1731919125"><ele>818.70</ele><time>2016-05-16T11:25:43Z</time></trkpt><trkpt lat="43.0366223305" lon="0.1731917448"><ele>819.66</ele><time>2016-05-16T11:25:45Z</time></trkpt><trkpt lat="43.0366244260" lon="0.1731929183"><ele>819.18</ele><time>2016-05-16T11:25:47Z</time></trkpt><trkpt lat="43.0366195645" lon="0.1731937565"><ele>820.14</ele><time>2016-05-16T11:25:51Z</time></trkpt><trkpt lat="43.0366188940" lon="0.1731961034"><ele>819.66</ele><time>2016-05-16T11:26:01Z</time></trkpt><trkpt lat="43.0366758909" lon="0.1731411181"><ele>817.26</ele><time>2016-05-16T11:26:05Z</time></trkpt><trkpt lat="43.0367330555" lon="0.1730839536"><ele>814.85</ele><time>2016-05-16T11:26:07Z</time></trkpt><trkpt lat="43.0367929023" lon="0.1729476638"><ele>810.53</ele><time>2016-05-16T11:26:13Z</time></trkpt><trkpt lat="43.0368063133" lon="0.1729348395"><ele>809.57</ele><time>2016-05-16T11:26:15Z</time></trkpt><trkpt lat="43.0368254241" lon="0.1729421318"><ele>808.61</ele><time>2016-05-16T11:26:25Z</time></trkpt><trkpt lat="43.0368228257" lon="0.1729418803"><ele>808.13</ele><time>2016-05-16T11:26:41Z</time></trkpt><trkpt lat="43.0368519109" lon="0.1729484182"><ele>808.61</ele><time>2016-05-16T11:26:43Z</time></trkpt><trkpt lat="43.0369464587" lon="0.1729010604"><ele>803.32</ele><time>2016-05-16T11:26:47Z</time></trkpt><trkpt lat="43.0369617976" lon="0.1728678681"><ele>802.36</ele><time>2016-05-16T11:26:49Z</time></trkpt><trkpt lat="43.0369666591" lon="0.1728281379"><ele>801.40</ele><time>2016-05-16T11:26:51Z</time></trkpt><trkpt lat="43.0369587801" lon="0.1727454923"><ele>799.95</ele><time>2016-05-16T11:26:55Z</time></trkpt><trkpt lat="43.0369836744" lon="0.1727221068"><ele>798.99</ele><time>2016-05-16T11:26:57Z</time></trkpt><trkpt lat="43.0370172020" lon="0.1726504415"><ele>796.11</ele><time>2016-05-16T11:27:01Z</time></trkpt><trkpt lat="43.0370183755" lon="0.1726021618"><ele>795.15</ele><time>2016-05-16T11:27:03Z</time></trkpt><trkpt lat="43.0370058864" lon="0.1725723222"><ele>794.19</ele><time>2016-05-16T11:27:05Z</time></trkpt><trkpt lat="43.0370004382" lon="0.1725451648"><ele>793.71</ele><time>2016-05-16T11:27:19Z</time></trkpt><trkpt lat="43.0369940680" lon="0.1725391299"><ele>793.71</ele><time>2016-05-16T11:27:21Z</time></trkpt><trkpt lat="43.0369806569" lon="0.1724642795"><ele>790.82</ele><time>2016-05-16T11:27:26Z</time></trkpt><trkpt lat="43.0369983427" lon="0.1724310871"><ele>789.86</ele><time>2016-05-16T11:27:28Z</time></trkpt><trkpt lat="43.0370627996" lon="0.1723564882"><ele>785.53</ele><time>2016-05-16T11:27:33Z</time></trkpt><trkpt lat="43.0370684154" lon="0.1723465137"><ele>785.05</ele><time>2016-05-16T11:27:34Z</time></trkpt><trkpt lat="43.0370900407" lon="0.1722749323"><ele>781.69</ele><time>2016-05-16T11:27:39Z</time></trkpt><trkpt lat="43.0371147674" lon="0.1721806359"><ele>778.32</ele><time>2016-05-16T11:27:43Z</time></trkpt><trkpt lat="43.0371233169" lon="0.1721485332"><ele>777.36</ele><time>2016-05-16T11:27:44Z</time></trkpt><trkpt lat="43.0371596105" lon="0.1721042767"><ele>775.92</ele><time>2016-05-16T11:27:47Z</time></trkpt><trkpt lat="43.0371783022" lon="0.1720841601"><ele>774.00</ele><time>2016-05-16T11:27:48Z</time></trkpt><trkpt lat="43.0372361373" lon="0.1720202900"><ele>770.15</ele><time>2016-05-16T11:27:53Z</time></trkpt><trkpt lat="43.0372477882" lon="0.1719795540"><ele>768.71</ele><time>2016-05-16T11:27:56Z</time></trkpt><trkpt lat="43.0372483749" lon="0.1719723456"><ele>768.23</ele><time>2016-05-16T11:27:57Z</time></trkpt><trkpt lat="43.0372790527" lon="0.1719113253"><ele>764.39</ele><time>2016-05-16T11:28:02Z</time></trkpt><trkpt lat="43.0373188667" lon="0.1718401629"><ele>761.98</ele><time>2016-05-16T11:28:06Z</time></trkpt><trkpt lat="43.0373948067" lon="0.1717674918"><ele>757.66</ele><time>2016-05-16T11:28:11Z</time></trkpt><trkpt lat="43.0374098103" lon="0.1717571821"><ele>756.69</ele><time>2016-05-16T11:28:12Z</time></trkpt><trkpt lat="43.0374516360" lon="0.1717386581"><ele>755.25</ele><time>2016-05-16T11:28:15Z</time></trkpt><trkpt lat="43.0375150032" lon="0.1716364827"><ele>750.93</ele><time>2016-05-16T11:28:20Z</time></trkpt><trkpt lat="43.0375520512" lon="0.1715325471"><ele>747.56</ele><time>2016-05-16T11:28:23Z</time></trkpt><trkpt lat="43.0375613552" lon="0.1714964211"><ele>746.12</ele><time>2016-05-16T11:28:24Z</time></trkpt><trkpt lat="43.0375999119" lon="0.1713839360"><ele>740.83</ele><time>2016-05-16T11:28:28Z</time></trkpt><trkpt lat="43.0376227945" lon="0.1713045593"><ele>737.47</ele><time>2016-05-16T11:28:32Z</time></trkpt><trkpt lat="43.0376248900" lon="0.1712758094"><ele>736.51</ele><time>2016-05-16T11:28:33Z</time></trkpt><trkpt lat="43.0376668833" lon="0.1711629052"><ele>732.18</ele><time>2016-05-16T11:28:37Z</time></trkpt><trkpt lat="43.0377367884" lon="0.1711343229"><ele>728.34</ele><time>2016-05-16T11:28:43Z</time></trkpt><trkpt lat="43.0377380457" lon="0.1711181458"><ele>728.34</ele><time>2016-05-16T11:29:02Z</time></trkpt><trkpt lat="43.0377801228" lon="0.1711079199"><ele>726.41</ele><time>2016-05-16T11:29:13Z</time></trkpt><trkpt lat="43.0377918575" lon="0.1710893959"><ele>724.49</ele><time>2016-05-16T11:29:15Z</time></trkpt><trkpt lat="43.0378175899" lon="0.1709986199"><ele>720.65</ele><time>2016-05-16T11:29:19Z</time></trkpt><trkpt lat="43.0378176738" lon="0.1708104461"><ele>713.92</ele><time>2016-05-16T11:29:23Z</time></trkpt><trkpt lat="43.0378090404" lon="0.1707324106"><ele>711.03</ele><time>2016-05-16T11:29:25Z</time></trkpt><trkpt lat="43.0378581583" lon="0.1705961209"><ele>705.75</ele><time>2016-05-16T11:29:29Z</time></trkpt><trkpt lat="43.0378698930" lon="0.1704685483"><ele>702.38</ele><time>2016-05-16T11:29:33Z</time></trkpt><trkpt lat="43.0378555600" lon="0.1704489347"><ele>701.90</ele><time>2016-05-16T11:29:34Z</time></trkpt><trkpt lat="43.0377813801" lon="0.1703181770"><ele>697.09</ele><time>2016-05-16T11:29:39Z</time></trkpt><trkpt lat="43.0377842300" lon="0.1703051012"><ele>697.09</ele><time>2016-05-16T11:29:40Z</time></trkpt><trkpt lat="43.0378251337" lon="0.1702089608"><ele>692.77</ele><time>2016-05-16T11:29:44Z</time></trkpt><trkpt lat="43.0378750060" lon="0.1701609325"><ele>690.36</ele><time>2016-05-16T11:29:46Z</time></trkpt><trkpt lat="43.0380559713" lon="0.1700699888"><ele>686.52</ele><time>2016-05-16T11:29:53Z</time></trkpt><trkpt lat="43.0380859785" lon="0.1700699888"><ele>686.52</ele><time>2016-05-16T11:29:54Z</time></trkpt><trkpt lat="43.0381544586" lon="0.1700606849"><ele>685.56</ele><time>2016-05-16T11:29:58Z</time></trkpt><trkpt lat="43.0382782593" lon="0.1700823102"><ele>684.12</ele><time>2016-05-16T11:30:09Z</time></trkpt><trkpt lat="43.0382904131" lon="0.1700839866"><ele>684.12</ele><time>2016-05-16T11:30:10Z</time></trkpt><trkpt lat="43.0384007189" lon="0.1700973138"><ele>681.71</ele><time>2016-05-16T11:30:22Z</time></trkpt><trkpt lat="43.0384158902" lon="0.1700908598"><ele>674.50</ele><time>2016-05-16T11:30:29Z</time></trkpt><trkpt lat="43.0384188239" lon="0.1700891834"><ele>678.83</ele><time>2016-05-16T11:30:30Z</time></trkpt><trkpt lat="43.0384216737" lon="0.1700874232"><ele>682.67</ele><time>2016-05-16T11:30:31Z</time></trkpt><trkpt lat="43.0384323187" lon="0.1700808853"><ele>686.52</ele><time>2016-05-16T11:30:32Z</time></trkpt><trkpt lat="43.0384339951" lon="0.1700799633"><ele>679.79</ele><time>2016-05-16T11:30:33Z</time></trkpt><trkpt lat="43.0384355877" lon="0.1700792089"><ele>687.00</ele><time>2016-05-16T11:30:34Z</time></trkpt><trkpt lat="43.0384440534" lon="0.1700737607"><ele>682.67</ele><time>2016-05-16T11:30:36Z</time></trkpt><trkpt lat="43.0384490825" lon="0.1700702403"><ele>682.67</ele><time>2016-05-16T11:30:37Z</time></trkpt><trkpt lat="43.0384579673" lon="0.1700640377"><ele>675.94</ele><time>2016-05-16T11:30:40Z</time></trkpt><trkpt lat="43.0384597275" lon="0.1700628642"><ele>682.67</ele><time>2016-05-16T11:30:41Z</time></trkpt><trkpt lat="43.0384610686" lon="0.1700609364"><ele>686.04</ele><time>2016-05-16T11:30:44Z</time></trkpt><trkpt lat="43.0384612363" lon="0.1700605173"><ele>681.71</ele><time>2016-05-16T11:30:45Z</time></trkpt><trkpt lat="43.0384627450" lon="0.1700591762"><ele>685.08</ele><time>2016-05-16T11:30:50Z</time></trkpt><trkpt lat="43.0384666845" lon="0.1700600144"><ele>681.71</ele><time>2016-05-16T11:30:54Z</time></trkpt><trkpt lat="43.0384830292" lon="0.1700631157"><ele>681.71</ele><time>2016-05-16T11:31:10Z</time></trkpt><trkpt lat="43.0385001283" lon="0.1700751018"><ele>682.19</ele><time>2016-05-16T11:31:35Z</time></trkpt><trkpt lat="43.0385438818" lon="0.1700759400"><ele>681.23</ele><time>2016-05-16T11:31:40Z</time></trkpt><trkpt lat="43.0385970231" lon="0.1700166799"><ele>677.87</ele><time>2016-05-16T11:31:52Z</time></trkpt><trkpt lat="43.0386067461" lon="0.1699994970"><ele>677.87</ele><time>2016-05-16T11:32:00Z</time></trkpt><trkpt lat="43.0386302155" lon="0.1699706633"><ele>675.94</ele><time>2016-05-16T11:32:02Z</time></trkpt><trkpt lat="43.0386921577" lon="0.1699212939"><ele>672.58</ele><time>2016-05-16T11:32:06Z</time></trkpt><trkpt lat="43.0387675110" lon="0.1699682325"><ele>670.66</ele><time>2016-05-16T11:32:10Z</time></trkpt><trkpt lat="43.0388068222" lon="0.1699910313"><ele>669.70</ele><time>2016-05-16T11:32:12Z</time></trkpt><trkpt lat="43.0388478935" lon="0.1699749380"><ele>669.70</ele><time>2016-05-16T11:32:27Z</time></trkpt><trkpt lat="43.0388918146" lon="0.1699983235"><ele>669.70</ele><time>2016-05-16T11:32:46Z</time></trkpt><trkpt lat="43.0389564391" lon="0.1700228825"><ele>669.22</ele><time>2016-05-16T11:33:00Z</time></trkpt><trkpt lat="43.0389951635" lon="0.1700606011"><ele>668.73</ele><time>2016-05-16T11:33:10Z</time></trkpt><trkpt lat="43.0390224047" lon="0.1700406522"><ele>666.33</ele><time>2016-05-16T11:33:14Z</time></trkpt><trkpt lat="43.0390664935" lon="0.1699642092"><ele>662.01</ele><time>2016-05-16T11:33:19Z</time></trkpt><trkpt lat="43.0391432717" lon="0.1698980760"><ele>658.64</ele><time>2016-05-16T11:33:23Z</time></trkpt><trkpt lat="43.0391731951" lon="0.1698609442"><ele>658.16</ele><time>2016-05-16T11:33:25Z</time></trkpt><trkpt lat="43.0392340478" lon="0.1696389075"><ele>654.31</ele><time>2016-05-16T11:33:29Z</time></trkpt><trkpt lat="43.0392388254" lon="0.1695303619"><ele>652.39</ele><time>2016-05-16T11:33:31Z</time></trkpt><trkpt lat="43.0394238979" lon="0.1692791563"><ele>650.47</ele><time>2016-05-16T11:33:34Z</time></trkpt><trkpt lat="43.0394396558" lon="0.1692143641"><ele>648.55</ele><time>2016-05-16T11:33:35Z</time></trkpt><trkpt lat="43.0394582637" lon="0.1691496558"><ele>648.07</ele><time>2016-05-16T11:33:36Z</time></trkpt><trkpt lat="43.0394761171" lon="0.1690963469"><ele>647.10</ele><time>2016-05-16T11:33:37Z</time></trkpt><trkpt lat="43.0394960660" lon="0.1690449659"><ele>645.66</ele><time>2016-05-16T11:33:38Z</time></trkpt><trkpt lat="43.0395197030" lon="0.1689995360"><ele>644.22</ele><time>2016-05-16T11:33:39Z</time></trkpt><trkpt lat="43.0395992473" lon="0.1688706223"><ele>639.89</ele><time>2016-05-16T11:33:42Z</time></trkpt><trkpt lat="43.0396753550" lon="0.1687390264"><ele>636.53</ele><time>2016-05-16T11:33:45Z</time></trkpt><trkpt lat="43.0397104751" lon="0.1686533634"><ele>634.61</ele><time>2016-05-16T11:33:47Z</time></trkpt><trkpt lat="43.0397308432" lon="0.1686191652"><ele>633.17</ele><time>2016-05-16T11:33:48Z</time></trkpt><trkpt lat="43.0397454277" lon="0.1686373539"><ele>632.68</ele><time>2016-05-16T11:33:49Z</time></trkpt><trkpt lat="43.0397591740" lon="0.1686548721"><ele>632.20</ele><time>2016-05-16T11:33:50Z</time></trkpt><trkpt lat="43.0397699866" lon="0.1686592307"><ele>632.20</ele><time>2016-05-16T11:33:51Z</time></trkpt><trkpt lat="43.0397875048" lon="0.1686624996"><ele>632.20</ele><time>2016-05-16T11:34:04Z</time></trkpt><trkpt lat="43.0397892650" lon="0.1686740667"><ele>632.20</ele><time>2016-05-16T11:34:33Z</time></trkpt><trkpt lat="43.0397896003" lon="0.1686906628"><ele>632.68</ele><time>2016-05-16T11:34:50Z</time></trkpt><trkpt lat="43.0397931207" lon="0.1687149704"><ele>632.68</ele><time>2016-05-16T11:35:07Z</time></trkpt><trkpt lat="43.0398033466" lon="0.1687242743"><ele>632.20</ele><time>2016-05-16T11:35:08Z</time></trkpt><trkpt lat="43.0398194399" lon="0.1687313989"><ele>632.20</ele><time>2016-05-16T11:35:09Z</time></trkpt><trkpt lat="43.0398456752" lon="0.1687407866"><ele>631.72</ele><time>2016-05-16T11:35:10Z</time></trkpt><trkpt lat="43.0398736708" lon="0.1687584724"><ele>631.24</ele><time>2016-05-16T11:35:11Z</time></trkpt><trkpt lat="43.0398925301" lon="0.1687741466"><ele>630.76</ele><time>2016-05-16T11:35:12Z</time></trkpt><trkpt lat="43.0399182625" lon="0.1687931735"><ele>629.80</ele><time>2016-05-16T11:35:14Z</time></trkpt><trkpt lat="43.0399237946" lon="0.1688074227"><ele>629.32</ele><time>2016-05-16T11:35:26Z</time></trkpt><trkpt lat="43.0399735831" lon="0.1688232645"><ele>628.36</ele><time>2016-05-16T11:35:40Z</time></trkpt><trkpt lat="43.0400071945" lon="0.1688179839"><ele>627.88</ele><time>2016-05-16T11:35:54Z</time></trkpt><trkpt lat="43.0400877446" lon="0.1688504219"><ele>624.51</ele><time>2016-05-16T11:36:06Z</time></trkpt><trkpt lat="43.0401019100" lon="0.1688664313"><ele>623.55</ele><time>2016-05-16T11:36:08Z</time></trkpt><trkpt lat="43.0401012395" lon="0.1688672695"><ele>624.03</ele><time>2016-05-16T11:36:25Z</time></trkpt><trkpt lat="43.0401000660" lon="0.1688679401"><ele>624.03</ele><time>2016-05-16T11:36:39Z</time></trkpt><trkpt lat="43.0401005689" lon="0.1688358374"><ele>624.03</ele><time>2016-05-16T11:36:46Z</time></trkpt><trkpt lat="43.0400962941" lon="0.1687826123"><ele>624.03</ele><time>2016-05-16T11:36:48Z</time></trkpt><trkpt lat="43.0400048476" lon="0.1682074461"><ele>623.07</ele><time>2016-05-16T11:37:01Z</time></trkpt><trkpt lat="43.0399809591" lon="0.1681274828"><ele>622.59</ele><time>2016-05-16T11:37:04Z</time></trkpt><trkpt lat="43.0399577413" lon="0.1681143232"><ele>622.11</ele><time>2016-05-16T11:37:05Z</time></trkpt><trkpt lat="43.0399235431" lon="0.1681128982"><ele>623.07</ele><time>2016-05-16T11:37:06Z</time></trkpt><trkpt lat="43.0398904346" lon="0.1681211963"><ele>623.07</ele><time>2016-05-16T11:37:07Z</time></trkpt><trkpt lat="43.0398574937" lon="0.1681317575"><ele>622.11</ele><time>2016-05-16T11:37:08Z</time></trkpt><trkpt lat="43.0398240499" lon="0.1681401394"><ele>622.59</ele><time>2016-05-16T11:37:09Z</time></trkpt><trkpt lat="43.0395677313" lon="0.1680740900"><ele>622.11</ele><time>2016-05-16T11:37:20Z</time></trkpt><trkpt lat="43.0394661427" lon="0.1674810704"><ele>621.63</ele><time>2016-05-16T11:37:33Z</time></trkpt><trkpt lat="43.0392730236" lon="0.1669082511"><ele>621.15</ele><time>2016-05-16T11:37:47Z</time></trkpt><trkpt lat="43.0389720295" lon="0.1664285548"><ele>620.19</ele><time>2016-05-16T11:38:00Z</time></trkpt><trkpt lat="43.0384615716" lon="0.1659372915"><ele>620.19</ele><time>2016-05-16T11:38:15Z</time></trkpt><trkpt lat="43.0377979763" lon="0.1653189585"><ele>618.26</ele><time>2016-05-16T11:38:32Z</time></trkpt><trkpt lat="43.0375348683" lon="0.1648784894"><ele>616.82</ele><time>2016-05-16T11:38:39Z</time></trkpt><trkpt lat="43.0375088006" lon="0.1648053993"><ele>616.82</ele><time>2016-05-16T11:38:40Z</time></trkpt><trkpt lat="43.0374873430" lon="0.1647284534"><ele>616.82</ele><time>2016-05-16T11:38:41Z</time></trkpt><trkpt lat="43.0374706630" lon="0.1646489091"><ele>616.82</ele><time>2016-05-16T11:38:42Z</time></trkpt><trkpt lat="43.0374592636" lon="0.1645682752"><ele>616.82</ele><time>2016-05-16T11:38:43Z</time></trkpt><trkpt lat="43.0374140013" lon="0.1636857446"><ele>616.82</ele><time>2016-05-16T11:38:56Z</time></trkpt><trkpt lat="43.0374061223" lon="0.1636262331"><ele>616.34</ele><time>2016-05-16T11:38:57Z</time></trkpt><trkpt lat="43.0373926274" lon="0.1635682303"><ele>616.34</ele><time>2016-05-16T11:38:58Z</time></trkpt><trkpt lat="43.0372934695" lon="0.1630360633"><ele>614.42</ele><time>2016-05-16T11:39:10Z</time></trkpt><trkpt lat="43.0372870993" lon="0.1630052179"><ele>613.94</ele><time>2016-05-16T11:39:13Z</time></trkpt><trkpt lat="43.0372794718" lon="0.1629816648"><ele>613.46</ele><time>2016-05-16T11:39:14Z</time></trkpt><trkpt lat="43.0372646358" lon="0.1629564352"><ele>613.94</ele><time>2016-05-16T11:39:15Z</time></trkpt><trkpt lat="43.0372429267" lon="0.1629368216"><ele>613.94</ele><time>2016-05-16T11:39:16Z</time></trkpt><trkpt lat="43.0372138415" lon="0.1629308704"><ele>613.94</ele><time>2016-05-16T11:39:17Z</time></trkpt><trkpt lat="43.0371819064" lon="0.1629397552"><ele>613.46</ele><time>2016-05-16T11:39:18Z</time></trkpt><trkpt lat="43.0371500552" lon="0.1629556809"><ele>613.94</ele><time>2016-05-16T11:39:19Z</time></trkpt><trkpt lat="43.0371194612" lon="0.1629742049"><ele>613.46</ele><time>2016-05-16T11:39:20Z</time></trkpt><trkpt lat="43.0370891187" lon="0.1629935671"><ele>613.94</ele><time>2016-05-16T11:39:21Z</time></trkpt><trkpt lat="43.0365240946" lon="0.1633299328"><ele>614.90</ele><time>2016-05-16T11:39:38Z</time></trkpt><trkpt lat="43.0360871460" lon="0.1636073738"><ele>615.86</ele><time>2016-05-16T11:39:50Z</time></trkpt><trkpt lat="43.0360493436" lon="0.1636331063"><ele>615.86</ele><time>2016-05-16T11:39:51Z</time></trkpt><trkpt lat="43.0354276579" lon="0.1640538778"><ele>617.78</ele><time>2016-05-16T11:40:07Z</time></trkpt><trkpt lat="43.0346407648" lon="0.1646096818"><ele>619.23</ele><time>2016-05-16T11:40:26Z</time></trkpt><trkpt lat="43.0340108648" lon="0.1650229935"><ele>621.15</ele><time>2016-05-16T11:40:40Z</time></trkpt><trkpt lat="43.0331888516" lon="0.1655957289"><ele>623.07</ele><time>2016-05-16T11:40:59Z</time></trkpt><trkpt lat="43.0327225663" lon="0.1659091283"><ele>624.03</ele><time>2016-05-16T11:41:10Z</time></trkpt><trkpt lat="43.0326733645" lon="0.1659327652"><ele>624.03</ele><time>2016-05-16T11:41:11Z</time></trkpt><trkpt lat="43.0321397725" lon="0.1662729867"><ele>627.40</ele><time>2016-05-16T11:41:23Z</time></trkpt><trkpt lat="43.0316499341" lon="0.1665910799"><ele>630.76</ele><time>2016-05-16T11:41:35Z</time></trkpt><trkpt lat="43.0314441584" lon="0.1667138748"><ele>631.24</ele><time>2016-05-16T11:41:40Z</time></trkpt><trkpt lat="43.0314019136" lon="0.1667252742"><ele>631.24</ele><time>2016-05-16T11:41:41Z</time></trkpt><trkpt lat="43.0308896117" lon="0.1668755617"><ele>634.61</ele><time>2016-05-16T11:41:56Z</time></trkpt><trkpt lat="43.0303893797" lon="0.1670130249"><ele>636.05</ele><time>2016-05-16T11:42:13Z</time></trkpt><trkpt lat="43.0300882179" lon="0.1671002805"><ele>637.49</ele><time>2016-05-16T11:42:26Z</time></trkpt><trkpt lat="43.0298386049" lon="0.1671557687"><ele>637.49</ele><time>2016-05-16T11:42:39Z</time></trkpt><trkpt lat="43.0297940131" lon="0.1671600435"><ele>637.97</ele><time>2016-05-16T11:42:41Z</time></trkpt><trkpt lat="43.0297733936" lon="0.1671711914"><ele>637.49</ele><time>2016-05-16T11:42:42Z</time></trkpt><trkpt lat="43.0296809413" lon="0.1672162861"><ele>638.45</ele><time>2016-05-16T11:42:47Z</time></trkpt><trkpt lat="43.0295860581" lon="0.1673359796"><ele>637.97</ele><time>2016-05-16T11:42:54Z</time></trkpt><trkpt lat="43.0295634270" lon="0.1673449483"><ele>638.45</ele><time>2016-05-16T11:42:55Z</time></trkpt><trkpt lat="43.0295392871" lon="0.1673547551"><ele>638.93</ele><time>2016-05-16T11:42:56Z</time></trkpt><trkpt lat="43.0295166560" lon="0.1673669089"><ele>638.45</ele><time>2016-05-16T11:42:57Z</time></trkpt><trkpt lat="43.0294975452" lon="0.1673810743"><ele>638.93</ele><time>2016-05-16T11:42:58Z</time></trkpt><trkpt lat="43.0294263829" lon="0.1675900351"><ele>638.93</ele><time>2016-05-16T11:43:08Z</time></trkpt><trkpt lat="43.0294254608" lon="0.1676857565"><ele>638.45</ele><time>2016-05-16T11:43:18Z</time></trkpt><trkpt lat="43.0294307414" lon="0.1676434278"><ele>637.97</ele><time>2016-05-16T11:43:24Z</time></trkpt><trkpt lat="43.0294187553" lon="0.1676312741"><ele>637.97</ele><time>2016-05-16T11:43:35Z</time></trkpt><trkpt lat="43.0294153187" lon="0.1676238142"><ele>642.30</ele><time>2016-05-16T11:43:39Z</time></trkpt><trkpt lat="43.0294167437" lon="0.1676223055"><ele>637.97</ele><time>2016-05-16T11:43:40Z</time></trkpt><trkpt lat="43.0294167437" lon="0.1676187851"><ele>637.49</ele><time>2016-05-16T11:43:42Z</time></trkpt><trkpt lat="43.0294148158" lon="0.1675965730"><ele>638.93</ele><time>2016-05-16T11:44:03Z</time></trkpt><trkpt lat="43.0294131394" lon="0.1676006801"><ele>637.49</ele><time>2016-05-16T11:44:28Z</time></trkpt><trkpt lat="43.0294123013" lon="0.1676005125"><ele>637.97</ele><time>2016-05-16T11:44:30Z</time></trkpt></trkseg></trk></gpx>